<?xml version="1.0" encoding="UTF-8" standalone="no"?>
<gpx xmlns="http://www.topografix.com/GPX/1/1" creator="GPS Master" version="1.1"
xmlns:xsi="http://www.w3.org/2001/XMLSchema-instance"
xsi:schemaLocation="http://www.topografix.com/GPX/1/1 http://www.topografix.com/GPX/1/1/gpx.xsd"
xmlns:gpxtpx="http://www.garmin.com/xmlschemas/TrackPointExtension/v1">
<trk>
 <name>1 (2013-04-14 11:40:34)</name>
 <number>1</number>
 <trkseg>
 <trkpt lat="52.067773300" lon="9.128863300"><ele>221</ele><time>2013-04-14T10:40:34Z</time></trkpt>
 <trkpt lat="52.067791000" lon="9.128847100"><ele>220</ele><time>2013-04-14T10:40:38Z</time></trkpt>
 <trkpt lat="52.067804500" lon="9.128882000"><ele>219</ele><time>2013-04-14T10:40:42Z</time></trkpt>
 <trkpt lat="52.067831600" lon="9.128917400"><ele>219</ele><time>2013-04-14T10:40:46Z</time></trkpt>
 <trkpt lat="52.067843700" lon="9.128945400"><ele>219</ele><time>2013-04-14T10:40:50Z</time></trkpt>
 <trkpt lat="52.067844900" lon="9.128934900"><ele>218</ele><time>2013-04-14T10:40:54Z</time></trkpt>
 <trkpt lat="52.067826600" lon="9.128928300"><ele>218</ele><time>2013-04-14T10:40:58Z</time></trkpt>
 <trkpt lat="52.067838300" lon="9.128914100"><ele>217</ele><time>2013-04-14T10:41:02Z</time></trkpt>
 <trkpt lat="52.067817000" lon="9.128913300"><ele>214</ele><time>2013-04-14T10:41:06Z</time></trkpt>
 <trkpt lat="52.067818700" lon="9.128904500"><ele>214</ele><time>2013-04-14T10:41:10Z</time></trkpt>
 <trkpt lat="52.067820800" lon="9.128895800"><ele>213</ele><time>2013-04-14T10:41:14Z</time></trkpt>
 <trkpt lat="52.067822900" lon="9.128879900"><ele>213</ele><time>2013-04-14T10:41:18Z</time></trkpt>
 <trkpt lat="52.067837800" lon="9.128800800"><ele>213</ele><time>2013-04-14T10:41:22Z</time></trkpt>
 <trkpt lat="52.067878700" lon="9.128706200"><ele>212</ele><time>2013-04-14T10:41:26Z</time></trkpt>
 <trkpt lat="52.067894100" lon="9.128667400"><ele>212</ele><time>2013-04-14T10:41:30Z</time></trkpt>
 <trkpt lat="52.067885300" lon="9.128711600"><ele>212</ele><time>2013-04-14T10:41:34Z</time></trkpt>
 <trkpt lat="52.067856200" lon="9.128781200"><ele>211</ele><time>2013-04-14T10:41:38Z</time></trkpt>
 <trkpt lat="52.067836200" lon="9.128860400"><ele>211</ele><time>2013-04-14T10:41:42Z</time></trkpt>
 <trkpt lat="52.067819900" lon="9.128894100"><ele>211</ele><time>2013-04-14T10:41:46Z</time></trkpt>
 <trkpt lat="52.067807400" lon="9.128904900"><ele>211</ele><time>2013-04-14T10:41:50Z</time></trkpt>
 <trkpt lat="52.067805800" lon="9.128957000"><ele>211</ele><time>2013-04-14T10:41:54Z</time></trkpt>
 <trkpt lat="52.067792800" lon="9.129027400"><ele>211</ele><time>2013-04-14T10:41:58Z</time></trkpt>
 <trkpt lat="52.067774500" lon="9.129104900"><ele>211</ele><time>2013-04-14T10:42:02Z</time></trkpt>
 <trkpt lat="52.067759900" lon="9.129172000"><ele>212</ele><time>2013-04-14T10:42:06Z</time></trkpt>
 <trkpt lat="52.067747400" lon="9.129248300"><ele>212</ele><time>2013-04-14T10:42:10Z</time></trkpt>
 <trkpt lat="52.067734100" lon="9.129311600"><ele>212</ele><time>2013-04-14T10:42:14Z</time></trkpt>
 <trkpt lat="52.067721200" lon="9.129375300"><ele>212</ele><time>2013-04-14T10:42:18Z</time></trkpt>
 <trkpt lat="52.067720800" lon="9.129422000"><ele>212</ele><time>2013-04-14T10:42:22Z</time></trkpt>
 <trkpt lat="52.067724500" lon="9.129462400"><ele>212</ele><time>2013-04-14T10:42:26Z</time></trkpt>
 <trkpt lat="52.067809500" lon="9.129523300"><ele>212</ele><time>2013-04-14T10:42:30Z</time></trkpt>
 <trkpt lat="52.067809500" lon="9.129604100"><ele>213</ele><time>2013-04-14T10:42:34Z</time></trkpt>
 <trkpt lat="52.067807400" lon="9.129672000"><ele>213</ele><time>2013-04-14T10:42:38Z</time></trkpt>
 <trkpt lat="52.067803300" lon="9.129740800"><ele>213</ele><time>2013-04-14T10:42:42Z</time></trkpt>
 <trkpt lat="52.067782400" lon="9.129811600"><ele>213</ele><time>2013-04-14T10:42:46Z</time></trkpt>
 <trkpt lat="52.067772800" lon="9.129885800"><ele>214</ele><time>2013-04-14T10:42:50Z</time></trkpt>
 <trkpt lat="52.067755400" lon="9.129951600"><ele>214</ele><time>2013-04-14T10:42:54Z</time></trkpt>
 <trkpt lat="52.067761600" lon="9.130011200"><ele>214</ele><time>2013-04-14T10:42:58Z</time></trkpt>
 <trkpt lat="52.067758700" lon="9.130082400"><ele>215</ele><time>2013-04-14T10:43:02Z</time></trkpt>
 <trkpt lat="52.067702000" lon="9.130198700"><ele>215</ele><time>2013-04-14T10:43:06Z</time></trkpt>
 <trkpt lat="52.067667900" lon="9.130210800"><ele>215</ele><time>2013-04-14T10:43:10Z</time></trkpt>
 <trkpt lat="52.067615300" lon="9.130131200"><ele>215</ele><time>2013-04-14T10:43:14Z</time></trkpt>
 <trkpt lat="52.067568700" lon="9.130074900"><ele>216</ele><time>2013-04-14T10:43:18Z</time></trkpt>
 <trkpt lat="52.067551200" lon="9.130071600"><ele>216</ele><time>2013-04-14T10:43:22Z</time></trkpt>
 <trkpt lat="52.067537000" lon="9.130070300"><ele>216</ele><time>2013-04-14T10:43:26Z</time></trkpt>
 <trkpt lat="52.067510300" lon="9.130055400"><ele>216</ele><time>2013-04-14T10:43:30Z</time></trkpt>
 <trkpt lat="52.067477000" lon="9.130042000"><ele>217</ele><time>2013-04-14T10:43:34Z</time></trkpt>
 <trkpt lat="52.067456200" lon="9.130026200"><ele>217</ele><time>2013-04-14T10:43:38Z</time></trkpt>
 <trkpt lat="52.067416200" lon="9.130018700"><ele>217</ele><time>2013-04-14T10:43:42Z</time></trkpt>
 <trkpt lat="52.067367800" lon="9.130008700"><ele>217</ele><time>2013-04-14T10:43:46Z</time></trkpt>
 <trkpt lat="52.067333700" lon="9.129992400"><ele>218</ele><time>2013-04-14T10:43:50Z</time></trkpt>
 <trkpt lat="52.067290800" lon="9.129975300"><ele>218</ele><time>2013-04-14T10:43:54Z</time></trkpt>
 <trkpt lat="52.067248700" lon="9.129968300"><ele>218</ele><time>2013-04-14T10:43:58Z</time></trkpt>
 <trkpt lat="52.067198700" lon="9.129939100"><ele>219</ele><time>2013-04-14T10:44:02Z</time></trkpt>
 <trkpt lat="52.067159100" lon="9.129923300"><ele>219</ele><time>2013-04-14T10:44:06Z</time></trkpt>
 <trkpt lat="52.067117400" lon="9.129949900"><ele>220</ele><time>2013-04-14T10:44:10Z</time></trkpt>
 <trkpt lat="52.067087000" lon="9.129978700"><ele>220</ele><time>2013-04-14T10:44:14Z</time></trkpt>
 <trkpt lat="52.067049500" lon="9.130009500"><ele>221</ele><time>2013-04-14T10:44:18Z</time></trkpt>
 <trkpt lat="52.067004900" lon="9.130036600"><ele>221</ele><time>2013-04-14T10:44:22Z</time></trkpt>
 <trkpt lat="52.066952400" lon="9.130051200"><ele>222</ele><time>2013-04-14T10:44:26Z</time></trkpt>
 <trkpt lat="52.066913700" lon="9.130076200"><ele>222</ele><time>2013-04-14T10:44:30Z</time></trkpt>
 <trkpt lat="52.066885700" lon="9.130097000"><ele>223</ele><time>2013-04-14T10:44:34Z</time></trkpt>
 <trkpt lat="52.066863300" lon="9.130160400"><ele>223</ele><time>2013-04-14T10:44:38Z</time></trkpt>
 <trkpt lat="52.066836200" lon="9.130200800"><ele>224</ele><time>2013-04-14T10:44:42Z</time></trkpt>
 <trkpt lat="52.066790800" lon="9.130242800"><ele>225</ele><time>2013-04-14T10:44:46Z</time></trkpt>
 <trkpt lat="52.066743300" lon="9.130242800"><ele>225</ele><time>2013-04-14T10:44:50Z</time></trkpt>
 <trkpt lat="52.066680300" lon="9.130191600"><ele>226</ele><time>2013-04-14T10:44:54Z</time></trkpt>
 <trkpt lat="52.066636200" lon="9.130162400"><ele>226</ele><time>2013-04-14T10:44:58Z</time></trkpt>
 <trkpt lat="52.066587400" lon="9.130149500"><ele>227</ele><time>2013-04-14T10:45:02Z</time></trkpt>
 <trkpt lat="52.066544100" lon="9.130124500"><ele>227</ele><time>2013-04-14T10:45:06Z</time></trkpt>
 <trkpt lat="52.066500800" lon="9.130057900"><ele>227</ele><time>2013-04-14T10:45:10Z</time></trkpt>
 <trkpt lat="52.066463700" lon="9.129987000"><ele>228</ele><time>2013-04-14T10:45:14Z</time></trkpt>
 <trkpt lat="52.066414500" lon="9.129977400"><ele>228</ele><time>2013-04-14T10:45:18Z</time></trkpt>
 <trkpt lat="52.066366200" lon="9.129961600"><ele>228</ele><time>2013-04-14T10:45:22Z</time></trkpt>
 <trkpt lat="52.066313200" lon="9.129947000"><ele>229</ele><time>2013-04-14T10:45:26Z</time></trkpt>
 <trkpt lat="52.066274100" lon="9.129940700"><ele>229</ele><time>2013-04-14T10:45:30Z</time></trkpt>
 <trkpt lat="52.066240300" lon="9.129934900"><ele>229</ele><time>2013-04-14T10:45:34Z</time></trkpt>
 <trkpt lat="52.066208700" lon="9.129996200"><ele>229</ele><time>2013-04-14T10:45:38Z</time></trkpt>
 <trkpt lat="52.066195800" lon="9.130094900"><ele>229</ele><time>2013-04-14T10:45:42Z</time></trkpt>
 <trkpt lat="52.066207800" lon="9.130187000"><ele>228</ele><time>2013-04-14T10:45:46Z</time></trkpt>
 <trkpt lat="52.066218300" lon="9.130272000"><ele>228</ele><time>2013-04-14T10:45:50Z</time></trkpt>
 <trkpt lat="52.066203700" lon="9.130340300"><ele>228</ele><time>2013-04-14T10:45:54Z</time></trkpt>
 <trkpt lat="52.066207000" lon="9.130394500"><ele>228</ele><time>2013-04-14T10:45:58Z</time></trkpt>
 <trkpt lat="52.066212400" lon="9.130468700"><ele>227</ele><time>2013-04-14T10:46:02Z</time></trkpt>
 <trkpt lat="52.066218700" lon="9.130549100"><ele>227</ele><time>2013-04-14T10:46:06Z</time></trkpt>
 <trkpt lat="52.066221600" lon="9.130625800"><ele>226</ele><time>2013-04-14T10:46:10Z</time></trkpt>
 <trkpt lat="52.066219500" lon="9.130708300"><ele>225</ele><time>2013-04-14T10:46:14Z</time></trkpt>
 <trkpt lat="52.066214100" lon="9.130787400"><ele>225</ele><time>2013-04-14T10:46:18Z</time></trkpt>
 <trkpt lat="52.066215300" lon="9.130866600"><ele>224</ele><time>2013-04-14T10:46:22Z</time></trkpt>
 <trkpt lat="52.066207000" lon="9.130965800"><ele>223</ele><time>2013-04-14T10:46:26Z</time></trkpt>
 <trkpt lat="52.066212000" lon="9.131043700"><ele>222</ele><time>2013-04-14T10:46:30Z</time></trkpt>
 <trkpt lat="52.066219900" lon="9.131118300"><ele>221</ele><time>2013-04-14T10:46:34Z</time></trkpt>
 <trkpt lat="52.066211200" lon="9.131184900"><ele>219</ele><time>2013-04-14T10:46:38Z</time></trkpt>
 <trkpt lat="52.066204100" lon="9.131260800"><ele>218</ele><time>2013-04-14T10:46:42Z</time></trkpt>
 <trkpt lat="52.066199100" lon="9.131333200"><ele>217</ele><time>2013-04-14T10:46:46Z</time></trkpt>
 <trkpt lat="52.066205300" lon="9.131396200"><ele>216</ele><time>2013-04-14T10:46:50Z</time></trkpt>
 <trkpt lat="52.066204100" lon="9.131460800"><ele>215</ele><time>2013-04-14T10:46:54Z</time></trkpt>
 <trkpt lat="52.066192400" lon="9.131536600"><ele>214</ele><time>2013-04-14T10:46:58Z</time></trkpt>
 <trkpt lat="52.066189500" lon="9.131607400"><ele>213</ele><time>2013-04-14T10:47:02Z</time></trkpt>
 <trkpt lat="52.066187000" lon="9.131672000"><ele>212</ele><time>2013-04-14T10:47:06Z</time></trkpt>
 <trkpt lat="52.066185000" lon="9.131742400"><ele>211</ele><time>2013-04-14T10:47:10Z</time></trkpt>
 <trkpt lat="52.066176200" lon="9.131816600"><ele>210</ele><time>2013-04-14T10:47:14Z</time></trkpt>
 <trkpt lat="52.066181200" lon="9.131882000"><ele>209</ele><time>2013-04-14T10:47:18Z</time></trkpt>
 <trkpt lat="52.066178700" lon="9.131932900"><ele>208</ele><time>2013-04-14T10:47:22Z</time></trkpt>
 <trkpt lat="52.066171200" lon="9.131937400"><ele>208</ele><time>2013-04-14T10:47:26Z</time></trkpt>
 <trkpt lat="52.066162400" lon="9.131945700"><ele>207</ele><time>2013-04-14T10:47:30Z</time></trkpt>
 <trkpt lat="52.066161600" lon="9.132009100"><ele>207</ele><time>2013-04-14T10:47:34Z</time></trkpt>
 <trkpt lat="52.066168300" lon="9.132084900"><ele>206</ele><time>2013-04-14T10:47:38Z</time></trkpt>
 <trkpt lat="52.066152400" lon="9.132159500"><ele>206</ele><time>2013-04-14T10:47:42Z</time></trkpt>
 <trkpt lat="52.066143200" lon="9.132237000"><ele>206</ele><time>2013-04-14T10:47:46Z</time></trkpt>
 <trkpt lat="52.066143300" lon="9.132317000"><ele>205</ele><time>2013-04-14T10:47:50Z</time></trkpt>
 <trkpt lat="52.066152900" lon="9.132390400"><ele>205</ele><time>2013-04-14T10:47:54Z</time></trkpt>
 <trkpt lat="52.066150400" lon="9.132469900"><ele>205</ele><time>2013-04-14T10:47:58Z</time></trkpt>
 <trkpt lat="52.066154100" lon="9.132530800"><ele>205</ele><time>2013-04-14T10:48:02Z</time></trkpt>
 <trkpt lat="52.066161600" lon="9.132575800"><ele>205</ele><time>2013-04-14T10:48:06Z</time></trkpt>
 <trkpt lat="52.066167900" lon="9.132583300"><ele>205</ele><time>2013-04-14T10:48:10Z</time></trkpt>
 <trkpt lat="52.066167900" lon="9.132583300"><ele>204</ele><time>2013-04-14T10:48:14Z</time></trkpt>
 <trkpt lat="52.066167900" lon="9.132583300"><ele>204</ele><time>2013-04-14T10:48:18Z</time></trkpt>
 <trkpt lat="52.066162400" lon="9.132583300"><ele>204</ele><time>2013-04-14T10:48:22Z</time></trkpt>
 <trkpt lat="52.066160800" lon="9.132597000"><ele>204</ele><time>2013-04-14T10:48:26Z</time></trkpt>
 <trkpt lat="52.066154900" lon="9.132645800"><ele>204</ele><time>2013-04-14T10:48:30Z</time></trkpt>
 <trkpt lat="52.066154100" lon="9.132714900"><ele>204</ele><time>2013-04-14T10:48:34Z</time></trkpt>
 <trkpt lat="52.066154900" lon="9.132789100"><ele>204</ele><time>2013-04-14T10:48:38Z</time></trkpt>
 <trkpt lat="52.066157400" lon="9.132867000"><ele>204</ele><time>2013-04-14T10:48:42Z</time></trkpt>
 <trkpt lat="52.066165800" lon="9.132940400"><ele>204</ele><time>2013-04-14T10:48:46Z</time></trkpt>
 <trkpt lat="52.066171600" lon="9.133016200"><ele>204</ele><time>2013-04-14T10:48:50Z</time></trkpt>
 <trkpt lat="52.066150400" lon="9.133097000"><ele>204</ele><time>2013-04-14T10:48:54Z</time></trkpt>
 <trkpt lat="52.066107400" lon="9.133169900"><ele>203</ele><time>2013-04-14T10:48:58Z</time></trkpt>
 <trkpt lat="52.066072400" lon="9.133221200"><ele>203</ele><time>2013-04-14T10:49:02Z</time></trkpt>
 <trkpt lat="52.066029100" lon="9.133267400"><ele>203</ele><time>2013-04-14T10:49:06Z</time></trkpt>
 <trkpt lat="52.065977800" lon="9.133293700"><ele>203</ele><time>2013-04-14T10:49:10Z</time></trkpt>
 <trkpt lat="52.065940800" lon="9.133299900"><ele>203</ele><time>2013-04-14T10:49:14Z</time></trkpt>
 <trkpt lat="52.065902900" lon="9.133306200"><ele>204</ele><time>2013-04-14T10:49:18Z</time></trkpt>
 <trkpt lat="52.065866600" lon="9.133337400"><ele>204</ele><time>2013-04-14T10:49:22Z</time></trkpt>
 <trkpt lat="52.065831600" lon="9.133367800"><ele>204</ele><time>2013-04-14T10:49:26Z</time></trkpt>
 <trkpt lat="52.065789100" lon="9.133372800"><ele>205</ele><time>2013-04-14T10:49:30Z</time></trkpt>
 <trkpt lat="52.065740800" lon="9.133377400"><ele>205</ele><time>2013-04-14T10:49:34Z</time></trkpt>
 <trkpt lat="52.065675300" lon="9.133377900"><ele>205</ele><time>2013-04-14T10:49:38Z</time></trkpt>
 <trkpt lat="52.065628300" lon="9.133389900"><ele>206</ele><time>2013-04-14T10:49:42Z</time></trkpt>
 <trkpt lat="52.065582000" lon="9.133393700"><ele>206</ele><time>2013-04-14T10:49:46Z</time></trkpt>
 <trkpt lat="52.065535800" lon="9.133387800"><ele>207</ele><time>2013-04-14T10:49:50Z</time></trkpt>
 <trkpt lat="52.065488700" lon="9.133394900"><ele>208</ele><time>2013-04-14T10:49:54Z</time></trkpt>
 <trkpt lat="52.065442900" lon="9.133404500"><ele>209</ele><time>2013-04-14T10:49:58Z</time></trkpt>
 <trkpt lat="52.065401600" lon="9.133422400"><ele>210</ele><time>2013-04-14T10:50:02Z</time></trkpt>
 <trkpt lat="52.065359100" lon="9.133436600"><ele>210</ele><time>2013-04-14T10:50:06Z</time></trkpt>
 <trkpt lat="52.065311600" lon="9.133436600"><ele>211</ele><time>2013-04-14T10:50:10Z</time></trkpt>
 <trkpt lat="52.065271600" lon="9.133434500"><ele>212</ele><time>2013-04-14T10:50:14Z</time></trkpt>
 <trkpt lat="52.065225800" lon="9.133443700"><ele>213</ele><time>2013-04-14T10:50:18Z</time></trkpt>
 <trkpt lat="52.065182000" lon="9.133449900"><ele>214</ele><time>2013-04-14T10:50:22Z</time></trkpt>
 <trkpt lat="52.065128300" lon="9.133459500"><ele>214</ele><time>2013-04-14T10:50:26Z</time></trkpt>
 <trkpt lat="52.065076600" lon="9.133479100"><ele>215</ele><time>2013-04-14T10:50:30Z</time></trkpt>
 <trkpt lat="52.065034900" lon="9.133505300"><ele>216</ele><time>2013-04-14T10:50:34Z</time></trkpt>
 <trkpt lat="52.064987800" lon="9.133537400"><ele>216</ele><time>2013-04-14T10:50:38Z</time></trkpt>
 <trkpt lat="52.064947000" lon="9.133589100"><ele>217</ele><time>2013-04-14T10:50:42Z</time></trkpt>
 <trkpt lat="52.064906600" lon="9.133623700"><ele>217</ele><time>2013-04-14T10:50:46Z</time></trkpt>
 <trkpt lat="52.064868700" lon="9.133662400"><ele>218</ele><time>2013-04-14T10:50:50Z</time></trkpt>
 <trkpt lat="52.064842800" lon="9.133717000"><ele>219</ele><time>2013-04-14T10:50:54Z</time></trkpt>
 <trkpt lat="52.064811600" lon="9.133766200"><ele>219</ele><time>2013-04-14T10:50:58Z</time></trkpt>
 <trkpt lat="52.064786200" lon="9.133820800"><ele>220</ele><time>2013-04-14T10:51:02Z</time></trkpt>
 <trkpt lat="52.064770300" lon="9.133869500"><ele>220</ele><time>2013-04-14T10:51:06Z</time></trkpt>
 <trkpt lat="52.064750400" lon="9.133935300"><ele>221</ele><time>2013-04-14T10:51:10Z</time></trkpt>
 <trkpt lat="52.064734500" lon="9.134007000"><ele>222</ele><time>2013-04-14T10:51:14Z</time></trkpt>
 <trkpt lat="52.064721200" lon="9.134066600"><ele>222</ele><time>2013-04-14T10:51:18Z</time></trkpt>
 <trkpt lat="52.064688700" lon="9.134112400"><ele>223</ele><time>2013-04-14T10:51:22Z</time></trkpt>
 <trkpt lat="52.064655800" lon="9.134165300"><ele>223</ele><time>2013-04-14T10:51:26Z</time></trkpt>
 <trkpt lat="52.064620400" lon="9.134216200"><ele>224</ele><time>2013-04-14T10:51:30Z</time></trkpt>
 <trkpt lat="52.064594100" lon="9.134273700"><ele>224</ele><time>2013-04-14T10:51:34Z</time></trkpt>
 <trkpt lat="52.064571600" lon="9.134326600"><ele>225</ele><time>2013-04-14T10:51:38Z</time></trkpt>
 <trkpt lat="52.064531600" lon="9.134369100"><ele>225</ele><time>2013-04-14T10:51:42Z</time></trkpt>
 <trkpt lat="52.064492900" lon="9.134408700"><ele>226</ele><time>2013-04-14T10:51:46Z</time></trkpt>
 <trkpt lat="52.064462400" lon="9.134458700"><ele>226</ele><time>2013-04-14T10:51:50Z</time></trkpt>
 <trkpt lat="52.064433300" lon="9.134512000"><ele>227</ele><time>2013-04-14T10:51:54Z</time></trkpt>
 <trkpt lat="52.064402000" lon="9.134567000"><ele>227</ele><time>2013-04-14T10:51:58Z</time></trkpt>
 <trkpt lat="52.064372800" lon="9.134619500"><ele>228</ele><time>2013-04-14T10:52:02Z</time></trkpt>
 <trkpt lat="52.064343300" lon="9.134669500"><ele>228</ele><time>2013-04-14T10:52:06Z</time></trkpt>
 <trkpt lat="52.064309100" lon="9.134722400"><ele>228</ele><time>2013-04-14T10:52:10Z</time></trkpt>
 <trkpt lat="52.064273300" lon="9.134781200"><ele>229</ele><time>2013-04-14T10:52:14Z</time></trkpt>
 <trkpt lat="52.064244100" lon="9.134842000"><ele>229</ele><time>2013-04-14T10:52:18Z</time></trkpt>
 <trkpt lat="52.064219900" lon="9.134891600"><ele>229</ele><time>2013-04-14T10:52:22Z</time></trkpt>
 <trkpt lat="52.064199500" lon="9.134937900"><ele>230</ele><time>2013-04-14T10:52:26Z</time></trkpt>
 <trkpt lat="52.064173300" lon="9.134986600"><ele>230</ele><time>2013-04-14T10:52:30Z</time></trkpt>
 <trkpt lat="52.064139500" lon="9.135041200"><ele>230</ele><time>2013-04-14T10:52:34Z</time></trkpt>
 <trkpt lat="52.064103200" lon="9.135096200"><ele>231</ele><time>2013-04-14T10:52:38Z</time></trkpt>
 <trkpt lat="52.064075300" lon="9.135151600"><ele>231</ele><time>2013-04-14T10:52:42Z</time></trkpt>
 <trkpt lat="52.064045700" lon="9.135218300"><ele>231</ele><time>2013-04-14T10:52:46Z</time></trkpt>
 <trkpt lat="52.064019900" lon="9.135274100"><ele>232</ele><time>2013-04-14T10:52:50Z</time></trkpt>
 <trkpt lat="52.063985300" lon="9.135327000"><ele>232</ele><time>2013-04-14T10:52:54Z</time></trkpt>
 <trkpt lat="52.063961200" lon="9.135369500"><ele>232</ele><time>2013-04-14T10:52:58Z</time></trkpt>
 <trkpt lat="52.063936200" lon="9.135418700"><ele>232</ele><time>2013-04-14T10:53:02Z</time></trkpt>
 <trkpt lat="52.063906600" lon="9.135467000"><ele>232</ele><time>2013-04-14T10:53:06Z</time></trkpt>
 <trkpt lat="52.063874900" lon="9.135514100"><ele>232</ele><time>2013-04-14T10:53:10Z</time></trkpt>
 <trkpt lat="52.063842400" lon="9.135575700"><ele>232</ele><time>2013-04-14T10:53:14Z</time></trkpt>
 <trkpt lat="52.063806200" lon="9.135639100"><ele>232</ele><time>2013-04-14T10:53:18Z</time></trkpt>
 <trkpt lat="52.063769900" lon="9.135699500"><ele>232</ele><time>2013-04-14T10:53:22Z</time></trkpt>
 <trkpt lat="52.063740800" lon="9.135764100"><ele>232</ele><time>2013-04-14T10:53:26Z</time></trkpt>
 <trkpt lat="52.063705400" lon="9.135821600"><ele>232</ele><time>2013-04-14T10:53:30Z</time></trkpt>
 <trkpt lat="52.063673300" lon="9.135868700"><ele>232</ele><time>2013-04-14T10:53:34Z</time></trkpt>
 <trkpt lat="52.063641200" lon="9.135925300"><ele>232</ele><time>2013-04-14T10:53:38Z</time></trkpt>
 <trkpt lat="52.063607400" lon="9.135974500"><ele>231</ele><time>2013-04-14T10:53:42Z</time></trkpt>
 <trkpt lat="52.063568300" lon="9.136011200"><ele>231</ele><time>2013-04-14T10:53:46Z</time></trkpt>
 <trkpt lat="52.063544500" lon="9.136046200"><ele>231</ele><time>2013-04-14T10:53:50Z</time></trkpt>
 <trkpt lat="52.063512800" lon="9.136094900"><ele>231</ele><time>2013-04-14T10:53:54Z</time></trkpt>
 <trkpt lat="52.063478300" lon="9.136147000"><ele>231</ele><time>2013-04-14T10:53:58Z</time></trkpt>
 <trkpt lat="52.063432400" lon="9.136215800"><ele>230</ele><time>2013-04-14T10:54:02Z</time></trkpt>
 <trkpt lat="52.063390300" lon="9.136267400"><ele>230</ele><time>2013-04-14T10:54:06Z</time></trkpt>
 <trkpt lat="52.063343700" lon="9.136312500"><ele>230</ele><time>2013-04-14T10:54:10Z</time></trkpt>
 <trkpt lat="52.063306200" lon="9.136354500"><ele>230</ele><time>2013-04-14T10:54:14Z</time></trkpt>
 <trkpt lat="52.063277000" lon="9.136395300"><ele>230</ele><time>2013-04-14T10:54:18Z</time></trkpt>
 <trkpt lat="52.063254100" lon="9.136442000"><ele>230</ele><time>2013-04-14T10:54:22Z</time></trkpt>
 <trkpt lat="52.063225400" lon="9.136493700"><ele>230</ele><time>2013-04-14T10:54:26Z</time></trkpt>
 <trkpt lat="52.063185300" lon="9.136529900"><ele>230</ele><time>2013-04-14T10:54:30Z</time></trkpt>
 <trkpt lat="52.063146600" lon="9.136573700"><ele>231</ele><time>2013-04-14T10:54:34Z</time></trkpt>
 <trkpt lat="52.063118300" lon="9.136620300"><ele>231</ele><time>2013-04-14T10:54:38Z</time></trkpt>
 <trkpt lat="52.063086600" lon="9.136662800"><ele>231</ele><time>2013-04-14T10:54:42Z</time></trkpt>
 <trkpt lat="52.063049500" lon="9.136703300"><ele>231</ele><time>2013-04-14T10:54:46Z</time></trkpt>
 <trkpt lat="52.063001600" lon="9.136738700"><ele>232</ele><time>2013-04-14T10:54:50Z</time></trkpt>
 <trkpt lat="52.062969900" lon="9.136784500"><ele>232</ele><time>2013-04-14T10:54:54Z</time></trkpt>
 <trkpt lat="52.062933200" lon="9.136833300"><ele>232</ele><time>2013-04-14T10:54:58Z</time></trkpt>
 <trkpt lat="52.062897000" lon="9.136884500"><ele>233</ele><time>2013-04-14T10:55:02Z</time></trkpt>
 <trkpt lat="52.062851600" lon="9.136929900"><ele>233</ele><time>2013-04-14T10:55:06Z</time></trkpt>
 <trkpt lat="52.062813700" lon="9.136975800"><ele>233</ele><time>2013-04-14T10:55:10Z</time></trkpt>
 <trkpt lat="52.062772800" lon="9.137011200"><ele>234</ele><time>2013-04-14T10:55:14Z</time></trkpt>
 <trkpt lat="52.062733300" lon="9.137049100"><ele>234</ele><time>2013-04-14T10:55:18Z</time></trkpt>
 <trkpt lat="52.062688300" lon="9.137095000"><ele>234</ele><time>2013-04-14T10:55:22Z</time></trkpt>
 <trkpt lat="52.062660400" lon="9.137162800"><ele>235</ele><time>2013-04-14T10:55:26Z</time></trkpt>
 <trkpt lat="52.062632900" lon="9.137223700"><ele>235</ele><time>2013-04-14T10:55:30Z</time></trkpt>
 <trkpt lat="52.062619500" lon="9.137254500"><ele>235</ele><time>2013-04-14T10:55:34Z</time></trkpt>
 <trkpt lat="52.062619500" lon="9.137254500"><ele>236</ele><time>2013-04-14T10:55:38Z</time></trkpt>
 <trkpt lat="52.062619500" lon="9.137254500"><ele>236</ele><time>2013-04-14T10:55:42Z</time></trkpt>
 <trkpt lat="52.062619500" lon="9.137254500"><ele>236</ele><time>2013-04-14T10:55:46Z</time></trkpt>
 <trkpt lat="52.062605300" lon="9.137275400"><ele>236</ele><time>2013-04-14T10:55:50Z</time></trkpt>
 <trkpt lat="52.062600400" lon="9.137284500"><ele>236</ele><time>2013-04-14T10:55:54Z</time></trkpt>
 <trkpt lat="52.062582000" lon="9.137327000"><ele>237</ele><time>2013-04-14T10:55:58Z</time></trkpt>
 <trkpt lat="52.062553200" lon="9.137358300"><ele>237</ele><time>2013-04-14T10:56:02Z</time></trkpt>
 <trkpt lat="52.062513300" lon="9.137393300"><ele>237</ele><time>2013-04-14T10:56:06Z</time></trkpt>
 <trkpt lat="52.062483200" lon="9.137438300"><ele>237</ele><time>2013-04-14T10:56:10Z</time></trkpt>
 <trkpt lat="52.062450300" lon="9.137484900"><ele>237</ele><time>2013-04-14T10:56:14Z</time></trkpt>
 <trkpt lat="52.062417400" lon="9.137539500"><ele>237</ele><time>2013-04-14T10:56:18Z</time></trkpt>
 <trkpt lat="52.062387800" lon="9.137591600"><ele>237</ele><time>2013-04-14T10:56:22Z</time></trkpt>
 <trkpt lat="52.062365800" lon="9.137647400"><ele>237</ele><time>2013-04-14T10:56:26Z</time></trkpt>
 <trkpt lat="52.062336200" lon="9.137697400"><ele>237</ele><time>2013-04-14T10:56:30Z</time></trkpt>
 <trkpt lat="52.062302400" lon="9.137746200"><ele>237</ele><time>2013-04-14T10:56:34Z</time></trkpt>
 <trkpt lat="52.062266600" lon="9.137787800"><ele>238</ele><time>2013-04-14T10:56:38Z</time></trkpt>
 <trkpt lat="52.062242400" lon="9.137830300"><ele>238</ele><time>2013-04-14T10:56:42Z</time></trkpt>
 <trkpt lat="52.062215400" lon="9.137886200"><ele>238</ele><time>2013-04-14T10:56:46Z</time></trkpt>
 <trkpt lat="52.062189500" lon="9.137939900"><ele>238</ele><time>2013-04-14T10:56:50Z</time></trkpt>
 <trkpt lat="52.062159900" lon="9.137991200"><ele>238</ele><time>2013-04-14T10:56:54Z</time></trkpt>
 <trkpt lat="52.062139900" lon="9.138048300"><ele>238</ele><time>2013-04-14T10:56:58Z</time></trkpt>
 <trkpt lat="52.062113300" lon="9.138100300"><ele>238</ele><time>2013-04-14T10:57:02Z</time></trkpt>
 <trkpt lat="52.062077400" lon="9.138149900"><ele>238</ele><time>2013-04-14T10:57:06Z</time></trkpt>
 <trkpt lat="52.062053300" lon="9.138193700"><ele>238</ele><time>2013-04-14T10:57:10Z</time></trkpt>
 <trkpt lat="52.062029100" lon="9.138244500"><ele>238</ele><time>2013-04-14T10:57:14Z</time></trkpt>
 <trkpt lat="52.061992800" lon="9.138301600"><ele>239</ele><time>2013-04-14T10:57:18Z</time></trkpt>
 <trkpt lat="52.061956600" lon="9.138353700"><ele>239</ele><time>2013-04-14T10:57:22Z</time></trkpt>
 <trkpt lat="52.061928700" lon="9.138394100"><ele>239</ele><time>2013-04-14T10:57:26Z</time></trkpt>
 <trkpt lat="52.061897800" lon="9.138442400"><ele>239</ele><time>2013-04-14T10:57:30Z</time></trkpt>
 <trkpt lat="52.061866200" lon="9.138491200"><ele>239</ele><time>2013-04-14T10:57:34Z</time></trkpt>
 <trkpt lat="52.061841600" lon="9.138558700"><ele>239</ele><time>2013-04-14T10:57:38Z</time></trkpt>
 <trkpt lat="52.061812400" lon="9.138609100"><ele>240</ele><time>2013-04-14T10:57:42Z</time></trkpt>
 <trkpt lat="52.061778300" lon="9.138647000"><ele>240</ele><time>2013-04-14T10:57:46Z</time></trkpt>
 <trkpt lat="52.061747800" lon="9.138706600"><ele>240</ele><time>2013-04-14T10:57:50Z</time></trkpt>
 <trkpt lat="52.061717900" lon="9.138769900"><ele>240</ele><time>2013-04-14T10:57:54Z</time></trkpt>
 <trkpt lat="52.061691600" lon="9.138817900"><ele>240</ele><time>2013-04-14T10:57:58Z</time></trkpt>
 <trkpt lat="52.061653700" lon="9.138865300"><ele>240</ele><time>2013-04-14T10:58:02Z</time></trkpt>
 <trkpt lat="52.061622000" lon="9.138909100"><ele>240</ele><time>2013-04-14T10:58:06Z</time></trkpt>
 <trkpt lat="52.061595800" lon="9.138954500"><ele>240</ele><time>2013-04-14T10:58:10Z</time></trkpt>
 <trkpt lat="52.061580000" lon="9.139021600"><ele>240</ele><time>2013-04-14T10:58:14Z</time></trkpt>
 <trkpt lat="52.061565800" lon="9.139072400"><ele>241</ele><time>2013-04-14T10:58:18Z</time></trkpt>
 <trkpt lat="52.061541600" lon="9.139112400"><ele>241</ele><time>2013-04-14T10:58:22Z</time></trkpt>
 <trkpt lat="52.061517400" lon="9.139161600"><ele>241</ele><time>2013-04-14T10:58:26Z</time></trkpt>
 <trkpt lat="52.061489100" lon="9.139219100"><ele>241</ele><time>2013-04-14T10:58:30Z</time></trkpt>
 <trkpt lat="52.061464100" lon="9.139267400"><ele>241</ele><time>2013-04-14T10:58:34Z</time></trkpt>
 <trkpt lat="52.061433700" lon="9.139307000"><ele>241</ele><time>2013-04-14T10:58:38Z</time></trkpt>
 <trkpt lat="52.061402400" lon="9.139354900"><ele>241</ele><time>2013-04-14T10:58:42Z</time></trkpt>
 <trkpt lat="52.061366600" lon="9.139402000"><ele>242</ele><time>2013-04-14T10:58:46Z</time></trkpt>
 <trkpt lat="52.061333700" lon="9.139433300"><ele>242</ele><time>2013-04-14T10:58:50Z</time></trkpt>
 <trkpt lat="52.061321600" lon="9.139439500"><ele>242</ele><time>2013-04-14T10:58:54Z</time></trkpt>
 <trkpt lat="52.061302800" lon="9.139470800"><ele>242</ele><time>2013-04-14T10:58:58Z</time></trkpt>
 <trkpt lat="52.061271600" lon="9.139524500"><ele>242</ele><time>2013-04-14T10:59:02Z</time></trkpt>
 <trkpt lat="52.061242900" lon="9.139574100"><ele>243</ele><time>2013-04-14T10:59:06Z</time></trkpt>
 <trkpt lat="52.061217800" lon="9.139628300"><ele>243</ele><time>2013-04-14T10:59:10Z</time></trkpt>
 <trkpt lat="52.061188300" lon="9.139680400"><ele>243</ele><time>2013-04-14T10:59:14Z</time></trkpt>
 <trkpt lat="52.061168300" lon="9.139757000"><ele>243</ele><time>2013-04-14T10:59:18Z</time></trkpt>
 <trkpt lat="52.061132800" lon="9.139809100"><ele>244</ele><time>2013-04-14T10:59:22Z</time></trkpt>
 <trkpt lat="52.061104500" lon="9.139847400"><ele>244</ele><time>2013-04-14T10:59:26Z</time></trkpt>
 <trkpt lat="52.061073700" lon="9.139899500"><ele>244</ele><time>2013-04-14T10:59:30Z</time></trkpt>
 <trkpt lat="52.061054900" lon="9.139963300"><ele>244</ele><time>2013-04-14T10:59:34Z</time></trkpt>
 <trkpt lat="52.061022800" lon="9.140032000"><ele>245</ele><time>2013-04-14T10:59:38Z</time></trkpt>
 <trkpt lat="52.060986200" lon="9.140093700"><ele>245</ele><time>2013-04-14T10:59:42Z</time></trkpt>
 <trkpt lat="52.060957000" lon="9.140147800"><ele>245</ele><time>2013-04-14T10:59:46Z</time></trkpt>
 <trkpt lat="52.060929100" lon="9.140204500"><ele>246</ele><time>2013-04-14T10:59:50Z</time></trkpt>
 <trkpt lat="52.060904500" lon="9.140238700"><ele>246</ele><time>2013-04-14T10:59:54Z</time></trkpt>
 <trkpt lat="52.060880800" lon="9.140290800"><ele>247</ele><time>2013-04-14T10:59:58Z</time></trkpt>
 <trkpt lat="52.060846200" lon="9.140337400"><ele>247</ele><time>2013-04-14T11:00:02Z</time></trkpt>
 <trkpt lat="52.060814100" lon="9.140372000"><ele>248</ele><time>2013-04-14T11:00:06Z</time></trkpt>
 <trkpt lat="52.060784500" lon="9.140414100"><ele>248</ele><time>2013-04-14T11:00:10Z</time></trkpt>
 <trkpt lat="52.060758700" lon="9.140464100"><ele>249</ele><time>2013-04-14T11:00:14Z</time></trkpt>
 <trkpt lat="52.060732400" lon="9.140521600"><ele>249</ele><time>2013-04-14T11:00:18Z</time></trkpt>
 <trkpt lat="52.060692800" lon="9.140576200"><ele>250</ele><time>2013-04-14T11:00:22Z</time></trkpt>
 <trkpt lat="52.060663300" lon="9.140642000"><ele>250</ele><time>2013-04-14T11:00:26Z</time></trkpt>
 <trkpt lat="52.060637000" lon="9.140706200"><ele>251</ele><time>2013-04-14T11:00:30Z</time></trkpt>
 <trkpt lat="52.060602800" lon="9.140759900"><ele>252</ele><time>2013-04-14T11:00:34Z</time></trkpt>
 <trkpt lat="52.060582000" lon="9.140807900"><ele>252</ele><time>2013-04-14T11:00:38Z</time></trkpt>
 <trkpt lat="52.060558300" lon="9.140832800"><ele>253</ele><time>2013-04-14T11:00:42Z</time></trkpt>
 <trkpt lat="52.060527000" lon="9.140876200"><ele>254</ele><time>2013-04-14T11:00:46Z</time></trkpt>
 <trkpt lat="52.060497400" lon="9.140932900"><ele>254</ele><time>2013-04-14T11:00:50Z</time></trkpt>
 <trkpt lat="52.060457000" lon="9.140982400"><ele>255</ele><time>2013-04-14T11:00:54Z</time></trkpt>
 <trkpt lat="52.060419100" lon="9.141012400"><ele>256</ele><time>2013-04-14T11:00:58Z</time></trkpt>
 <trkpt lat="52.060380300" lon="9.141037800"><ele>256</ele><time>2013-04-14T11:01:02Z</time></trkpt>
 <trkpt lat="52.060343300" lon="9.141056600"><ele>257</ele><time>2013-04-14T11:01:06Z</time></trkpt>
 <trkpt lat="52.060307000" lon="9.141081600"><ele>258</ele><time>2013-04-14T11:01:10Z</time></trkpt>
 <trkpt lat="52.060270400" lon="9.141093700"><ele>258</ele><time>2013-04-14T11:01:14Z</time></trkpt>
 <trkpt lat="52.060236200" lon="9.141107900"><ele>259</ele><time>2013-04-14T11:01:18Z</time></trkpt>
 <trkpt lat="52.060179900" lon="9.141106600"><ele>260</ele><time>2013-04-14T11:01:22Z</time></trkpt>
 <trkpt lat="52.060140300" lon="9.141115300"><ele>260</ele><time>2013-04-14T11:01:26Z</time></trkpt>
 <trkpt lat="52.060102800" lon="9.141133300"><ele>261</ele><time>2013-04-14T11:01:30Z</time></trkpt>
 <trkpt lat="52.060068700" lon="9.141143300"><ele>261</ele><time>2013-04-14T11:01:34Z</time></trkpt>
 <trkpt lat="52.060028700" lon="9.141142000"><ele>262</ele><time>2013-04-14T11:01:38Z</time></trkpt>
 <trkpt lat="52.059987400" lon="9.141144500"><ele>263</ele><time>2013-04-14T11:01:42Z</time></trkpt>
 <trkpt lat="52.059940800" lon="9.141174100"><ele>263</ele><time>2013-04-14T11:01:46Z</time></trkpt>
 <trkpt lat="52.059896600" lon="9.141180300"><ele>264</ele><time>2013-04-14T11:01:50Z</time></trkpt>
 <trkpt lat="52.059861200" lon="9.141172000"><ele>265</ele><time>2013-04-14T11:01:54Z</time></trkpt>
 <trkpt lat="52.059821600" lon="9.141174500"><ele>265</ele><time>2013-04-14T11:01:58Z</time></trkpt>
 <trkpt lat="52.059778200" lon="9.141185400"><ele>266</ele><time>2013-04-14T11:02:02Z</time></trkpt>
 <trkpt lat="52.059731600" lon="9.141218700"><ele>266</ele><time>2013-04-14T11:02:06Z</time></trkpt>
 <trkpt lat="52.059682000" lon="9.141253700"><ele>267</ele><time>2013-04-14T11:02:10Z</time></trkpt>
 <trkpt lat="52.059635300" lon="9.141289100"><ele>267</ele><time>2013-04-14T11:02:14Z</time></trkpt>
 <trkpt lat="52.059590000" lon="9.141322000"><ele>268</ele><time>2013-04-14T11:02:18Z</time></trkpt>
 <trkpt lat="52.059541200" lon="9.141359100"><ele>268</ele><time>2013-04-14T11:02:22Z</time></trkpt>
 <trkpt lat="52.059495400" lon="9.141392400"><ele>268</ele><time>2013-04-14T11:02:26Z</time></trkpt>
 <trkpt lat="52.059447000" lon="9.141419900"><ele>269</ele><time>2013-04-14T11:02:30Z</time></trkpt>
 <trkpt lat="52.059400800" lon="9.141442400"><ele>269</ele><time>2013-04-14T11:02:34Z</time></trkpt>
 <trkpt lat="52.059352800" lon="9.141472900"><ele>269</ele><time>2013-04-14T11:02:38Z</time></trkpt>
 <trkpt lat="52.059310300" lon="9.141506200"><ele>270</ele><time>2013-04-14T11:02:42Z</time></trkpt>
 <trkpt lat="52.059265800" lon="9.141536200"><ele>270</ele><time>2013-04-14T11:02:46Z</time></trkpt>
 <trkpt lat="52.059224500" lon="9.141562000"><ele>270</ele><time>2013-04-14T11:02:50Z</time></trkpt>
 <trkpt lat="52.059183700" lon="9.141590800"><ele>271</ele><time>2013-04-14T11:02:54Z</time></trkpt>
 <trkpt lat="52.059144100" lon="9.141622000"><ele>271</ele><time>2013-04-14T11:02:58Z</time></trkpt>
 <trkpt lat="52.059095800" lon="9.141655700"><ele>271</ele><time>2013-04-14T11:03:02Z</time></trkpt>
 <trkpt lat="52.059044500" lon="9.141682000"><ele>272</ele><time>2013-04-14T11:03:06Z</time></trkpt>
 <trkpt lat="52.058998700" lon="9.141715800"><ele>272</ele><time>2013-04-14T11:03:10Z</time></trkpt>
 <trkpt lat="52.058957400" lon="9.141746200"><ele>272</ele><time>2013-04-14T11:03:14Z</time></trkpt>
 <trkpt lat="52.058911600" lon="9.141775800"><ele>273</ele><time>2013-04-14T11:03:18Z</time></trkpt>
 <trkpt lat="52.058871200" lon="9.141806600"><ele>273</ele><time>2013-04-14T11:03:22Z</time></trkpt>
 <trkpt lat="52.058835800" lon="9.141836600"><ele>273</ele><time>2013-04-14T11:03:26Z</time></trkpt>
 <trkpt lat="52.058806600" lon="9.141872000"><ele>273</ele><time>2013-04-14T11:03:30Z</time></trkpt>
 <trkpt lat="52.058772800" lon="9.141902000"><ele>274</ele><time>2013-04-14T11:03:34Z</time></trkpt>
 <trkpt lat="52.058728300" lon="9.141929100"><ele>274</ele><time>2013-04-14T11:03:38Z</time></trkpt>
 <trkpt lat="52.058695000" lon="9.141959900"><ele>274</ele><time>2013-04-14T11:03:42Z</time></trkpt>
 <trkpt lat="52.058656600" lon="9.141982000"><ele>274</ele><time>2013-04-14T11:03:46Z</time></trkpt>
 <trkpt lat="52.058615400" lon="9.142005300"><ele>275</ele><time>2013-04-14T11:03:50Z</time></trkpt>
 <trkpt lat="52.058582900" lon="9.142027800"><ele>275</ele><time>2013-04-14T11:03:54Z</time></trkpt>
 <trkpt lat="52.058550800" lon="9.142057800"><ele>275</ele><time>2013-04-14T11:03:58Z</time></trkpt>
 <trkpt lat="52.058515300" lon="9.142082000"><ele>275</ele><time>2013-04-14T11:04:02Z</time></trkpt>
 <trkpt lat="52.058494500" lon="9.142094100"><ele>275</ele><time>2013-04-14T11:04:06Z</time></trkpt>
 <trkpt lat="52.058489100" lon="9.142094100"><ele>276</ele><time>2013-04-14T11:04:10Z</time></trkpt>
 <trkpt lat="52.058486200" lon="9.142084500"><ele>276</ele><time>2013-04-14T11:04:14Z</time></trkpt>
 <trkpt lat="52.058481600" lon="9.142090800"><ele>276</ele><time>2013-04-14T11:04:18Z</time></trkpt>
 <trkpt lat="52.058458200" lon="9.142111200"><ele>276</ele><time>2013-04-14T11:04:22Z</time></trkpt>
 <trkpt lat="52.058423700" lon="9.142140300"><ele>276</ele><time>2013-04-14T11:04:26Z</time></trkpt>
 <trkpt lat="52.058391600" lon="9.142161600"><ele>276</ele><time>2013-04-14T11:04:30Z</time></trkpt>
 <trkpt lat="52.058349900" lon="9.142179900"><ele>277</ele><time>2013-04-14T11:04:34Z</time></trkpt>
 <trkpt lat="52.058292800" lon="9.142197800"><ele>277</ele><time>2013-04-14T11:04:38Z</time></trkpt>
 <trkpt lat="52.058251600" lon="9.142215800"><ele>277</ele><time>2013-04-14T11:04:42Z</time></trkpt>
 <trkpt lat="52.058221600" lon="9.142219100"><ele>277</ele><time>2013-04-14T11:04:46Z</time></trkpt>
 <trkpt lat="52.058189100" lon="9.142217000"><ele>278</ele><time>2013-04-14T11:04:50Z</time></trkpt>
 <trkpt lat="52.058157000" lon="9.142216600"><ele>278</ele><time>2013-04-14T11:04:54Z</time></trkpt>
 <trkpt lat="52.058127800" lon="9.142212000"><ele>278</ele><time>2013-04-14T11:04:58Z</time></trkpt>
 <trkpt lat="52.058112800" lon="9.142207400"><ele>279</ele><time>2013-04-14T11:05:02Z</time></trkpt>
 <trkpt lat="52.058085800" lon="9.142192000"><ele>279</ele><time>2013-04-14T11:05:06Z</time></trkpt>
 <trkpt lat="52.058046600" lon="9.142176200"><ele>280</ele><time>2013-04-14T11:05:10Z</time></trkpt>
 <trkpt lat="52.058003300" lon="9.142162800"><ele>280</ele><time>2013-04-14T11:05:14Z</time></trkpt>
 <trkpt lat="52.057957000" lon="9.142172000"><ele>280</ele><time>2013-04-14T11:05:18Z</time></trkpt>
 <trkpt lat="52.057911200" lon="9.142172400"><ele>281</ele><time>2013-04-14T11:05:22Z</time></trkpt>
 <trkpt lat="52.057864100" lon="9.142157400"><ele>281</ele><time>2013-04-14T11:05:26Z</time></trkpt>
 <trkpt lat="52.057820300" lon="9.142140300"><ele>282</ele><time>2013-04-14T11:05:30Z</time></trkpt>
 <trkpt lat="52.057778700" lon="9.142128700"><ele>282</ele><time>2013-04-14T11:05:34Z</time></trkpt>
 <trkpt lat="52.057743700" lon="9.142114500"><ele>283</ele><time>2013-04-14T11:05:38Z</time></trkpt>
 <trkpt lat="52.057740000" lon="9.142095700"><ele>283</ele><time>2013-04-14T11:05:42Z</time></trkpt>
 <trkpt lat="52.057739500" lon="9.142083700"><ele>283</ele><time>2013-04-14T11:05:46Z</time></trkpt>
 <trkpt lat="52.057728700" lon="9.142074100"><ele>284</ele><time>2013-04-14T11:05:50Z</time></trkpt>
 <trkpt lat="52.057722400" lon="9.142073300"><ele>284</ele><time>2013-04-14T11:05:54Z</time></trkpt>
 <trkpt lat="52.057720800" lon="9.142062000"><ele>284</ele><time>2013-04-14T11:05:58Z</time></trkpt>
 <trkpt lat="52.057720800" lon="9.142062000"><ele>285</ele><time>2013-04-14T11:06:02Z</time></trkpt>
 <trkpt lat="52.057689900" lon="9.142056600"><ele>285</ele><time>2013-04-14T11:06:06Z</time></trkpt>
 <trkpt lat="52.057655800" lon="9.142050700"><ele>285</ele><time>2013-04-14T11:06:10Z</time></trkpt>
 <trkpt lat="52.057620300" lon="9.142051600"><ele>285</ele><time>2013-04-14T11:06:14Z</time></trkpt>
 <trkpt lat="52.057584100" lon="9.142043700"><ele>286</ele><time>2013-04-14T11:06:18Z</time></trkpt>
 <trkpt lat="52.057526200" lon="9.142009500"><ele>286</ele><time>2013-04-14T11:06:22Z</time></trkpt>
 <trkpt lat="52.057487400" lon="9.141986600"><ele>286</ele><time>2013-04-14T11:06:26Z</time></trkpt>
 <trkpt lat="52.057451200" lon="9.141987400"><ele>286</ele><time>2013-04-14T11:06:30Z</time></trkpt>
 <trkpt lat="52.057421200" lon="9.141975300"><ele>287</ele><time>2013-04-14T11:06:34Z</time></trkpt>
 <trkpt lat="52.057398700" lon="9.141954500"><ele>287</ele><time>2013-04-14T11:06:38Z</time></trkpt>
 <trkpt lat="52.057368300" lon="9.141940800"><ele>287</ele><time>2013-04-14T11:06:42Z</time></trkpt>
 <trkpt lat="52.057343300" lon="9.141932900"><ele>287</ele><time>2013-04-14T11:06:46Z</time></trkpt>
 <trkpt lat="52.057310400" lon="9.141922800"><ele>288</ele><time>2013-04-14T11:06:50Z</time></trkpt>
 <trkpt lat="52.057268700" lon="9.141897400"><ele>288</ele><time>2013-04-14T11:06:54Z</time></trkpt>
 <trkpt lat="52.057227800" lon="9.141875800"><ele>288</ele><time>2013-04-14T11:06:58Z</time></trkpt>
 <trkpt lat="52.057191600" lon="9.141860300"><ele>289</ele><time>2013-04-14T11:07:02Z</time></trkpt>
 <trkpt lat="52.057155400" lon="9.141847500"><ele>289</ele><time>2013-04-14T11:07:06Z</time></trkpt>
 <trkpt lat="52.057140800" lon="9.141837400"><ele>289</ele><time>2013-04-14T11:07:10Z</time></trkpt>
 <trkpt lat="52.057106600" lon="9.141823300"><ele>290</ele><time>2013-04-14T11:07:14Z</time></trkpt>
 <trkpt lat="52.057065800" lon="9.141812000"><ele>290</ele><time>2013-04-14T11:07:18Z</time></trkpt>
 <trkpt lat="52.057020300" lon="9.141801200"><ele>290</ele><time>2013-04-14T11:07:22Z</time></trkpt>
 <trkpt lat="52.056977400" lon="9.141794900"><ele>291</ele><time>2013-04-14T11:07:26Z</time></trkpt>
 <trkpt lat="52.056934900" lon="9.141783300"><ele>291</ele><time>2013-04-14T11:07:30Z</time></trkpt>
 <trkpt lat="52.056921200" lon="9.141791600"><ele>291</ele><time>2013-04-14T11:07:34Z</time></trkpt>
 <trkpt lat="52.056917000" lon="9.141814500"><ele>291</ele><time>2013-04-14T11:07:38Z</time></trkpt>
 <trkpt lat="52.056894900" lon="9.141814500"><ele>292</ele><time>2013-04-14T11:07:42Z</time></trkpt>
 <trkpt lat="52.056868300" lon="9.141815800"><ele>292</ele><time>2013-04-14T11:07:46Z</time></trkpt>
 <trkpt lat="52.056830800" lon="9.141808200"><ele>292</ele><time>2013-04-14T11:07:50Z</time></trkpt>
 <trkpt lat="52.056812900" lon="9.141809100"><ele>293</ele><time>2013-04-14T11:07:54Z</time></trkpt>
 <trkpt lat="52.056780300" lon="9.141810800"><ele>293</ele><time>2013-04-14T11:07:58Z</time></trkpt>
 <trkpt lat="52.056748700" lon="9.141806200"><ele>294</ele><time>2013-04-14T11:08:02Z</time></trkpt>
 <trkpt lat="52.056712400" lon="9.141828700"><ele>294</ele><time>2013-04-14T11:08:06Z</time></trkpt>
 <trkpt lat="52.056682400" lon="9.141844900"><ele>295</ele><time>2013-04-14T11:08:10Z</time></trkpt>
 <trkpt lat="52.056646200" lon="9.141861200"><ele>295</ele><time>2013-04-14T11:08:14Z</time></trkpt>
 <trkpt lat="52.056600800" lon="9.141874900"><ele>296</ele><time>2013-04-14T11:08:18Z</time></trkpt>
 <trkpt lat="52.056565400" lon="9.141895800"><ele>297</ele><time>2013-04-14T11:08:22Z</time></trkpt>
 <trkpt lat="52.056535800" lon="9.141912400"><ele>297</ele><time>2013-04-14T11:08:26Z</time></trkpt>
 <trkpt lat="52.056501600" lon="9.141939500"><ele>298</ele><time>2013-04-14T11:08:30Z</time></trkpt>
 <trkpt lat="52.056462800" lon="9.141969500"><ele>299</ele><time>2013-04-14T11:08:34Z</time></trkpt>
 <trkpt lat="52.056421600" lon="9.141973700"><ele>300</ele><time>2013-04-14T11:08:38Z</time></trkpt>
 <trkpt lat="52.056407400" lon="9.141968700"><ele>300</ele><time>2013-04-14T11:08:42Z</time></trkpt>
 <trkpt lat="52.056401200" lon="9.141967400"><ele>301</ele><time>2013-04-14T11:08:46Z</time></trkpt>
 <trkpt lat="52.056404100" lon="9.141959900"><ele>302</ele><time>2013-04-14T11:08:50Z</time></trkpt>
 <trkpt lat="52.056398300" lon="9.141958300"><ele>303</ele><time>2013-04-14T11:08:54Z</time></trkpt>
 <trkpt lat="52.056351200" lon="9.141974100"><ele>303</ele><time>2013-04-14T11:08:58Z</time></trkpt>
 <trkpt lat="52.056304900" lon="9.142002400"><ele>304</ele><time>2013-04-14T11:09:02Z</time></trkpt>
 <trkpt lat="52.056271600" lon="9.142027400"><ele>305</ele><time>2013-04-14T11:09:06Z</time></trkpt>
 <trkpt lat="52.056240800" lon="9.142057800"><ele>306</ele><time>2013-04-14T11:09:10Z</time></trkpt>
 <trkpt lat="52.056204500" lon="9.142085300"><ele>306</ele><time>2013-04-14T11:09:14Z</time></trkpt>
 <trkpt lat="52.056167900" lon="9.142106600"><ele>307</ele><time>2013-04-14T11:09:18Z</time></trkpt>
 <trkpt lat="52.056127400" lon="9.142126600"><ele>308</ele><time>2013-04-14T11:09:22Z</time></trkpt>
 <trkpt lat="52.056090800" lon="9.142147000"><ele>309</ele><time>2013-04-14T11:09:26Z</time></trkpt>
 <trkpt lat="52.056044100" lon="9.142170300"><ele>309</ele><time>2013-04-14T11:09:30Z</time></trkpt>
 <trkpt lat="52.056005300" lon="9.142200400"><ele>310</ele><time>2013-04-14T11:09:34Z</time></trkpt>
 <trkpt lat="52.055964900" lon="9.142220300"><ele>311</ele><time>2013-04-14T11:09:38Z</time></trkpt>
 <trkpt lat="52.055956600" lon="9.142217800"><ele>311</ele><time>2013-04-14T11:09:42Z</time></trkpt>
 <trkpt lat="52.055956600" lon="9.142217800"><ele>312</ele><time>2013-04-14T11:09:46Z</time></trkpt>
 <trkpt lat="52.055921200" lon="9.142232400"><ele>313</ele><time>2013-04-14T11:09:50Z</time></trkpt>
 <trkpt lat="52.055882800" lon="9.142255700"><ele>314</ele><time>2013-04-14T11:09:54Z</time></trkpt>
 <trkpt lat="52.055854100" lon="9.142285800"><ele>314</ele><time>2013-04-14T11:09:58Z</time></trkpt>
 <trkpt lat="52.055830800" lon="9.142316600"><ele>315</ele><time>2013-04-14T11:10:02Z</time></trkpt>
 <trkpt lat="52.055805400" lon="9.142335800"><ele>316</ele><time>2013-04-14T11:10:06Z</time></trkpt>
 <trkpt lat="52.055793700" lon="9.142341600"><ele>316</ele><time>2013-04-14T11:10:10Z</time></trkpt>
 <trkpt lat="52.055761200" lon="9.142359900"><ele>317</ele><time>2013-04-14T11:10:14Z</time></trkpt>
 <trkpt lat="52.055707800" lon="9.142385300"><ele>318</ele><time>2013-04-14T11:10:18Z</time></trkpt>
 <trkpt lat="52.055662400" lon="9.142409900"><ele>318</ele><time>2013-04-14T11:10:22Z</time></trkpt>
 <trkpt lat="52.055622400" lon="9.142432400"><ele>319</ele><time>2013-04-14T11:10:26Z</time></trkpt>
 <trkpt lat="52.055584900" lon="9.142449100"><ele>320</ele><time>2013-04-14T11:10:30Z</time></trkpt>
 <trkpt lat="52.055532000" lon="9.142471200"><ele>320</ele><time>2013-04-14T11:10:34Z</time></trkpt>
 <trkpt lat="52.055486200" lon="9.142502900"><ele>321</ele><time>2013-04-14T11:10:38Z</time></trkpt>
 <trkpt lat="52.055433300" lon="9.142527800"><ele>322</ele><time>2013-04-14T11:10:42Z</time></trkpt>
 <trkpt lat="52.055384900" lon="9.142558700"><ele>323</ele><time>2013-04-14T11:10:46Z</time></trkpt>
 <trkpt lat="52.055338700" lon="9.142579100"><ele>324</ele><time>2013-04-14T11:10:50Z</time></trkpt>
 <trkpt lat="52.055293300" lon="9.142600700"><ele>325</ele><time>2013-04-14T11:10:54Z</time></trkpt>
 <trkpt lat="52.055252900" lon="9.142627900"><ele>325</ele><time>2013-04-14T11:10:58Z</time></trkpt>
 <trkpt lat="52.055209100" lon="9.142646600"><ele>326</ele><time>2013-04-14T11:11:02Z</time></trkpt>
 <trkpt lat="52.055161200" lon="9.142668300"><ele>327</ele><time>2013-04-14T11:11:06Z</time></trkpt>
 <trkpt lat="52.055118300" lon="9.142699500"><ele>328</ele><time>2013-04-14T11:11:10Z</time></trkpt>
 <trkpt lat="52.055074100" lon="9.142725700"><ele>329</ele><time>2013-04-14T11:11:14Z</time></trkpt>
 <trkpt lat="52.055022400" lon="9.142757800"><ele>330</ele><time>2013-04-14T11:11:18Z</time></trkpt>
 <trkpt lat="52.054983300" lon="9.142776200"><ele>330</ele><time>2013-04-14T11:11:22Z</time></trkpt>
 <trkpt lat="52.054949500" lon="9.142783700"><ele>331</ele><time>2013-04-14T11:11:26Z</time></trkpt>
 <trkpt lat="52.054922000" lon="9.142812400"><ele>332</ele><time>2013-04-14T11:11:30Z</time></trkpt>
 <trkpt lat="52.054910300" lon="9.142819500"><ele>333</ele><time>2013-04-14T11:11:34Z</time></trkpt>
 <trkpt lat="52.054886200" lon="9.142845400"><ele>334</ele><time>2013-04-14T11:11:38Z</time></trkpt>
 <trkpt lat="52.054844100" lon="9.142876200"><ele>334</ele><time>2013-04-14T11:11:42Z</time></trkpt>
 <trkpt lat="52.054786200" lon="9.142912000"><ele>335</ele><time>2013-04-14T11:11:46Z</time></trkpt>
 <trkpt lat="52.054727400" lon="9.142943700"><ele>336</ele><time>2013-04-14T11:11:50Z</time></trkpt>
 <trkpt lat="52.054683300" lon="9.142963700"><ele>336</ele><time>2013-04-14T11:11:54Z</time></trkpt>
 <trkpt lat="52.054639900" lon="9.142990300"><ele>337</ele><time>2013-04-14T11:11:58Z</time></trkpt>
 <trkpt lat="52.054617400" lon="9.143006200"><ele>337</ele><time>2013-04-14T11:12:02Z</time></trkpt>
 <trkpt lat="52.054605700" lon="9.143009500"><ele>337</ele><time>2013-04-14T11:12:06Z</time></trkpt>
 <trkpt lat="52.054605400" lon="9.143018700"><ele>338</ele><time>2013-04-14T11:12:10Z</time></trkpt>
 <trkpt lat="52.054582000" lon="9.143046600"><ele>338</ele><time>2013-04-14T11:12:14Z</time></trkpt>
 <trkpt lat="52.054577400" lon="9.143052800"><ele>338</ele><time>2013-04-14T11:12:18Z</time></trkpt>
 <trkpt lat="52.054577400" lon="9.143052800"><ele>339</ele><time>2013-04-14T11:12:22Z</time></trkpt>
 <trkpt lat="52.054582900" lon="9.143056600"><ele>339</ele><time>2013-04-14T11:12:26Z</time></trkpt>
 <trkpt lat="52.054582900" lon="9.143056600"><ele>339</ele><time>2013-04-14T11:12:30Z</time></trkpt>
 <trkpt lat="52.054588300" lon="9.143059900"><ele>339</ele><time>2013-04-14T11:12:34Z</time></trkpt>
 <trkpt lat="52.054588300" lon="9.143059900"><ele>340</ele><time>2013-04-14T11:12:38Z</time></trkpt>
 <trkpt lat="52.054563300" lon="9.143050800"><ele>340</ele><time>2013-04-14T11:12:42Z</time></trkpt>
 <trkpt lat="52.054556600" lon="9.143052400"><ele>340</ele><time>2013-04-14T11:12:46Z</time></trkpt>
 <trkpt lat="52.054513300" lon="9.143079100"><ele>340</ele><time>2013-04-14T11:12:50Z</time></trkpt>
 <trkpt lat="52.054468300" lon="9.143104900"><ele>340</ele><time>2013-04-14T11:12:54Z</time></trkpt>
 <trkpt lat="52.054430800" lon="9.143139500"><ele>340</ele><time>2013-04-14T11:12:58Z</time></trkpt>
 <trkpt lat="52.054390300" lon="9.143170300"><ele>341</ele><time>2013-04-14T11:13:02Z</time></trkpt>
 <trkpt lat="52.054351200" lon="9.143197000"><ele>341</ele><time>2013-04-14T11:13:06Z</time></trkpt>
 <trkpt lat="52.054314100" lon="9.143242000"><ele>341</ele><time>2013-04-14T11:13:10Z</time></trkpt>
 <trkpt lat="52.054275400" lon="9.143284100"><ele>342</ele><time>2013-04-14T11:13:14Z</time></trkpt>
 <trkpt lat="52.054247900" lon="9.143313700"><ele>342</ele><time>2013-04-14T11:13:18Z</time></trkpt>
 <trkpt lat="52.054204100" lon="9.143357400"><ele>342</ele><time>2013-04-14T11:13:22Z</time></trkpt>
 <trkpt lat="52.054162400" lon="9.143413700"><ele>343</ele><time>2013-04-14T11:13:26Z</time></trkpt>
 <trkpt lat="52.054115800" lon="9.143473700"><ele>343</ele><time>2013-04-14T11:13:30Z</time></trkpt>
 <trkpt lat="52.054069900" lon="9.143511200"><ele>344</ele><time>2013-04-14T11:13:34Z</time></trkpt>
 <trkpt lat="52.054027800" lon="9.143544900"><ele>344</ele><time>2013-04-14T11:13:38Z</time></trkpt>
 <trkpt lat="52.053962000" lon="9.143590300"><ele>344</ele><time>2013-04-14T11:13:42Z</time></trkpt>
 <trkpt lat="52.053904500" lon="9.143631600"><ele>345</ele><time>2013-04-14T11:13:46Z</time></trkpt>
 <trkpt lat="52.053853300" lon="9.143684500"><ele>345</ele><time>2013-04-14T11:13:50Z</time></trkpt>
 <trkpt lat="52.053815800" lon="9.143737900"><ele>345</ele><time>2013-04-14T11:13:54Z</time></trkpt>
 <trkpt lat="52.053780800" lon="9.143754500"><ele>345</ele><time>2013-04-14T11:13:58Z</time></trkpt>
 <trkpt lat="52.053725300" lon="9.143760800"><ele>346</ele><time>2013-04-14T11:14:02Z</time></trkpt>
 <trkpt lat="52.053694900" lon="9.143826600"><ele>346</ele><time>2013-04-14T11:14:06Z</time></trkpt>
 <trkpt lat="52.053665800" lon="9.143897400"><ele>346</ele><time>2013-04-14T11:14:10Z</time></trkpt>
 <trkpt lat="52.053638300" lon="9.143946600"><ele>346</ele><time>2013-04-14T11:14:14Z</time></trkpt>
 <trkpt lat="52.053608700" lon="9.144003300"><ele>346</ele><time>2013-04-14T11:14:18Z</time></trkpt>
 <trkpt lat="52.053567800" lon="9.144071200"><ele>346</ele><time>2013-04-14T11:14:22Z</time></trkpt>
 <trkpt lat="52.053539900" lon="9.144141600"><ele>346</ele><time>2013-04-14T11:14:26Z</time></trkpt>
 <trkpt lat="52.053516200" lon="9.144176600"><ele>346</ele><time>2013-04-14T11:14:30Z</time></trkpt>
 <trkpt lat="52.053481200" lon="9.144223300"><ele>345</ele><time>2013-04-14T11:14:34Z</time></trkpt>
 <trkpt lat="52.053443200" lon="9.144318300"><ele>345</ele><time>2013-04-14T11:14:38Z</time></trkpt>
 <trkpt lat="52.053427000" lon="9.144348300"><ele>345</ele><time>2013-04-14T11:14:42Z</time></trkpt>
 <trkpt lat="52.053411200" lon="9.144398700"><ele>345</ele><time>2013-04-14T11:14:46Z</time></trkpt>
 <trkpt lat="52.053375400" lon="9.144488300"><ele>345</ele><time>2013-04-14T11:14:50Z</time></trkpt>
 <trkpt lat="52.053355000" lon="9.144542400"><ele>344</ele><time>2013-04-14T11:14:54Z</time></trkpt>
 <trkpt lat="52.053329500" lon="9.144622800"><ele>344</ele><time>2013-04-14T11:14:58Z</time></trkpt>
 <trkpt lat="52.053306200" lon="9.144706200"><ele>344</ele><time>2013-04-14T11:15:02Z</time></trkpt>
 <trkpt lat="52.053284900" lon="9.144783300"><ele>343</ele><time>2013-04-14T11:15:06Z</time></trkpt>
 <trkpt lat="52.053269500" lon="9.144840300"><ele>343</ele><time>2013-04-14T11:15:10Z</time></trkpt>
 <trkpt lat="52.053251600" lon="9.144904500"><ele>343</ele><time>2013-04-14T11:15:14Z</time></trkpt>
 <trkpt lat="52.053232900" lon="9.144976600"><ele>342</ele><time>2013-04-14T11:15:18Z</time></trkpt>
 <trkpt lat="52.053227400" lon="9.144999500"><ele>342</ele><time>2013-04-14T11:15:22Z</time></trkpt>
 <trkpt lat="52.053227400" lon="9.144999500"><ele>342</ele><time>2013-04-14T11:15:26Z</time></trkpt>
 <trkpt lat="52.053227400" lon="9.144999500"><ele>342</ele><time>2013-04-14T11:15:30Z</time></trkpt>
 <trkpt lat="52.053227400" lon="9.144999500"><ele>342</ele><time>2013-04-14T11:15:34Z</time></trkpt>
 <trkpt lat="52.053232800" lon="9.145000400"><ele>342</ele><time>2013-04-14T11:15:38Z</time></trkpt>
 <trkpt lat="52.053232800" lon="9.145000400"><ele>341</ele><time>2013-04-14T11:15:42Z</time></trkpt>
 <trkpt lat="52.053232800" lon="9.145000400"><ele>341</ele><time>2013-04-14T11:15:46Z</time></trkpt>
 <trkpt lat="52.053234500" lon="9.144987400"><ele>341</ele><time>2013-04-14T11:15:50Z</time></trkpt>
 <trkpt lat="52.053232400" lon="9.145053300"><ele>341</ele><time>2013-04-14T11:15:54Z</time></trkpt>
 <trkpt lat="52.053224900" lon="9.145128700"><ele>341</ele><time>2013-04-14T11:15:58Z</time></trkpt>
 <trkpt lat="52.053215800" lon="9.145196200"><ele>340</ele><time>2013-04-14T11:16:02Z</time></trkpt>
 <trkpt lat="52.053211600" lon="9.145264100"><ele>340</ele><time>2013-04-14T11:16:06Z</time></trkpt>
 <trkpt lat="52.053209900" lon="9.145320800"><ele>340</ele><time>2013-04-14T11:16:10Z</time></trkpt>
 <trkpt lat="52.053199900" lon="9.145349500"><ele>340</ele><time>2013-04-14T11:16:14Z</time></trkpt>
 <trkpt lat="52.053180300" lon="9.145372900"><ele>339</ele><time>2013-04-14T11:16:18Z</time></trkpt>
 <trkpt lat="52.053165300" lon="9.145392400"><ele>339</ele><time>2013-04-14T11:16:22Z</time></trkpt>
 <trkpt lat="52.053149100" lon="9.145420800"><ele>339</ele><time>2013-04-14T11:16:26Z</time></trkpt>
 <trkpt lat="52.053144100" lon="9.145469500"><ele>338</ele><time>2013-04-14T11:16:30Z</time></trkpt>
 <trkpt lat="52.053134900" lon="9.145511600"><ele>338</ele><time>2013-04-14T11:16:34Z</time></trkpt>
 <trkpt lat="52.053111600" lon="9.145571600"><ele>337</ele><time>2013-04-14T11:16:38Z</time></trkpt>
 <trkpt lat="52.053088300" lon="9.145642800"><ele>337</ele><time>2013-04-14T11:16:42Z</time></trkpt>
 <trkpt lat="52.053064100" lon="9.145707400"><ele>336</ele><time>2013-04-14T11:16:46Z</time></trkpt>
 <trkpt lat="52.053037800" lon="9.145767900"><ele>336</ele><time>2013-04-14T11:16:50Z</time></trkpt>
 <trkpt lat="52.053003300" lon="9.145832400"><ele>335</ele><time>2013-04-14T11:16:54Z</time></trkpt>
 <trkpt lat="52.052976600" lon="9.145899100"><ele>334</ele><time>2013-04-14T11:16:58Z</time></trkpt>
 <trkpt lat="52.052952000" lon="9.145978300"><ele>334</ele><time>2013-04-14T11:17:02Z</time></trkpt>
 <trkpt lat="52.052927400" lon="9.146050400"><ele>333</ele><time>2013-04-14T11:17:06Z</time></trkpt>
 <trkpt lat="52.052887400" lon="9.146116200"><ele>333</ele><time>2013-04-14T11:17:10Z</time></trkpt>
 <trkpt lat="52.052848700" lon="9.146173300"><ele>332</ele><time>2013-04-14T11:17:14Z</time></trkpt>
 <trkpt lat="52.052804500" lon="9.146232000"><ele>331</ele><time>2013-04-14T11:17:18Z</time></trkpt>
 <trkpt lat="52.052765800" lon="9.146287000"><ele>331</ele><time>2013-04-14T11:17:22Z</time></trkpt>
 <trkpt lat="52.052739100" lon="9.146342500"><ele>330</ele><time>2013-04-14T11:17:26Z</time></trkpt>
 <trkpt lat="52.052714100" lon="9.146402900"><ele>329</ele><time>2013-04-14T11:17:30Z</time></trkpt>
 <trkpt lat="52.052685800" lon="9.146460300"><ele>329</ele><time>2013-04-14T11:17:34Z</time></trkpt>
 <trkpt lat="52.052672400" lon="9.146501600"><ele>328</ele><time>2013-04-14T11:17:38Z</time></trkpt>
 <trkpt lat="52.052655300" lon="9.146552000"><ele>327</ele><time>2013-04-14T11:17:42Z</time></trkpt>
 <trkpt lat="52.052630300" lon="9.146607900"><ele>327</ele><time>2013-04-14T11:17:46Z</time></trkpt>
 <trkpt lat="52.052596600" lon="9.146675800"><ele>326</ele><time>2013-04-14T11:17:50Z</time></trkpt>
 <trkpt lat="52.052562000" lon="9.146746600"><ele>325</ele><time>2013-04-14T11:17:54Z</time></trkpt>
 <trkpt lat="52.052527000" lon="9.146822400"><ele>325</ele><time>2013-04-14T11:17:58Z</time></trkpt>
 <trkpt lat="52.052493300" lon="9.146891200"><ele>324</ele><time>2013-04-14T11:18:02Z</time></trkpt>
 <trkpt lat="52.052471200" lon="9.146944100"><ele>324</ele><time>2013-04-14T11:18:06Z</time></trkpt>
 <trkpt lat="52.052449100" lon="9.146997400"><ele>323</ele><time>2013-04-14T11:18:10Z</time></trkpt>
 <trkpt lat="52.052424500" lon="9.147067900"><ele>322</ele><time>2013-04-14T11:18:14Z</time></trkpt>
 <trkpt lat="52.052408300" lon="9.147141600"><ele>322</ele><time>2013-04-14T11:18:18Z</time></trkpt>
 <trkpt lat="52.052386200" lon="9.147204500"><ele>321</ele><time>2013-04-14T11:18:22Z</time></trkpt>
 <trkpt lat="52.052360800" lon="9.147258700"><ele>321</ele><time>2013-04-14T11:18:26Z</time></trkpt>
 <trkpt lat="52.052337400" lon="9.147302400"><ele>320</ele><time>2013-04-14T11:18:30Z</time></trkpt>
 <trkpt lat="52.052315400" lon="9.147343300"><ele>320</ele><time>2013-04-14T11:18:34Z</time></trkpt>
 <trkpt lat="52.052309500" lon="9.147352400"><ele>319</ele><time>2013-04-14T11:18:38Z</time></trkpt>
 <trkpt lat="52.052302000" lon="9.147352800"><ele>319</ele><time>2013-04-14T11:18:42Z</time></trkpt>
 <trkpt lat="52.052302000" lon="9.147352800"><ele>319</ele><time>2013-04-14T11:18:46Z</time></trkpt>
 <trkpt lat="52.052289100" lon="9.147360800"><ele>318</ele><time>2013-04-14T11:18:50Z</time></trkpt>
 <trkpt lat="52.052255300" lon="9.147401600"><ele>318</ele><time>2013-04-14T11:18:54Z</time></trkpt>
 <trkpt lat="52.052204900" lon="9.147468700"><ele>318</ele><time>2013-04-14T11:18:58Z</time></trkpt>
 <trkpt lat="52.052168300" lon="9.147552900"><ele>317</ele><time>2013-04-14T11:19:02Z</time></trkpt>
 <trkpt lat="52.052134100" lon="9.147612000"><ele>317</ele><time>2013-04-14T11:19:06Z</time></trkpt>
 <trkpt lat="52.052104100" lon="9.147658700"><ele>316</ele><time>2013-04-14T11:19:10Z</time></trkpt>
 <trkpt lat="52.052079500" lon="9.147695300"><ele>316</ele><time>2013-04-14T11:19:14Z</time></trkpt>
 <trkpt lat="52.052053700" lon="9.147743300"><ele>315</ele><time>2013-04-14T11:19:18Z</time></trkpt>
 <trkpt lat="52.052026600" lon="9.147792400"><ele>315</ele><time>2013-04-14T11:19:22Z</time></trkpt>
 <trkpt lat="52.051999100" lon="9.147833700"><ele>314</ele><time>2013-04-14T11:19:26Z</time></trkpt>
 <trkpt lat="52.051967000" lon="9.147873700"><ele>314</ele><time>2013-04-14T11:19:30Z</time></trkpt>
 <trkpt lat="52.051941600" lon="9.147911200"><ele>313</ele><time>2013-04-14T11:19:34Z</time></trkpt>
 <trkpt lat="52.051915800" lon="9.147947400"><ele>312</ele><time>2013-04-14T11:19:38Z</time></trkpt>
 <trkpt lat="52.051895800" lon="9.147985400"><ele>312</ele><time>2013-04-14T11:19:42Z</time></trkpt>
 <trkpt lat="52.051865800" lon="9.148019100"><ele>311</ele><time>2013-04-14T11:19:46Z</time></trkpt>
 <trkpt lat="52.051834100" lon="9.148047900"><ele>310</ele><time>2013-04-14T11:19:50Z</time></trkpt>
 <trkpt lat="52.051804900" lon="9.148075800"><ele>309</ele><time>2013-04-14T11:19:54Z</time></trkpt>
 <trkpt lat="52.051773300" lon="9.148097000"><ele>308</ele><time>2013-04-14T11:19:58Z</time></trkpt>
 <trkpt lat="52.051733300" lon="9.148126200"><ele>308</ele><time>2013-04-14T11:20:02Z</time></trkpt>
 <trkpt lat="52.051694900" lon="9.148151600"><ele>307</ele><time>2013-04-14T11:20:06Z</time></trkpt>
 <trkpt lat="52.051650300" lon="9.148172000"><ele>306</ele><time>2013-04-14T11:20:10Z</time></trkpt>
 <trkpt lat="52.051604900" lon="9.148230300"><ele>305</ele><time>2013-04-14T11:20:14Z</time></trkpt>
 <trkpt lat="52.051564900" lon="9.148276200"><ele>305</ele><time>2013-04-14T11:20:18Z</time></trkpt>
 <trkpt lat="52.051527000" lon="9.148337000"><ele>304</ele><time>2013-04-14T11:20:22Z</time></trkpt>
 <trkpt lat="52.051485300" lon="9.148379500"><ele>303</ele><time>2013-04-14T11:20:26Z</time></trkpt>
 <trkpt lat="52.051433700" lon="9.148393700"><ele>303</ele><time>2013-04-14T11:20:30Z</time></trkpt>
 <trkpt lat="52.051382000" lon="9.148422000"><ele>302</ele><time>2013-04-14T11:20:34Z</time></trkpt>
 <trkpt lat="52.051328300" lon="9.148472000"><ele>301</ele><time>2013-04-14T11:20:38Z</time></trkpt>
 <trkpt lat="52.051259500" lon="9.148509900"><ele>301</ele><time>2013-04-14T11:20:42Z</time></trkpt>
 <trkpt lat="52.051205800" lon="9.148519500"><ele>300</ele><time>2013-04-14T11:20:46Z</time></trkpt>
 <trkpt lat="52.051161600" lon="9.148494500"><ele>300</ele><time>2013-04-14T11:20:50Z</time></trkpt>
 <trkpt lat="52.051126600" lon="9.148446200"><ele>299</ele><time>2013-04-14T11:20:54Z</time></trkpt>
 <trkpt lat="52.051103700" lon="9.148398300"><ele>298</ele><time>2013-04-14T11:20:58Z</time></trkpt>
 <trkpt lat="52.051074500" lon="9.148328300"><ele>298</ele><time>2013-04-14T11:21:02Z</time></trkpt>
 <trkpt lat="52.051051200" lon="9.148282000"><ele>297</ele><time>2013-04-14T11:21:06Z</time></trkpt>
 <trkpt lat="52.051017000" lon="9.148220300"><ele>297</ele><time>2013-04-14T11:21:10Z</time></trkpt>
 <trkpt lat="52.050976600" lon="9.148146600"><ele>296</ele><time>2013-04-14T11:21:14Z</time></trkpt>
 <trkpt lat="52.050944900" lon="9.148101200"><ele>296</ele><time>2013-04-14T11:21:18Z</time></trkpt>
 <trkpt lat="52.050919900" lon="9.148027900"><ele>296</ele><time>2013-04-14T11:21:22Z</time></trkpt>
 <trkpt lat="52.050903300" lon="9.147942000"><ele>295</ele><time>2013-04-14T11:21:26Z</time></trkpt>
 <trkpt lat="52.050884100" lon="9.147857800"><ele>295</ele><time>2013-04-14T11:21:30Z</time></trkpt>
 <trkpt lat="52.050863700" lon="9.147782800"><ele>294</ele><time>2013-04-14T11:21:34Z</time></trkpt>
 <trkpt lat="52.050849500" lon="9.147714100"><ele>294</ele><time>2013-04-14T11:21:38Z</time></trkpt>
 <trkpt lat="52.050844100" lon="9.147652000"><ele>294</ele><time>2013-04-14T11:21:42Z</time></trkpt>
 <trkpt lat="52.050835400" lon="9.147596600"><ele>293</ele><time>2013-04-14T11:21:46Z</time></trkpt>
 <trkpt lat="52.050831200" lon="9.147551200"><ele>293</ele><time>2013-04-14T11:21:50Z</time></trkpt>
 <trkpt lat="52.050801600" lon="9.147492900"><ele>292</ele><time>2013-04-14T11:21:54Z</time></trkpt>
 <trkpt lat="52.050774100" lon="9.147427000"><ele>292</ele><time>2013-04-14T11:21:58Z</time></trkpt>
 <trkpt lat="52.050724900" lon="9.147339100"><ele>292</ele><time>2013-04-14T11:22:02Z</time></trkpt>
 <trkpt lat="52.050687800" lon="9.147275400"><ele>292</ele><time>2013-04-14T11:22:06Z</time></trkpt>
 <trkpt lat="52.050681600" lon="9.147275800"><ele>291</ele><time>2013-04-14T11:22:10Z</time></trkpt>
 <trkpt lat="52.050670400" lon="9.147278300"><ele>291</ele><time>2013-04-14T11:22:14Z</time></trkpt>
 <trkpt lat="52.050629100" lon="9.147288300"><ele>291</ele><time>2013-04-14T11:22:18Z</time></trkpt>
 <trkpt lat="52.050590800" lon="9.147288300"><ele>291</ele><time>2013-04-14T11:22:22Z</time></trkpt>
 <trkpt lat="52.050556200" lon="9.147298700"><ele>291</ele><time>2013-04-14T11:22:26Z</time></trkpt>
 <trkpt lat="52.050528300" lon="9.147303300"><ele>290</ele><time>2013-04-14T11:22:30Z</time></trkpt>
 <trkpt lat="52.050489500" lon="9.147308700"><ele>290</ele><time>2013-04-14T11:22:34Z</time></trkpt>
 <trkpt lat="52.050440700" lon="9.147328700"><ele>290</ele><time>2013-04-14T11:22:38Z</time></trkpt>
 <trkpt lat="52.050395400" lon="9.147347800"><ele>290</ele><time>2013-04-14T11:22:42Z</time></trkpt>
 <trkpt lat="52.050349900" lon="9.147373700"><ele>290</ele><time>2013-04-14T11:22:46Z</time></trkpt>
 <trkpt lat="52.050309100" lon="9.147405800"><ele>290</ele><time>2013-04-14T11:22:50Z</time></trkpt>
 <trkpt lat="52.050271600" lon="9.147431600"><ele>290</ele><time>2013-04-14T11:22:54Z</time></trkpt>
 <trkpt lat="52.050220400" lon="9.147454500"><ele>289</ele><time>2013-04-14T11:22:58Z</time></trkpt>
 <trkpt lat="52.050196200" lon="9.147474500"><ele>289</ele><time>2013-04-14T11:23:02Z</time></trkpt>
 <trkpt lat="52.050190400" lon="9.147494900"><ele>289</ele><time>2013-04-14T11:23:06Z</time></trkpt>
 <trkpt lat="52.050178700" lon="9.147492400"><ele>289</ele><time>2013-04-14T11:23:10Z</time></trkpt>
 <trkpt lat="52.050155400" lon="9.147451200"><ele>289</ele><time>2013-04-14T11:23:14Z</time></trkpt>
 <trkpt lat="52.050138200" lon="9.147375800"><ele>289</ele><time>2013-04-14T11:23:18Z</time></trkpt>
 <trkpt lat="52.050133700" lon="9.147295700"><ele>289</ele><time>2013-04-14T11:23:22Z</time></trkpt>
 <trkpt lat="52.050132800" lon="9.147209100"><ele>288</ele><time>2013-04-14T11:23:26Z</time></trkpt>
 <trkpt lat="52.050141200" lon="9.147139100"><ele>288</ele><time>2013-04-14T11:23:30Z</time></trkpt>
 <trkpt lat="52.050133300" lon="9.147073700"><ele>288</ele><time>2013-04-14T11:23:34Z</time></trkpt>
 <trkpt lat="52.050114900" lon="9.147019900"><ele>288</ele><time>2013-04-14T11:23:38Z</time></trkpt>
 <trkpt lat="52.050084500" lon="9.146969500"><ele>288</ele><time>2013-04-14T11:23:42Z</time></trkpt>
 <trkpt lat="52.050043300" lon="9.146939100"><ele>287</ele><time>2013-04-14T11:23:46Z</time></trkpt>
 <trkpt lat="52.050005300" lon="9.146917000"><ele>287</ele><time>2013-04-14T11:23:50Z</time></trkpt>
 <trkpt lat="52.049964900" lon="9.146893300"><ele>287</ele><time>2013-04-14T11:23:54Z</time></trkpt>
 <trkpt lat="52.049925300" lon="9.146860800"><ele>286</ele><time>2013-04-14T11:23:58Z</time></trkpt>
 <trkpt lat="52.049883300" lon="9.146857900"><ele>286</ele><time>2013-04-14T11:24:02Z</time></trkpt>
 <trkpt lat="52.049833300" lon="9.146862400"><ele>286</ele><time>2013-04-14T11:24:06Z</time></trkpt>
 <trkpt lat="52.049788300" lon="9.146865400"><ele>285</ele><time>2013-04-14T11:24:10Z</time></trkpt>
 <trkpt lat="52.049749100" lon="9.146847800"><ele>285</ele><time>2013-04-14T11:24:14Z</time></trkpt>
 <trkpt lat="52.049710300" lon="9.146808700"><ele>285</ele><time>2013-04-14T11:24:18Z</time></trkpt>
 <trkpt lat="52.049697800" lon="9.146743700"><ele>284</ele><time>2013-04-14T11:24:22Z</time></trkpt>
 <trkpt lat="52.049694100" lon="9.146661600"><ele>284</ele><time>2013-04-14T11:24:26Z</time></trkpt>
 <trkpt lat="52.049695800" lon="9.146599500"><ele>284</ele><time>2013-04-14T11:24:30Z</time></trkpt>
 <trkpt lat="52.049693300" lon="9.146525800"><ele>283</ele><time>2013-04-14T11:24:34Z</time></trkpt>
 <trkpt lat="52.049696200" lon="9.146453300"><ele>283</ele><time>2013-04-14T11:24:38Z</time></trkpt>
 <trkpt lat="52.049695000" lon="9.146376600"><ele>283</ele><time>2013-04-14T11:24:42Z</time></trkpt>
 <trkpt lat="52.049692000" lon="9.146306200"><ele>282</ele><time>2013-04-14T11:24:46Z</time></trkpt>
 <trkpt lat="52.049697000" lon="9.146220300"><ele>282</ele><time>2013-04-14T11:24:50Z</time></trkpt>
 <trkpt lat="52.049703700" lon="9.146148700"><ele>282</ele><time>2013-04-14T11:24:54Z</time></trkpt>
 <trkpt lat="52.049703300" lon="9.146080800"><ele>282</ele><time>2013-04-14T11:24:58Z</time></trkpt>
 <trkpt lat="52.049712000" lon="9.146004500"><ele>282</ele><time>2013-04-14T11:25:02Z</time></trkpt>
 <trkpt lat="52.049710800" lon="9.145915400"><ele>281</ele><time>2013-04-14T11:25:06Z</time></trkpt>
 <trkpt lat="52.049709100" lon="9.145829900"><ele>281</ele><time>2013-04-14T11:25:10Z</time></trkpt>
 <trkpt lat="52.049713300" lon="9.145761200"><ele>281</ele><time>2013-04-14T11:25:14Z</time></trkpt>
 <trkpt lat="52.049720300" lon="9.145683700"><ele>281</ele><time>2013-04-14T11:25:18Z</time></trkpt>
 <trkpt lat="52.049736600" lon="9.145610800"><ele>281</ele><time>2013-04-14T11:25:22Z</time></trkpt>
 <trkpt lat="52.049748700" lon="9.145532400"><ele>281</ele><time>2013-04-14T11:25:26Z</time></trkpt>
 <trkpt lat="52.049753300" lon="9.145486600"><ele>281</ele><time>2013-04-14T11:25:30Z</time></trkpt>
 <trkpt lat="52.049748700" lon="9.145459500"><ele>281</ele><time>2013-04-14T11:25:34Z</time></trkpt>
 <trkpt lat="52.049758300" lon="9.145423700"><ele>281</ele><time>2013-04-14T11:25:38Z</time></trkpt>
 <trkpt lat="52.049774100" lon="9.145391600"><ele>281</ele><time>2013-04-14T11:25:42Z</time></trkpt>
 <trkpt lat="52.049777000" lon="9.145362800"><ele>281</ele><time>2013-04-14T11:25:46Z</time></trkpt>
 <trkpt lat="52.049761200" lon="9.145319500"><ele>282</ele><time>2013-04-14T11:25:50Z</time></trkpt>
 <trkpt lat="52.049755300" lon="9.145291600"><ele>282</ele><time>2013-04-14T11:25:54Z</time></trkpt>
 <trkpt lat="52.049752400" lon="9.145232000"><ele>282</ele><time>2013-04-14T11:25:58Z</time></trkpt>
 <trkpt lat="52.049763200" lon="9.145148700"><ele>282</ele><time>2013-04-14T11:26:02Z</time></trkpt>
 <trkpt lat="52.049781600" lon="9.145088300"><ele>282</ele><time>2013-04-14T11:26:06Z</time></trkpt>
 <trkpt lat="52.049791600" lon="9.145015800"><ele>282</ele><time>2013-04-14T11:26:10Z</time></trkpt>
 <trkpt lat="52.049776600" lon="9.144955800"><ele>282</ele><time>2013-04-14T11:26:14Z</time></trkpt>
 <trkpt lat="52.049752400" lon="9.144919100"><ele>282</ele><time>2013-04-14T11:26:18Z</time></trkpt>
 <trkpt lat="52.049734500" lon="9.144896600"><ele>282</ele><time>2013-04-14T11:26:22Z</time></trkpt>
 <trkpt lat="52.049714500" lon="9.144879500"><ele>282</ele><time>2013-04-14T11:26:26Z</time></trkpt>
 <trkpt lat="52.049682800" lon="9.144862800"><ele>282</ele><time>2013-04-14T11:26:30Z</time></trkpt>
 <trkpt lat="52.049652400" lon="9.144846200"><ele>282</ele><time>2013-04-14T11:26:34Z</time></trkpt>
 <trkpt lat="52.049620800" lon="9.144824100"><ele>282</ele><time>2013-04-14T11:26:38Z</time></trkpt>
 <trkpt lat="52.049575800" lon="9.144784900"><ele>283</ele><time>2013-04-14T11:26:42Z</time></trkpt>
 <trkpt lat="52.049537400" lon="9.144758300"><ele>283</ele><time>2013-04-14T11:26:46Z</time></trkpt>
 <trkpt lat="52.049499900" lon="9.144742400"><ele>283</ele><time>2013-04-14T11:26:50Z</time></trkpt>
 <trkpt lat="52.049455800" lon="9.144728300"><ele>283</ele><time>2013-04-14T11:26:54Z</time></trkpt>
 <trkpt lat="52.049422900" lon="9.144704500"><ele>283</ele><time>2013-04-14T11:26:58Z</time></trkpt>
 <trkpt lat="52.049385800" lon="9.144679500"><ele>283</ele><time>2013-04-14T11:27:02Z</time></trkpt>
 <trkpt lat="52.049346200" lon="9.144658300"><ele>284</ele><time>2013-04-14T11:27:06Z</time></trkpt>
 <trkpt lat="52.049306600" lon="9.144630800"><ele>284</ele><time>2013-04-14T11:27:10Z</time></trkpt>
 <trkpt lat="52.049270300" lon="9.144599900"><ele>284</ele><time>2013-04-14T11:27:14Z</time></trkpt>
 <trkpt lat="52.049232000" lon="9.144582900"><ele>284</ele><time>2013-04-14T11:27:18Z</time></trkpt>
 <trkpt lat="52.049194100" lon="9.144563300"><ele>284</ele><time>2013-04-14T11:27:22Z</time></trkpt>
 <trkpt lat="52.049153700" lon="9.144537000"><ele>285</ele><time>2013-04-14T11:27:26Z</time></trkpt>
 <trkpt lat="52.049140800" lon="9.144534100"><ele>285</ele><time>2013-04-14T11:27:30Z</time></trkpt>
 <trkpt lat="52.049135300" lon="9.144529900"><ele>285</ele><time>2013-04-14T11:27:34Z</time></trkpt>
 <trkpt lat="52.049129500" lon="9.144524500"><ele>285</ele><time>2013-04-14T11:27:38Z</time></trkpt>
 <trkpt lat="52.049123200" lon="9.144520800"><ele>285</ele><time>2013-04-14T11:27:42Z</time></trkpt>
 <trkpt lat="52.049117800" lon="9.144517400"><ele>285</ele><time>2013-04-14T11:27:46Z</time></trkpt>
 <trkpt lat="52.049117800" lon="9.144517400"><ele>286</ele><time>2013-04-14T11:27:50Z</time></trkpt>
 <trkpt lat="52.049112800" lon="9.144520800"><ele>286</ele><time>2013-04-14T11:27:54Z</time></trkpt>
 <trkpt lat="52.049118300" lon="9.144520400"><ele>286</ele><time>2013-04-14T11:27:58Z</time></trkpt>
 <trkpt lat="52.049118300" lon="9.144520400"><ele>286</ele><time>2013-04-14T11:28:02Z</time></trkpt>
 <trkpt lat="52.049088300" lon="9.144518700"><ele>287</ele><time>2013-04-14T11:28:06Z</time></trkpt>
 <trkpt lat="52.049053200" lon="9.144494100"><ele>287</ele><time>2013-04-14T11:28:10Z</time></trkpt>
 <trkpt lat="52.049017400" lon="9.144483300"><ele>287</ele><time>2013-04-14T11:28:14Z</time></trkpt>
 <trkpt lat="52.048974900" lon="9.144462000"><ele>287</ele><time>2013-04-14T11:28:18Z</time></trkpt>
 <trkpt lat="52.048947800" lon="9.144452000"><ele>287</ele><time>2013-04-14T11:28:22Z</time></trkpt>
 <trkpt lat="52.048921600" lon="9.144429100"><ele>287</ele><time>2013-04-14T11:28:26Z</time></trkpt>
 <trkpt lat="52.048895800" lon="9.144370300"><ele>287</ele><time>2013-04-14T11:28:30Z</time></trkpt>
 <trkpt lat="52.048877400" lon="9.144281600"><ele>287</ele><time>2013-04-14T11:28:34Z</time></trkpt>
 <trkpt lat="52.048882500" lon="9.144219100"><ele>287</ele><time>2013-04-14T11:28:38Z</time></trkpt>
 <trkpt lat="52.048884100" lon="9.144209100"><ele>287</ele><time>2013-04-14T11:28:42Z</time></trkpt>
 <trkpt lat="52.048892000" lon="9.144188300"><ele>287</ele><time>2013-04-14T11:28:46Z</time></trkpt>
 <trkpt lat="52.048897000" lon="9.144120300"><ele>287</ele><time>2013-04-14T11:28:50Z</time></trkpt>
 <trkpt lat="52.048895400" lon="9.144044500"><ele>288</ele><time>2013-04-14T11:28:54Z</time></trkpt>
 <trkpt lat="52.048896600" lon="9.143973300"><ele>288</ele><time>2013-04-14T11:28:58Z</time></trkpt>
 <trkpt lat="52.048890800" lon="9.143894500"><ele>289</ele><time>2013-04-14T11:29:02Z</time></trkpt>
 <trkpt lat="52.048885800" lon="9.143816600"><ele>289</ele><time>2013-04-14T11:29:06Z</time></trkpt>
 <trkpt lat="52.048889100" lon="9.143736600"><ele>289</ele><time>2013-04-14T11:29:10Z</time></trkpt>
 <trkpt lat="52.048892900" lon="9.143674100"><ele>290</ele><time>2013-04-14T11:29:14Z</time></trkpt>
 <trkpt lat="52.048880800" lon="9.143619500"><ele>291</ele><time>2013-04-14T11:29:18Z</time></trkpt>
 <trkpt lat="52.048875400" lon="9.143543300"><ele>291</ele><time>2013-04-14T11:29:22Z</time></trkpt>
 <trkpt lat="52.048867000" lon="9.143458700"><ele>292</ele><time>2013-04-14T11:29:26Z</time></trkpt>
 <trkpt lat="52.048865800" lon="9.143382000"><ele>293</ele><time>2013-04-14T11:29:30Z</time></trkpt>
 <trkpt lat="52.048868300" lon="9.143296600"><ele>294</ele><time>2013-04-14T11:29:34Z</time></trkpt>
 <trkpt lat="52.048872400" lon="9.143216200"><ele>295</ele><time>2013-04-14T11:29:38Z</time></trkpt>
 <trkpt lat="52.048877000" lon="9.143120300"><ele>296</ele><time>2013-04-14T11:29:42Z</time></trkpt>
 <trkpt lat="52.048878300" lon="9.143043700"><ele>297</ele><time>2013-04-14T11:29:46Z</time></trkpt>
 <trkpt lat="52.048880000" lon="9.142979900"><ele>298</ele><time>2013-04-14T11:29:50Z</time></trkpt>
 <trkpt lat="52.048888300" lon="9.142911200"><ele>298</ele><time>2013-04-14T11:29:54Z</time></trkpt>
 <trkpt lat="52.048900300" lon="9.142856600"><ele>299</ele><time>2013-04-14T11:29:58Z</time></trkpt>
 <trkpt lat="52.048899500" lon="9.142815300"><ele>300</ele><time>2013-04-14T11:30:02Z</time></trkpt>
 <trkpt lat="52.048915300" lon="9.142765300"><ele>301</ele><time>2013-04-14T11:30:06Z</time></trkpt>
 <trkpt lat="52.048929900" lon="9.142701200"><ele>301</ele><time>2013-04-14T11:30:10Z</time></trkpt>
 <trkpt lat="52.048930300" lon="9.142645400"><ele>302</ele><time>2013-04-14T11:30:14Z</time></trkpt>
 <trkpt lat="52.048927000" lon="9.142564500"><ele>302</ele><time>2013-04-14T11:30:18Z</time></trkpt>
 <trkpt lat="52.048931200" lon="9.142480300"><ele>303</ele><time>2013-04-14T11:30:22Z</time></trkpt>
 <trkpt lat="52.048941200" lon="9.142395400"><ele>303</ele><time>2013-04-14T11:30:26Z</time></trkpt>
 <trkpt lat="52.048949900" lon="9.142325800"><ele>304</ele><time>2013-04-14T11:30:30Z</time></trkpt>
 <trkpt lat="52.048951200" lon="9.142280800"><ele>304</ele><time>2013-04-14T11:30:34Z</time></trkpt>
 <trkpt lat="52.048947800" lon="9.142269900"><ele>305</ele><time>2013-04-14T11:30:38Z</time></trkpt>
 <trkpt lat="52.048944100" lon="9.142263300"><ele>305</ele><time>2013-04-14T11:30:42Z</time></trkpt>
 <trkpt lat="52.048961200" lon="9.142229500"><ele>306</ele><time>2013-04-14T11:30:46Z</time></trkpt>
 <trkpt lat="52.048976200" lon="9.142156200"><ele>306</ele><time>2013-04-14T11:30:50Z</time></trkpt>
 <trkpt lat="52.048992500" lon="9.142079100"><ele>306</ele><time>2013-04-14T11:30:54Z</time></trkpt>
 <trkpt lat="52.049014900" lon="9.142001600"><ele>307</ele><time>2013-04-14T11:30:58Z</time></trkpt>
 <trkpt lat="52.049037000" lon="9.141933200"><ele>307</ele><time>2013-04-14T11:31:02Z</time></trkpt>
 <trkpt lat="52.049062000" lon="9.141873700"><ele>307</ele><time>2013-04-14T11:31:06Z</time></trkpt>
 <trkpt lat="52.049080300" lon="9.141813700"><ele>308</ele><time>2013-04-14T11:31:10Z</time></trkpt>
 <trkpt lat="52.049106200" lon="9.141746200"><ele>308</ele><time>2013-04-14T11:31:14Z</time></trkpt>
 <trkpt lat="52.049131200" lon="9.141705800"><ele>308</ele><time>2013-04-14T11:31:18Z</time></trkpt>
 <trkpt lat="52.049150300" lon="9.141639100"><ele>308</ele><time>2013-04-14T11:31:22Z</time></trkpt>
 <trkpt lat="52.049170800" lon="9.141557900"><ele>309</ele><time>2013-04-14T11:31:26Z</time></trkpt>
 <trkpt lat="52.049192000" lon="9.141477000"><ele>309</ele><time>2013-04-14T11:31:30Z</time></trkpt>
 <trkpt lat="52.049221200" lon="9.141406200"><ele>310</ele><time>2013-04-14T11:31:34Z</time></trkpt>
 <trkpt lat="52.049253300" lon="9.141337000"><ele>310</ele><time>2013-04-14T11:31:38Z</time></trkpt>
 <trkpt lat="52.049283700" lon="9.141258300"><ele>311</ele><time>2013-04-14T11:31:42Z</time></trkpt>
 <trkpt lat="52.049299100" lon="9.141196600"><ele>311</ele><time>2013-04-14T11:31:46Z</time></trkpt>
 <trkpt lat="52.049308300" lon="9.141126200"><ele>312</ele><time>2013-04-14T11:31:50Z</time></trkpt>
 <trkpt lat="52.049310400" lon="9.141059100"><ele>312</ele><time>2013-04-14T11:31:54Z</time></trkpt>
 <trkpt lat="52.049322000" lon="9.140991600"><ele>313</ele><time>2013-04-14T11:31:58Z</time></trkpt>
 <trkpt lat="52.049336200" lon="9.140915800"><ele>314</ele><time>2013-04-14T11:32:02Z</time></trkpt>
 <trkpt lat="52.049342400" lon="9.140823700"><ele>314</ele><time>2013-04-14T11:32:06Z</time></trkpt>
 <trkpt lat="52.049347800" lon="9.140754900"><ele>315</ele><time>2013-04-14T11:32:10Z</time></trkpt>
 <trkpt lat="52.049354900" lon="9.140693300"><ele>316</ele><time>2013-04-14T11:32:14Z</time></trkpt>
 <trkpt lat="52.049372000" lon="9.140622000"><ele>316</ele><time>2013-04-14T11:32:18Z</time></trkpt>
 <trkpt lat="52.049385700" lon="9.140567800"><ele>317</ele><time>2013-04-14T11:32:22Z</time></trkpt>
 <trkpt lat="52.049399500" lon="9.140505400"><ele>317</ele><time>2013-04-14T11:32:26Z</time></trkpt>
 <trkpt lat="52.049416200" lon="9.140418700"><ele>317</ele><time>2013-04-14T11:32:30Z</time></trkpt>
 <trkpt lat="52.049430800" lon="9.140333700"><ele>318</ele><time>2013-04-14T11:32:34Z</time></trkpt>
 <trkpt lat="52.049439100" lon="9.140317900"><ele>318</ele><time>2013-04-14T11:32:38Z</time></trkpt>
 <trkpt lat="52.049442800" lon="9.140294100"><ele>318</ele><time>2013-04-14T11:32:42Z</time></trkpt>
 <trkpt lat="52.049453700" lon="9.140262400"><ele>318</ele><time>2013-04-14T11:32:46Z</time></trkpt>
 <trkpt lat="52.049462000" lon="9.140200800"><ele>318</ele><time>2013-04-14T11:32:50Z</time></trkpt>
 <trkpt lat="52.049464500" lon="9.140139500"><ele>318</ele><time>2013-04-14T11:32:54Z</time></trkpt>
 <trkpt lat="52.049489500" lon="9.140084900"><ele>318</ele><time>2013-04-14T11:32:58Z</time></trkpt>
 <trkpt lat="52.049500800" lon="9.140036600"><ele>318</ele><time>2013-04-14T11:33:02Z</time></trkpt>
 <trkpt lat="52.049515800" lon="9.139966200"><ele>318</ele><time>2013-04-14T11:33:06Z</time></trkpt>
 <trkpt lat="52.049541600" lon="9.139894900"><ele>318</ele><time>2013-04-14T11:33:10Z</time></trkpt>
 <trkpt lat="52.049559100" lon="9.139824500"><ele>318</ele><time>2013-04-14T11:33:14Z</time></trkpt>
 <trkpt lat="52.049577900" lon="9.139741200"><ele>318</ele><time>2013-04-14T11:33:18Z</time></trkpt>
 <trkpt lat="52.049600800" lon="9.139661200"><ele>317</ele><time>2013-04-14T11:33:22Z</time></trkpt>
 <trkpt lat="52.049622000" lon="9.139583300"><ele>317</ele><time>2013-04-14T11:33:26Z</time></trkpt>
 <trkpt lat="52.049644900" lon="9.139513700"><ele>317</ele><time>2013-04-14T11:33:30Z</time></trkpt>
 <trkpt lat="52.049677000" lon="9.139413200"><ele>317</ele><time>2013-04-14T11:33:34Z</time></trkpt>
 <trkpt lat="52.049700800" lon="9.139341600"><ele>317</ele><time>2013-04-14T11:33:38Z</time></trkpt>
 <trkpt lat="52.049718700" lon="9.139262000"><ele>317</ele><time>2013-04-14T11:33:42Z</time></trkpt>
 <trkpt lat="52.049726200" lon="9.139201600"><ele>317</ele><time>2013-04-14T11:33:46Z</time></trkpt>
 <trkpt lat="52.049736600" lon="9.139129500"><ele>317</ele><time>2013-04-14T11:33:50Z</time></trkpt>
 <trkpt lat="52.049741600" lon="9.139054500"><ele>317</ele><time>2013-04-14T11:33:54Z</time></trkpt>
 <trkpt lat="52.049747900" lon="9.138981600"><ele>317</ele><time>2013-04-14T11:33:58Z</time></trkpt>
 <trkpt lat="52.049759900" lon="9.138914900"><ele>317</ele><time>2013-04-14T11:34:02Z</time></trkpt>
 <trkpt lat="52.049759900" lon="9.138829100"><ele>317</ele><time>2013-04-14T11:34:06Z</time></trkpt>
 <trkpt lat="52.049711600" lon="9.138783700"><ele>317</ele><time>2013-04-14T11:34:10Z</time></trkpt>
 <trkpt lat="52.049671200" lon="9.138735800"><ele>317</ele><time>2013-04-14T11:34:14Z</time></trkpt>
 <trkpt lat="52.049646600" lon="9.138722400"><ele>318</ele><time>2013-04-14T11:34:18Z</time></trkpt>
 <trkpt lat="52.049609500" lon="9.138694900"><ele>318</ele><time>2013-04-14T11:34:22Z</time></trkpt>
 <trkpt lat="52.049567000" lon="9.138668700"><ele>318</ele><time>2013-04-14T11:34:26Z</time></trkpt>
 <trkpt lat="52.049514900" lon="9.138662800"><ele>318</ele><time>2013-04-14T11:34:30Z</time></trkpt>
 <trkpt lat="52.049465800" lon="9.138646200"><ele>318</ele><time>2013-04-14T11:34:34Z</time></trkpt>
 <trkpt lat="52.049423700" lon="9.138630800"><ele>318</ele><time>2013-04-14T11:34:38Z</time></trkpt>
 <trkpt lat="52.049357000" lon="9.138620400"><ele>318</ele><time>2013-04-14T11:34:42Z</time></trkpt>
 <trkpt lat="52.049304100" lon="9.138597800"><ele>318</ele><time>2013-04-14T11:34:46Z</time></trkpt>
 <trkpt lat="52.049257000" lon="9.138587000"><ele>318</ele><time>2013-04-14T11:34:50Z</time></trkpt>
 <trkpt lat="52.049214500" lon="9.138562000"><ele>319</ele><time>2013-04-14T11:34:54Z</time></trkpt>
 <trkpt lat="52.049171600" lon="9.138537400"><ele>319</ele><time>2013-04-14T11:34:58Z</time></trkpt>
 <trkpt lat="52.049114100" lon="9.138504900"><ele>319</ele><time>2013-04-14T11:35:02Z</time></trkpt>
 <trkpt lat="52.049058300" lon="9.138475300"><ele>320</ele><time>2013-04-14T11:35:06Z</time></trkpt>
 <trkpt lat="52.049001600" lon="9.138444500"><ele>320</ele><time>2013-04-14T11:35:10Z</time></trkpt>
 <trkpt lat="52.048935400" lon="9.138389900"><ele>321</ele><time>2013-04-14T11:35:14Z</time></trkpt>
 <trkpt lat="52.048900400" lon="9.138364100"><ele>321</ele><time>2013-04-14T11:35:18Z</time></trkpt>
 <trkpt lat="52.048854900" lon="9.138339100"><ele>321</ele><time>2013-04-14T11:35:22Z</time></trkpt>
 <trkpt lat="52.048806200" lon="9.138307400"><ele>322</ele><time>2013-04-14T11:35:26Z</time></trkpt>
 <trkpt lat="52.048758700" lon="9.138273700"><ele>322</ele><time>2013-04-14T11:35:30Z</time></trkpt>
 <trkpt lat="52.048707800" lon="9.138246200"><ele>323</ele><time>2013-04-14T11:35:34Z</time></trkpt>
 <trkpt lat="52.048663300" lon="9.138234100"><ele>323</ele><time>2013-04-14T11:35:38Z</time></trkpt>
 <trkpt lat="52.048620800" lon="9.138224500"><ele>323</ele><time>2013-04-14T11:35:42Z</time></trkpt>
 <trkpt lat="52.048597000" lon="9.138209500"><ele>324</ele><time>2013-04-14T11:35:46Z</time></trkpt>
 <trkpt lat="52.048591200" lon="9.138212000"><ele>324</ele><time>2013-04-14T11:35:50Z</time></trkpt>
 <trkpt lat="52.048582800" lon="9.138210300"><ele>324</ele><time>2013-04-14T11:35:54Z</time></trkpt>
 <trkpt lat="52.048559900" lon="9.138185400"><ele>324</ele><time>2013-04-14T11:35:58Z</time></trkpt>
 <trkpt lat="52.048534500" lon="9.138174100"><ele>324</ele><time>2013-04-14T11:36:02Z</time></trkpt>
 <trkpt lat="52.048486200" lon="9.138144100"><ele>324</ele><time>2013-04-14T11:36:06Z</time></trkpt>
 <trkpt lat="52.048449100" lon="9.138118700"><ele>324</ele><time>2013-04-14T11:36:10Z</time></trkpt>
 <trkpt lat="52.048400400" lon="9.138081200"><ele>324</ele><time>2013-04-14T11:36:14Z</time></trkpt>
 <trkpt lat="52.048349500" lon="9.138043300"><ele>324</ele><time>2013-04-14T11:36:18Z</time></trkpt>
 <trkpt lat="52.048307000" lon="9.138022800"><ele>323</ele><time>2013-04-14T11:36:22Z</time></trkpt>
 <trkpt lat="52.048257000" lon="9.138002000"><ele>323</ele><time>2013-04-14T11:36:26Z</time></trkpt>
 <trkpt lat="52.048210000" lon="9.137983300"><ele>323</ele><time>2013-04-14T11:36:30Z</time></trkpt>
 <trkpt lat="52.048162800" lon="9.137959900"><ele>323</ele><time>2013-04-14T11:36:34Z</time></trkpt>
 <trkpt lat="52.048113300" lon="9.137934100"><ele>323</ele><time>2013-04-14T11:36:38Z</time></trkpt>
 <trkpt lat="52.048073300" lon="9.137904900"><ele>322</ele><time>2013-04-14T11:36:42Z</time></trkpt>
 <trkpt lat="52.048025400" lon="9.137898300"><ele>322</ele><time>2013-04-14T11:36:46Z</time></trkpt>
 <trkpt lat="52.047979500" lon="9.137880300"><ele>322</ele><time>2013-04-14T11:36:50Z</time></trkpt>
 <trkpt lat="52.047925300" lon="9.137847900"><ele>322</ele><time>2013-04-14T11:36:54Z</time></trkpt>
 <trkpt lat="52.047880700" lon="9.137825800"><ele>322</ele><time>2013-04-14T11:36:58Z</time></trkpt>
 <trkpt lat="52.047833200" lon="9.137796600"><ele>322</ele><time>2013-04-14T11:37:02Z</time></trkpt>
 <trkpt lat="52.047792800" lon="9.137784900"><ele>321</ele><time>2013-04-14T11:37:06Z</time></trkpt>
 <trkpt lat="52.047742800" lon="9.137762000"><ele>321</ele><time>2013-04-14T11:37:10Z</time></trkpt>
 <trkpt lat="52.047697800" lon="9.137739500"><ele>321</ele><time>2013-04-14T11:37:14Z</time></trkpt>
 <trkpt lat="52.047644900" lon="9.137720300"><ele>321</ele><time>2013-04-14T11:37:18Z</time></trkpt>
 <trkpt lat="52.047591600" lon="9.137708700"><ele>321</ele><time>2013-04-14T11:37:22Z</time></trkpt>
 <trkpt lat="52.047548700" lon="9.137680800"><ele>321</ele><time>2013-04-14T11:37:26Z</time></trkpt>
 <trkpt lat="52.047522800" lon="9.137657800"><ele>321</ele><time>2013-04-14T11:37:30Z</time></trkpt>
 <trkpt lat="52.047505300" lon="9.137649100"><ele>321</ele><time>2013-04-14T11:37:34Z</time></trkpt>
 <trkpt lat="52.047464900" lon="9.137650800"><ele>321</ele><time>2013-04-14T11:37:38Z</time></trkpt>
 <trkpt lat="52.047403300" lon="9.137632400"><ele>321</ele><time>2013-04-14T11:37:42Z</time></trkpt>
 <trkpt lat="52.047360300" lon="9.137601200"><ele>321</ele><time>2013-04-14T11:37:46Z</time></trkpt>
 <trkpt lat="52.047319900" lon="9.137544900"><ele>321</ele><time>2013-04-14T11:37:50Z</time></trkpt>
 <trkpt lat="52.047267000" lon="9.137507800"><ele>320</ele><time>2013-04-14T11:37:54Z</time></trkpt>
 <trkpt lat="52.047207000" lon="9.137480300"><ele>320</ele><time>2013-04-14T11:37:58Z</time></trkpt>
 <trkpt lat="52.047149500" lon="9.137453700"><ele>320</ele><time>2013-04-14T11:38:02Z</time></trkpt>
 <trkpt lat="52.047105800" lon="9.137431600"><ele>320</ele><time>2013-04-14T11:38:06Z</time></trkpt>
 <trkpt lat="52.047068700" lon="9.137417900"><ele>320</ele><time>2013-04-14T11:38:10Z</time></trkpt>
 <trkpt lat="52.047041600" lon="9.137380300"><ele>320</ele><time>2013-04-14T11:38:14Z</time></trkpt>
 <trkpt lat="52.047050400" lon="9.137331200"><ele>319</ele><time>2013-04-14T11:38:18Z</time></trkpt>
 <trkpt lat="52.047075800" lon="9.137278300"><ele>319</ele><time>2013-04-14T11:38:22Z</time></trkpt>
 <trkpt lat="52.047084500" lon="9.137267400"><ele>319</ele><time>2013-04-14T11:38:26Z</time></trkpt>
 <trkpt lat="52.047097000" lon="9.137242000"><ele>319</ele><time>2013-04-14T11:38:30Z</time></trkpt>
 <trkpt lat="52.047113200" lon="9.137189100"><ele>318</ele><time>2013-04-14T11:38:34Z</time></trkpt>
 <trkpt lat="52.047119900" lon="9.137126600"><ele>318</ele><time>2013-04-14T11:38:38Z</time></trkpt>
 <trkpt lat="52.047134500" lon="9.137067000"><ele>318</ele><time>2013-04-14T11:38:42Z</time></trkpt>
 <trkpt lat="52.047147000" lon="9.137014900"><ele>317</ele><time>2013-04-14T11:38:46Z</time></trkpt>
 <trkpt lat="52.047152900" lon="9.136962400"><ele>317</ele><time>2013-04-14T11:38:50Z</time></trkpt>
 <trkpt lat="52.047147800" lon="9.136903700"><ele>317</ele><time>2013-04-14T11:38:54Z</time></trkpt>
 <trkpt lat="52.047154100" lon="9.136835300"><ele>317</ele><time>2013-04-14T11:38:58Z</time></trkpt>
 <trkpt lat="52.047161200" lon="9.136791200"><ele>317</ele><time>2013-04-14T11:39:02Z</time></trkpt>
 <trkpt lat="52.047174900" lon="9.136742400"><ele>317</ele><time>2013-04-14T11:39:06Z</time></trkpt>
 <trkpt lat="52.047187800" lon="9.136692000"><ele>316</ele><time>2013-04-14T11:39:10Z</time></trkpt>
 <trkpt lat="52.047190400" lon="9.136660400"><ele>316</ele><time>2013-04-14T11:39:14Z</time></trkpt>
 <trkpt lat="52.047193700" lon="9.136649500"><ele>316</ele><time>2013-04-14T11:39:18Z</time></trkpt>
 <trkpt lat="52.047199100" lon="9.136649100"><ele>316</ele><time>2013-04-14T11:39:22Z</time></trkpt>
 <trkpt lat="52.047209100" lon="9.136566200"><ele>316</ele><time>2013-04-14T11:39:26Z</time></trkpt>
 <trkpt lat="52.047221600" lon="9.136513300"><ele>316</ele><time>2013-04-14T11:39:30Z</time></trkpt>
 <trkpt lat="52.047229900" lon="9.136442400"><ele>315</ele><time>2013-04-14T11:39:34Z</time></trkpt>
 <trkpt lat="52.047237400" lon="9.136372400"><ele>315</ele><time>2013-04-14T11:39:38Z</time></trkpt>
 <trkpt lat="52.047250300" lon="9.136309900"><ele>315</ele><time>2013-04-14T11:39:42Z</time></trkpt>
 <trkpt lat="52.047269100" lon="9.136229900"><ele>315</ele><time>2013-04-14T11:39:46Z</time></trkpt>
 <trkpt lat="52.047284100" lon="9.136157000"><ele>315</ele><time>2013-04-14T11:39:50Z</time></trkpt>
 <trkpt lat="52.047297800" lon="9.136082000"><ele>315</ele><time>2013-04-14T11:39:54Z</time></trkpt>
 <trkpt lat="52.047305400" lon="9.136019900"><ele>315</ele><time>2013-04-14T11:39:58Z</time></trkpt>
 <trkpt lat="52.047315400" lon="9.135944900"><ele>315</ele><time>2013-04-14T11:40:02Z</time></trkpt>
 <trkpt lat="52.047326200" lon="9.135877000"><ele>315</ele><time>2013-04-14T11:40:06Z</time></trkpt>
 <trkpt lat="52.047329500" lon="9.135814500"><ele>315</ele><time>2013-04-14T11:40:10Z</time></trkpt>
 <trkpt lat="52.047336200" lon="9.135751600"><ele>315</ele><time>2013-04-14T11:40:14Z</time></trkpt>
 <trkpt lat="52.047358700" lon="9.135672800"><ele>315</ele><time>2013-04-14T11:40:18Z</time></trkpt>
 <trkpt lat="52.047374900" lon="9.135605800"><ele>315</ele><time>2013-04-14T11:40:22Z</time></trkpt>
 <trkpt lat="52.047384100" lon="9.135531200"><ele>315</ele><time>2013-04-14T11:40:26Z</time></trkpt>
 <trkpt lat="52.047397400" lon="9.135459500"><ele>315</ele><time>2013-04-14T11:40:30Z</time></trkpt>
 <trkpt lat="52.047409900" lon="9.135390800"><ele>315</ele><time>2013-04-14T11:40:34Z</time></trkpt>
 <trkpt lat="52.047417400" lon="9.135314900"><ele>315</ele><time>2013-04-14T11:40:38Z</time></trkpt>
 <trkpt lat="52.047424500" lon="9.135247000"><ele>315</ele><time>2013-04-14T11:40:42Z</time></trkpt>
 <trkpt lat="52.047436600" lon="9.135171600"><ele>315</ele><time>2013-04-14T11:40:46Z</time></trkpt>
 <trkpt lat="52.047445400" lon="9.135097000"><ele>315</ele><time>2013-04-14T11:40:50Z</time></trkpt>
 <trkpt lat="52.047455800" lon="9.135052000"><ele>314</ele><time>2013-04-14T11:40:54Z</time></trkpt>
 <trkpt lat="52.047464900" lon="9.135022800"><ele>314</ele><time>2013-04-14T11:40:58Z</time></trkpt>
 <trkpt lat="52.047464900" lon="9.135022800"><ele>314</ele><time>2013-04-14T11:41:02Z</time></trkpt>
 <trkpt lat="52.047472900" lon="9.134965300"><ele>314</ele><time>2013-04-14T11:41:06Z</time></trkpt>
 <trkpt lat="52.047490800" lon="9.134881200"><ele>314</ele><time>2013-04-14T11:41:10Z</time></trkpt>
 <trkpt lat="52.047515800" lon="9.134790300"><ele>314</ele><time>2013-04-14T11:41:14Z</time></trkpt>
 <trkpt lat="52.047530700" lon="9.134697000"><ele>314</ele><time>2013-04-14T11:41:18Z</time></trkpt>
 <trkpt lat="52.047545300" lon="9.134614900"><ele>314</ele><time>2013-04-14T11:41:22Z</time></trkpt>
 <trkpt lat="52.047555700" lon="9.134542900"><ele>314</ele><time>2013-04-14T11:41:26Z</time></trkpt>
 <trkpt lat="52.047559900" lon="9.134477000"><ele>314</ele><time>2013-04-14T11:41:30Z</time></trkpt>
 <trkpt lat="52.047568300" lon="9.134403700"><ele>313</ele><time>2013-04-14T11:41:34Z</time></trkpt>
 <trkpt lat="52.047583300" lon="9.134321200"><ele>313</ele><time>2013-04-14T11:41:38Z</time></trkpt>
 <trkpt lat="52.047607900" lon="9.134225800"><ele>313</ele><time>2013-04-14T11:41:42Z</time></trkpt>
 <trkpt lat="52.047613300" lon="9.134146600"><ele>313</ele><time>2013-04-14T11:41:46Z</time></trkpt>
 <trkpt lat="52.047617900" lon="9.134077000"><ele>313</ele><time>2013-04-14T11:41:50Z</time></trkpt>
 <trkpt lat="52.047631200" lon="9.134016600"><ele>312</ele><time>2013-04-14T11:41:54Z</time></trkpt>
 <trkpt lat="52.047637400" lon="9.133944900"><ele>312</ele><time>2013-04-14T11:41:58Z</time></trkpt>
 <trkpt lat="52.047646600" lon="9.133869900"><ele>312</ele><time>2013-04-14T11:42:02Z</time></trkpt>
 <trkpt lat="52.047657400" lon="9.133798300"><ele>312</ele><time>2013-04-14T11:42:06Z</time></trkpt>
 <trkpt lat="52.047664500" lon="9.133730400"><ele>312</ele><time>2013-04-14T11:42:10Z</time></trkpt>
 <trkpt lat="52.047667800" lon="9.133655400"><ele>312</ele><time>2013-04-14T11:42:14Z</time></trkpt>
 <trkpt lat="52.047679100" lon="9.133576600"><ele>312</ele><time>2013-04-14T11:42:18Z</time></trkpt>
 <trkpt lat="52.047694100" lon="9.133508700"><ele>312</ele><time>2013-04-14T11:42:22Z</time></trkpt>
 <trkpt lat="52.047706600" lon="9.133434900"><ele>312</ele><time>2013-04-14T11:42:26Z</time></trkpt>
 <trkpt lat="52.047714900" lon="9.133367000"><ele>311</ele><time>2013-04-14T11:42:30Z</time></trkpt>
 <trkpt lat="52.047716200" lon="9.133274500"><ele>311</ele><time>2013-04-14T11:42:34Z</time></trkpt>
 <trkpt lat="52.047718300" lon="9.133186600"><ele>311</ele><time>2013-04-14T11:42:38Z</time></trkpt>
 <trkpt lat="52.047731200" lon="9.133097800"><ele>311</ele><time>2013-04-14T11:42:42Z</time></trkpt>
 <trkpt lat="52.047755400" lon="9.133016200"><ele>311</ele><time>2013-04-14T11:42:46Z</time></trkpt>
 <trkpt lat="52.047776600" lon="9.132947900"><ele>311</ele><time>2013-04-14T11:42:50Z</time></trkpt>
 <trkpt lat="52.047783300" lon="9.132885800"><ele>311</ele><time>2013-04-14T11:42:54Z</time></trkpt>
 <trkpt lat="52.047785400" lon="9.132812800"><ele>311</ele><time>2013-04-14T11:42:58Z</time></trkpt>
 <trkpt lat="52.047786600" lon="9.132747800"><ele>310</ele><time>2013-04-14T11:43:02Z</time></trkpt>
 <trkpt lat="52.047793700" lon="9.132670400"><ele>310</ele><time>2013-04-14T11:43:06Z</time></trkpt>
 <trkpt lat="52.047805800" lon="9.132601600"><ele>310</ele><time>2013-04-14T11:43:10Z</time></trkpt>
 <trkpt lat="52.047829500" lon="9.132525800"><ele>310</ele><time>2013-04-14T11:43:14Z</time></trkpt>
 <trkpt lat="52.047842500" lon="9.132479500"><ele>310</ele><time>2013-04-14T11:43:18Z</time></trkpt>
 <trkpt lat="52.047839100" lon="9.132455800"><ele>310</ele><time>2013-04-14T11:43:22Z</time></trkpt>
 <trkpt lat="52.047842400" lon="9.132437400"><ele>310</ele><time>2013-04-14T11:43:26Z</time></trkpt>
 <trkpt lat="52.047848700" lon="9.132390300"><ele>310</ele><time>2013-04-14T11:43:30Z</time></trkpt>
 <trkpt lat="52.047845800" lon="9.132350300"><ele>310</ele><time>2013-04-14T11:43:34Z</time></trkpt>
 <trkpt lat="52.047844100" lon="9.132341200"><ele>310</ele><time>2013-04-14T11:43:38Z</time></trkpt>
 <trkpt lat="52.047840800" lon="9.132329500"><ele>310</ele><time>2013-04-14T11:43:42Z</time></trkpt>
 <trkpt lat="52.047844500" lon="9.132280800"><ele>310</ele><time>2013-04-14T11:43:46Z</time></trkpt>
 <trkpt lat="52.047847000" lon="9.132210800"><ele>311</ele><time>2013-04-14T11:43:50Z</time></trkpt>
 <trkpt lat="52.047860300" lon="9.132131200"><ele>311</ele><time>2013-04-14T11:43:54Z</time></trkpt>
 <trkpt lat="52.047871200" lon="9.132065400"><ele>311</ele><time>2013-04-14T11:43:58Z</time></trkpt>
 <trkpt lat="52.047903700" lon="9.132016200"><ele>312</ele><time>2013-04-14T11:44:02Z</time></trkpt>
 <trkpt lat="52.047942000" lon="9.131960700"><ele>312</ele><time>2013-04-14T11:44:06Z</time></trkpt>
 <trkpt lat="52.047978700" lon="9.131911200"><ele>312</ele><time>2013-04-14T11:44:10Z</time></trkpt>
 <trkpt lat="52.048009100" lon="9.131844500"><ele>313</ele><time>2013-04-14T11:44:14Z</time></trkpt>
 <trkpt lat="52.048042400" lon="9.131792000"><ele>313</ele><time>2013-04-14T11:44:18Z</time></trkpt>
 <trkpt lat="52.048079900" lon="9.131757000"><ele>313</ele><time>2013-04-14T11:44:22Z</time></trkpt>
 <trkpt lat="52.048114900" lon="9.131733700"><ele>314</ele><time>2013-04-14T11:44:26Z</time></trkpt>
 <trkpt lat="52.048153700" lon="9.131698300"><ele>314</ele><time>2013-04-14T11:44:30Z</time></trkpt>
 <trkpt lat="52.048190800" lon="9.131657000"><ele>314</ele><time>2013-04-14T11:44:34Z</time></trkpt>
 <trkpt lat="52.048222000" lon="9.131603300"><ele>314</ele><time>2013-04-14T11:44:38Z</time></trkpt>
 <trkpt lat="52.048236600" lon="9.131539100"><ele>315</ele><time>2013-04-14T11:44:42Z</time></trkpt>
 <trkpt lat="52.048251200" lon="9.131475800"><ele>315</ele><time>2013-04-14T11:44:46Z</time></trkpt>
 <trkpt lat="52.048274500" lon="9.131420300"><ele>315</ele><time>2013-04-14T11:44:50Z</time></trkpt>
 <trkpt lat="52.048312900" lon="9.131359100"><ele>315</ele><time>2013-04-14T11:44:54Z</time></trkpt>
 <trkpt lat="52.048336200" lon="9.131285300"><ele>315</ele><time>2013-04-14T11:44:58Z</time></trkpt>
 <trkpt lat="52.048346600" lon="9.131209900"><ele>315</ele><time>2013-04-14T11:45:02Z</time></trkpt>
 <trkpt lat="52.048362000" lon="9.131142000"><ele>315</ele><time>2013-04-14T11:45:06Z</time></trkpt>
 <trkpt lat="52.048386600" lon="9.131074500"><ele>315</ele><time>2013-04-14T11:45:10Z</time></trkpt>
 <trkpt lat="52.048399900" lon="9.131019900"><ele>315</ele><time>2013-04-14T11:45:14Z</time></trkpt>
 <trkpt lat="52.048425700" lon="9.130947400"><ele>315</ele><time>2013-04-14T11:45:18Z</time></trkpt>
 <trkpt lat="52.048446600" lon="9.130867900"><ele>314</ele><time>2013-04-14T11:45:22Z</time></trkpt>
 <trkpt lat="52.048483700" lon="9.130777400"><ele>314</ele><time>2013-04-14T11:45:26Z</time></trkpt>
 <trkpt lat="52.048512800" lon="9.130708700"><ele>314</ele><time>2013-04-14T11:45:30Z</time></trkpt>
 <trkpt lat="52.048549100" lon="9.130637800"><ele>314</ele><time>2013-04-14T11:45:34Z</time></trkpt>
 <trkpt lat="52.048564100" lon="9.130565700"><ele>314</ele><time>2013-04-14T11:45:38Z</time></trkpt>
 <trkpt lat="52.048588300" lon="9.130499900"><ele>314</ele><time>2013-04-14T11:45:42Z</time></trkpt>
 <trkpt lat="52.048618300" lon="9.130429500"><ele>314</ele><time>2013-04-14T11:45:46Z</time></trkpt>
 <trkpt lat="52.048646200" lon="9.130371600"><ele>313</ele><time>2013-04-14T11:45:50Z</time></trkpt>
 <trkpt lat="52.048673700" lon="9.130297400"><ele>313</ele><time>2013-04-14T11:45:54Z</time></trkpt>
 <trkpt lat="52.048713300" lon="9.130227000"><ele>313</ele><time>2013-04-14T11:45:58Z</time></trkpt>
 <trkpt lat="52.048732800" lon="9.130142900"><ele>313</ele><time>2013-04-14T11:46:02Z</time></trkpt>
 <trkpt lat="52.048744900" lon="9.130057400"><ele>313</ele><time>2013-04-14T11:46:06Z</time></trkpt>
 <trkpt lat="52.048759100" lon="9.130004100"><ele>313</ele><time>2013-04-14T11:46:10Z</time></trkpt>
 <trkpt lat="52.048767800" lon="9.129937800"><ele>314</ele><time>2013-04-14T11:46:14Z</time></trkpt>
 <trkpt lat="52.048779900" lon="9.129863700"><ele>314</ele><time>2013-04-14T11:46:18Z</time></trkpt>
 <trkpt lat="52.048792800" lon="9.129807900"><ele>314</ele><time>2013-04-14T11:46:22Z</time></trkpt>
 <trkpt lat="52.048814900" lon="9.129730800"><ele>314</ele><time>2013-04-14T11:46:26Z</time></trkpt>
 <trkpt lat="52.048830800" lon="9.129652000"><ele>315</ele><time>2013-04-14T11:46:30Z</time></trkpt>
 <trkpt lat="52.048846600" lon="9.129581200"><ele>315</ele><time>2013-04-14T11:46:34Z</time></trkpt>
 <trkpt lat="52.048867800" lon="9.129507400"><ele>315</ele><time>2013-04-14T11:46:38Z</time></trkpt>
 <trkpt lat="52.048884500" lon="9.129427800"><ele>315</ele><time>2013-04-14T11:46:42Z</time></trkpt>
 <trkpt lat="52.048892400" lon="9.129343700"><ele>315</ele><time>2013-04-14T11:46:46Z</time></trkpt>
 <trkpt lat="52.048902400" lon="9.129279900"><ele>315</ele><time>2013-04-14T11:46:50Z</time></trkpt>
 <trkpt lat="52.048915300" lon="9.129202000"><ele>315</ele><time>2013-04-14T11:46:54Z</time></trkpt>
 <trkpt lat="52.048960300" lon="9.129097900"><ele>315</ele><time>2013-04-14T11:46:58Z</time></trkpt>
 <trkpt lat="52.049001200" lon="9.129003700"><ele>315</ele><time>2013-04-14T11:47:02Z</time></trkpt>
 <trkpt lat="52.049026600" lon="9.128917400"><ele>315</ele><time>2013-04-14T11:47:06Z</time></trkpt>
 <trkpt lat="52.049044100" lon="9.128835800"><ele>315</ele><time>2013-04-14T11:47:10Z</time></trkpt>
 <trkpt lat="52.049056200" lon="9.128772000"><ele>315</ele><time>2013-04-14T11:47:14Z</time></trkpt>
 <trkpt lat="52.049081600" lon="9.128700800"><ele>314</ele><time>2013-04-14T11:47:18Z</time></trkpt>
 <trkpt lat="52.049104900" lon="9.128624100"><ele>314</ele><time>2013-04-14T11:47:22Z</time></trkpt>
 <trkpt lat="52.049128300" lon="9.128539500"><ele>313</ele><time>2013-04-14T11:47:26Z</time></trkpt>
 <trkpt lat="52.049142400" lon="9.128451200"><ele>312</ele><time>2013-04-14T11:47:30Z</time></trkpt>
 <trkpt lat="52.049161600" lon="9.128366200"><ele>312</ele><time>2013-04-14T11:47:34Z</time></trkpt>
 <trkpt lat="52.049177000" lon="9.128294500"><ele>311</ele><time>2013-04-14T11:47:38Z</time></trkpt>
 <trkpt lat="52.049178700" lon="9.128227400"><ele>310</ele><time>2013-04-14T11:47:42Z</time></trkpt>
 <trkpt lat="52.049179900" lon="9.128157400"><ele>309</ele><time>2013-04-14T11:47:46Z</time></trkpt>
 <trkpt lat="52.049187400" lon="9.128083300"><ele>308</ele><time>2013-04-14T11:47:50Z</time></trkpt>
 <trkpt lat="52.049186600" lon="9.128010800"><ele>307</ele><time>2013-04-14T11:47:54Z</time></trkpt>
 <trkpt lat="52.049202000" lon="9.127949900"><ele>306</ele><time>2013-04-14T11:47:58Z</time></trkpt>
 <trkpt lat="52.049210800" lon="9.127893300"><ele>304</ele><time>2013-04-14T11:48:02Z</time></trkpt>
 <trkpt lat="52.049205300" lon="9.127817400"><ele>303</ele><time>2013-04-14T11:48:06Z</time></trkpt>
 <trkpt lat="52.049200400" lon="9.127739100"><ele>302</ele><time>2013-04-14T11:48:10Z</time></trkpt>
 <trkpt lat="52.049201600" lon="9.127666200"><ele>301</ele><time>2013-04-14T11:48:14Z</time></trkpt>
 <trkpt lat="52.049197800" lon="9.127577800"><ele>300</ele><time>2013-04-14T11:48:18Z</time></trkpt>
 <trkpt lat="52.049193700" lon="9.127510400"><ele>299</ele><time>2013-04-14T11:48:22Z</time></trkpt>
 <trkpt lat="52.049186200" lon="9.127432900"><ele>298</ele><time>2013-04-14T11:48:26Z</time></trkpt>
 <trkpt lat="52.049180400" lon="9.127356600"><ele>297</ele><time>2013-04-14T11:48:30Z</time></trkpt>
 <trkpt lat="52.049168300" lon="9.127285800"><ele>296</ele><time>2013-04-14T11:48:34Z</time></trkpt>
 <trkpt lat="52.049161600" lon="9.127184500"><ele>295</ele><time>2013-04-14T11:48:38Z</time></trkpt>
 <trkpt lat="52.049157800" lon="9.127109100"><ele>295</ele><time>2013-04-14T11:48:42Z</time></trkpt>
 <trkpt lat="52.049155300" lon="9.127035800"><ele>294</ele><time>2013-04-14T11:48:46Z</time></trkpt>
 <trkpt lat="52.049144500" lon="9.126982000"><ele>294</ele><time>2013-04-14T11:48:50Z</time></trkpt>
 <trkpt lat="52.049127800" lon="9.126913300"><ele>294</ele><time>2013-04-14T11:48:54Z</time></trkpt>
 <trkpt lat="52.049117400" lon="9.126838300"><ele>293</ele><time>2013-04-14T11:48:58Z</time></trkpt>
 <trkpt lat="52.049102400" lon="9.126743300"><ele>293</ele><time>2013-04-14T11:49:02Z</time></trkpt>
 <trkpt lat="52.049095800" lon="9.126684500"><ele>293</ele><time>2013-04-14T11:49:06Z</time></trkpt>
 <trkpt lat="52.049091600" lon="9.126675400"><ele>293</ele><time>2013-04-14T11:49:10Z</time></trkpt>
 <trkpt lat="52.049091600" lon="9.126675400"><ele>293</ele><time>2013-04-14T11:49:14Z</time></trkpt>
 <trkpt lat="52.049092800" lon="9.126665300"><ele>293</ele><time>2013-04-14T11:49:18Z</time></trkpt>
 <trkpt lat="52.049097400" lon="9.126672000"><ele>293</ele><time>2013-04-14T11:49:22Z</time></trkpt>
 <trkpt lat="52.049102400" lon="9.126678700"><ele>294</ele><time>2013-04-14T11:49:26Z</time></trkpt>
 <trkpt lat="52.049108700" lon="9.126679500"><ele>294</ele><time>2013-04-14T11:49:30Z</time></trkpt>
 <trkpt lat="52.049108700" lon="9.126679500"><ele>294</ele><time>2013-04-14T11:49:34Z</time></trkpt>
 <trkpt lat="52.049102800" lon="9.126684100"><ele>294</ele><time>2013-04-14T11:49:38Z</time></trkpt>
 <trkpt lat="52.049102800" lon="9.126684100"><ele>294</ele><time>2013-04-14T11:49:42Z</time></trkpt>
 <trkpt lat="52.049102800" lon="9.126684100"><ele>294</ele><time>2013-04-14T11:49:46Z</time></trkpt>
 <trkpt lat="52.049108700" lon="9.126683300"><ele>295</ele><time>2013-04-14T11:49:50Z</time></trkpt>
 <trkpt lat="52.049108700" lon="9.126683300"><ele>295</ele><time>2013-04-14T11:49:54Z</time></trkpt>
 <trkpt lat="52.049108700" lon="9.126683300"><ele>295</ele><time>2013-04-14T11:49:58Z</time></trkpt>
 <trkpt lat="52.049108700" lon="9.126683300"><ele>295</ele><time>2013-04-14T11:50:02Z</time></trkpt>
 <trkpt lat="52.049108700" lon="9.126683300"><ele>295</ele><time>2013-04-14T11:50:06Z</time></trkpt>
 <trkpt lat="52.049103300" lon="9.126681600"><ele>295</ele><time>2013-04-14T11:50:10Z</time></trkpt>
 <trkpt lat="52.049103300" lon="9.126681600"><ele>295</ele><time>2013-04-14T11:50:14Z</time></trkpt>
 <trkpt lat="52.049103300" lon="9.126681600"><ele>295</ele><time>2013-04-14T11:50:18Z</time></trkpt>
 <trkpt lat="52.049103300" lon="9.126681600"><ele>295</ele><time>2013-04-14T11:50:22Z</time></trkpt>
 <trkpt lat="52.049103300" lon="9.126681600"><ele>295</ele><time>2013-04-14T11:50:26Z</time></trkpt>
 <trkpt lat="52.049097800" lon="9.126685400"><ele>295</ele><time>2013-04-14T11:50:30Z</time></trkpt>
 <trkpt lat="52.049097800" lon="9.126685400"><ele>295</ele><time>2013-04-14T11:50:34Z</time></trkpt>
 <trkpt lat="52.049097800" lon="9.126685400"><ele>294</ele><time>2013-04-14T11:50:38Z</time></trkpt>
 <trkpt lat="52.049097800" lon="9.126685400"><ele>294</ele><time>2013-04-14T11:50:42Z</time></trkpt>
 <trkpt lat="52.049097800" lon="9.126685400"><ele>294</ele><time>2013-04-14T11:50:46Z</time></trkpt>
 <trkpt lat="52.049097800" lon="9.126685400"><ele>294</ele><time>2013-04-14T11:50:50Z</time></trkpt>
 <trkpt lat="52.049097800" lon="9.126685400"><ele>294</ele><time>2013-04-14T11:50:54Z</time></trkpt>
 <trkpt lat="52.049097800" lon="9.126685400"><ele>294</ele><time>2013-04-14T11:50:58Z</time></trkpt>
 <trkpt lat="52.049097800" lon="9.126685400"><ele>294</ele><time>2013-04-14T11:51:02Z</time></trkpt>
 <trkpt lat="52.049097800" lon="9.126685400"><ele>294</ele><time>2013-04-14T11:51:06Z</time></trkpt>
 <trkpt lat="52.049097800" lon="9.126685400"><ele>294</ele><time>2013-04-14T11:51:10Z</time></trkpt>
 <trkpt lat="52.049097800" lon="9.126685400"><ele>294</ele><time>2013-04-14T11:51:14Z</time></trkpt>
 <trkpt lat="52.049097800" lon="9.126685400"><ele>294</ele><time>2013-04-14T11:51:18Z</time></trkpt>
 <trkpt lat="52.049097800" lon="9.126685400"><ele>294</ele><time>2013-04-14T11:51:22Z</time></trkpt>
 <trkpt lat="52.049097800" lon="9.126685400"><ele>294</ele><time>2013-04-14T11:51:26Z</time></trkpt>
 <trkpt lat="52.049097800" lon="9.126685400"><ele>294</ele><time>2013-04-14T11:51:30Z</time></trkpt>
 <trkpt lat="52.049097800" lon="9.126685400"><ele>294</ele><time>2013-04-14T11:51:34Z</time></trkpt>
 <trkpt lat="52.049097800" lon="9.126685400"><ele>294</ele><time>2013-04-14T11:51:38Z</time></trkpt>
 <trkpt lat="52.049097800" lon="9.126685400"><ele>294</ele><time>2013-04-14T11:51:42Z</time></trkpt>
 <trkpt lat="52.049097800" lon="9.126685400"><ele>294</ele><time>2013-04-14T11:51:46Z</time></trkpt>
 <trkpt lat="52.049097800" lon="9.126685400"><ele>294</ele><time>2013-04-14T11:51:50Z</time></trkpt>
 <trkpt lat="52.049092400" lon="9.126682800"><ele>294</ele><time>2013-04-14T11:51:54Z</time></trkpt>
 <trkpt lat="52.049092400" lon="9.126682800"><ele>294</ele><time>2013-04-14T11:51:58Z</time></trkpt>
 <trkpt lat="52.049092400" lon="9.126682800"><ele>294</ele><time>2013-04-14T11:52:02Z</time></trkpt>
 <trkpt lat="52.049092400" lon="9.126682800"><ele>294</ele><time>2013-04-14T11:52:06Z</time></trkpt>
 <trkpt lat="52.049092400" lon="9.126682800"><ele>294</ele><time>2013-04-14T11:52:10Z</time></trkpt>
 <trkpt lat="52.049092400" lon="9.126682800"><ele>294</ele><time>2013-04-14T11:52:14Z</time></trkpt>
 <trkpt lat="52.049092400" lon="9.126682800"><ele>294</ele><time>2013-04-14T11:52:18Z</time></trkpt>
 <trkpt lat="52.049092400" lon="9.126682800"><ele>294</ele><time>2013-04-14T11:52:22Z</time></trkpt>
 <trkpt lat="52.049092400" lon="9.126682800"><ele>294</ele><time>2013-04-14T11:52:26Z</time></trkpt>
 <trkpt lat="52.049092400" lon="9.126682800"><ele>294</ele><time>2013-04-14T11:52:30Z</time></trkpt>
 <trkpt lat="52.049092400" lon="9.126682800"><ele>294</ele><time>2013-04-14T11:52:34Z</time></trkpt>
 <trkpt lat="52.049092400" lon="9.126682800"><ele>294</ele><time>2013-04-14T11:52:38Z</time></trkpt>
 <trkpt lat="52.049092400" lon="9.126682800"><ele>294</ele><time>2013-04-14T11:52:42Z</time></trkpt>
 <trkpt lat="52.049092400" lon="9.126682800"><ele>294</ele><time>2013-04-14T11:52:46Z</time></trkpt>
 <trkpt lat="52.049092400" lon="9.126682800"><ele>295</ele><time>2013-04-14T11:52:50Z</time></trkpt>
 <trkpt lat="52.049092400" lon="9.126682800"><ele>295</ele><time>2013-04-14T11:52:54Z</time></trkpt>
 <trkpt lat="52.049092400" lon="9.126682800"><ele>295</ele><time>2013-04-14T11:52:58Z</time></trkpt>
 <trkpt lat="52.049092400" lon="9.126682800"><ele>295</ele><time>2013-04-14T11:53:02Z</time></trkpt>
 <trkpt lat="52.049092400" lon="9.126682800"><ele>295</ele><time>2013-04-14T11:53:06Z</time></trkpt>
 <trkpt lat="52.049092400" lon="9.126682800"><ele>295</ele><time>2013-04-14T11:53:10Z</time></trkpt>
 <trkpt lat="52.049092400" lon="9.126682800"><ele>295</ele><time>2013-04-14T11:53:14Z</time></trkpt>
 <trkpt lat="52.049092400" lon="9.126682800"><ele>295</ele><time>2013-04-14T11:53:18Z</time></trkpt>
 <trkpt lat="52.049092400" lon="9.126682800"><ele>294</ele><time>2013-04-14T11:53:22Z</time></trkpt>
 <trkpt lat="52.049092400" lon="9.126682800"><ele>294</ele><time>2013-04-14T11:53:26Z</time></trkpt>
 <trkpt lat="52.049092400" lon="9.126682800"><ele>294</ele><time>2013-04-14T11:53:30Z</time></trkpt>
 <trkpt lat="52.049092400" lon="9.126682800"><ele>294</ele><time>2013-04-14T11:53:34Z</time></trkpt>
 <trkpt lat="52.049092400" lon="9.126682800"><ele>294</ele><time>2013-04-14T11:53:38Z</time></trkpt>
 <trkpt lat="52.049092400" lon="9.126682800"><ele>294</ele><time>2013-04-14T11:53:42Z</time></trkpt>
 <trkpt lat="52.049092400" lon="9.126682800"><ele>294</ele><time>2013-04-14T11:53:46Z</time></trkpt>
 <trkpt lat="52.049086600" lon="9.126677800"><ele>294</ele><time>2013-04-14T11:53:50Z</time></trkpt>
 <trkpt lat="52.049086600" lon="9.126677800"><ele>294</ele><time>2013-04-14T11:53:54Z</time></trkpt>
 <trkpt lat="52.049086600" lon="9.126677800"><ele>294</ele><time>2013-04-14T11:53:58Z</time></trkpt>
 <trkpt lat="52.049098300" lon="9.126647000"><ele>294</ele><time>2013-04-14T11:54:02Z</time></trkpt>
 <trkpt lat="52.049098300" lon="9.126647000"><ele>294</ele><time>2013-04-14T11:54:06Z</time></trkpt>
 <trkpt lat="52.049098300" lon="9.126647000"><ele>294</ele><time>2013-04-14T11:54:10Z</time></trkpt>
 <trkpt lat="52.049098300" lon="9.126647000"><ele>294</ele><time>2013-04-14T11:54:14Z</time></trkpt>
 <trkpt lat="52.049102000" lon="9.126637000"><ele>294</ele><time>2013-04-14T11:54:18Z</time></trkpt>
 <trkpt lat="52.049094100" lon="9.126590300"><ele>294</ele><time>2013-04-14T11:54:22Z</time></trkpt>
 <trkpt lat="52.049083300" lon="9.126524900"><ele>294</ele><time>2013-04-14T11:54:26Z</time></trkpt>
 <trkpt lat="52.049066600" lon="9.126455800"><ele>294</ele><time>2013-04-14T11:54:30Z</time></trkpt>
 <trkpt lat="52.049054500" lon="9.126388300"><ele>295</ele><time>2013-04-14T11:54:34Z</time></trkpt>
 <trkpt lat="52.049036600" lon="9.126319500"><ele>295</ele><time>2013-04-14T11:54:38Z</time></trkpt>
 <trkpt lat="52.049019500" lon="9.126252800"><ele>295</ele><time>2013-04-14T11:54:42Z</time></trkpt>
 <trkpt lat="52.049004900" lon="9.126178700"><ele>295</ele><time>2013-04-14T11:54:46Z</time></trkpt>
 <trkpt lat="52.048991200" lon="9.126103300"><ele>295</ele><time>2013-04-14T11:54:50Z</time></trkpt>
 <trkpt lat="52.048973700" lon="9.126023300"><ele>295</ele><time>2013-04-14T11:54:54Z</time></trkpt>
 <trkpt lat="52.048950700" lon="9.125934900"><ele>295</ele><time>2013-04-14T11:54:58Z</time></trkpt>
 <trkpt lat="52.048932000" lon="9.125852400"><ele>296</ele><time>2013-04-14T11:55:02Z</time></trkpt>
 <trkpt lat="52.048915300" lon="9.125779900"><ele>296</ele><time>2013-04-14T11:55:06Z</time></trkpt>
 <trkpt lat="52.048905300" lon="9.125719100"><ele>296</ele><time>2013-04-14T11:55:10Z</time></trkpt>
 <trkpt lat="52.048893700" lon="9.125652000"><ele>296</ele><time>2013-04-14T11:55:14Z</time></trkpt>
 <trkpt lat="52.048877800" lon="9.125583300"><ele>297</ele><time>2013-04-14T11:55:18Z</time></trkpt>
 <trkpt lat="52.048857000" lon="9.125514100"><ele>297</ele><time>2013-04-14T11:55:22Z</time></trkpt>
 <trkpt lat="52.048841600" lon="9.125436200"><ele>297</ele><time>2013-04-14T11:55:26Z</time></trkpt>
 <trkpt lat="52.048834500" lon="9.125355300"><ele>297</ele><time>2013-04-14T11:55:30Z</time></trkpt>
 <trkpt lat="52.048818700" lon="9.125329100"><ele>298</ele><time>2013-04-14T11:55:34Z</time></trkpt>
 <trkpt lat="52.048813200" lon="9.125310300"><ele>298</ele><time>2013-04-14T11:55:38Z</time></trkpt>
 <trkpt lat="52.048796200" lon="9.125237000"><ele>298</ele><time>2013-04-14T11:55:42Z</time></trkpt>
 <trkpt lat="52.048775800" lon="9.125160700"><ele>298</ele><time>2013-04-14T11:55:46Z</time></trkpt>
 <trkpt lat="52.048762800" lon="9.125085800"><ele>299</ele><time>2013-04-14T11:55:50Z</time></trkpt>
 <trkpt lat="52.048748700" lon="9.125014500"><ele>299</ele><time>2013-04-14T11:55:54Z</time></trkpt>
 <trkpt lat="52.048735300" lon="9.124934100"><ele>299</ele><time>2013-04-14T11:55:58Z</time></trkpt>
 <trkpt lat="52.048715700" lon="9.124854500"><ele>299</ele><time>2013-04-14T11:56:02Z</time></trkpt>
 <trkpt lat="52.048702800" lon="9.124780000"><ele>299</ele><time>2013-04-14T11:56:06Z</time></trkpt>
 <trkpt lat="52.048687000" lon="9.124707400"><ele>299</ele><time>2013-04-14T11:56:10Z</time></trkpt>
 <trkpt lat="52.048669100" lon="9.124634900"><ele>299</ele><time>2013-04-14T11:56:14Z</time></trkpt>
 <trkpt lat="52.048651600" lon="9.124567800"><ele>299</ele><time>2013-04-14T11:56:18Z</time></trkpt>
 <trkpt lat="52.048631200" lon="9.124491600"><ele>299</ele><time>2013-04-14T11:56:22Z</time></trkpt>
 <trkpt lat="52.048614900" lon="9.124411200"><ele>299</ele><time>2013-04-14T11:56:26Z</time></trkpt>
 <trkpt lat="52.048601600" lon="9.124338700"><ele>300</ele><time>2013-04-14T11:56:30Z</time></trkpt>
 <trkpt lat="52.048589900" lon="9.124267000"><ele>300</ele><time>2013-04-14T11:56:34Z</time></trkpt>
 <trkpt lat="52.048572400" lon="9.124186200"><ele>300</ele><time>2013-04-14T11:56:38Z</time></trkpt>
 <trkpt lat="52.048552900" lon="9.124120700"><ele>300</ele><time>2013-04-14T11:56:42Z</time></trkpt>
 <trkpt lat="52.048537000" lon="9.124055800"><ele>300</ele><time>2013-04-14T11:56:46Z</time></trkpt>
 <trkpt lat="52.048519100" lon="9.123987800"><ele>300</ele><time>2013-04-14T11:56:50Z</time></trkpt>
 <trkpt lat="52.048503300" lon="9.123919500"><ele>300</ele><time>2013-04-14T11:56:54Z</time></trkpt>
 <trkpt lat="52.048486600" lon="9.123852800"><ele>300</ele><time>2013-04-14T11:56:58Z</time></trkpt>
 <trkpt lat="52.048477800" lon="9.123779100"><ele>301</ele><time>2013-04-14T11:57:02Z</time></trkpt>
 <trkpt lat="52.048468700" lon="9.123709900"><ele>301</ele><time>2013-04-14T11:57:06Z</time></trkpt>
 <trkpt lat="52.048456200" lon="9.123638300"><ele>301</ele><time>2013-04-14T11:57:10Z</time></trkpt>
 <trkpt lat="52.048442000" lon="9.123572400"><ele>301</ele><time>2013-04-14T11:57:14Z</time></trkpt>
 <trkpt lat="52.048439500" lon="9.123492900"><ele>301</ele><time>2013-04-14T11:57:18Z</time></trkpt>
 <trkpt lat="52.048436600" lon="9.123408700"><ele>301</ele><time>2013-04-14T11:57:22Z</time></trkpt>
 <trkpt lat="52.048427400" lon="9.123333300"><ele>302</ele><time>2013-04-14T11:57:26Z</time></trkpt>
 <trkpt lat="52.048419100" lon="9.123259100"><ele>302</ele><time>2013-04-14T11:57:30Z</time></trkpt>
 <trkpt lat="52.048418700" lon="9.123191600"><ele>302</ele><time>2013-04-14T11:57:34Z</time></trkpt>
 <trkpt lat="52.048413300" lon="9.123124100"><ele>302</ele><time>2013-04-14T11:57:38Z</time></trkpt>
 <trkpt lat="52.048405300" lon="9.123044500"><ele>302</ele><time>2013-04-14T11:57:42Z</time></trkpt>
 <trkpt lat="52.048396200" lon="9.122971200"><ele>302</ele><time>2013-04-14T11:57:46Z</time></trkpt>
 <trkpt lat="52.048388700" lon="9.122904900"><ele>302</ele><time>2013-04-14T11:57:50Z</time></trkpt>
 <trkpt lat="52.048378700" lon="9.122830000"><ele>302</ele><time>2013-04-14T11:57:54Z</time></trkpt>
 <trkpt lat="52.048374100" lon="9.122755800"><ele>302</ele><time>2013-04-14T11:57:58Z</time></trkpt>
 <trkpt lat="52.048374900" lon="9.122686200"><ele>303</ele><time>2013-04-14T11:58:02Z</time></trkpt>
 <trkpt lat="52.048376200" lon="9.122592000"><ele>303</ele><time>2013-04-14T11:58:06Z</time></trkpt>
 <trkpt lat="52.048373300" lon="9.122500800"><ele>303</ele><time>2013-04-14T11:58:10Z</time></trkpt>
 <trkpt lat="52.048369500" lon="9.122427800"><ele>303</ele><time>2013-04-14T11:58:14Z</time></trkpt>
 <trkpt lat="52.048362800" lon="9.122341600"><ele>304</ele><time>2013-04-14T11:58:18Z</time></trkpt>
 <trkpt lat="52.048363200" lon="9.122273700"><ele>304</ele><time>2013-04-14T11:58:22Z</time></trkpt>
 <trkpt lat="52.048373300" lon="9.122197900"><ele>304</ele><time>2013-04-14T11:58:26Z</time></trkpt>
 <trkpt lat="52.048382800" lon="9.122126200"><ele>305</ele><time>2013-04-14T11:58:30Z</time></trkpt>
 <trkpt lat="52.048392400" lon="9.122058200"><ele>305</ele><time>2013-04-14T11:58:34Z</time></trkpt>
 <trkpt lat="52.048404900" lon="9.121989100"><ele>305</ele><time>2013-04-14T11:58:38Z</time></trkpt>
 <trkpt lat="52.048432400" lon="9.121935400"><ele>306</ele><time>2013-04-14T11:58:42Z</time></trkpt>
 <trkpt lat="52.048459100" lon="9.121892400"><ele>306</ele><time>2013-04-14T11:58:46Z</time></trkpt>
 <trkpt lat="52.048490700" lon="9.121849100"><ele>307</ele><time>2013-04-14T11:58:50Z</time></trkpt>
 <trkpt lat="52.048521200" lon="9.121803700"><ele>307</ele><time>2013-04-14T11:58:54Z</time></trkpt>
 <trkpt lat="52.048555800" lon="9.121757500"><ele>307</ele><time>2013-04-14T11:58:58Z</time></trkpt>
 <trkpt lat="52.048590800" lon="9.121714100"><ele>308</ele><time>2013-04-14T11:59:02Z</time></trkpt>
 <trkpt lat="52.048609100" lon="9.121692900"><ele>308</ele><time>2013-04-14T11:59:06Z</time></trkpt>
 <trkpt lat="52.048632800" lon="9.121672000"><ele>308</ele><time>2013-04-14T11:59:10Z</time></trkpt>
 <trkpt lat="52.048644100" lon="9.121662400"><ele>308</ele><time>2013-04-14T11:59:14Z</time></trkpt>
 <trkpt lat="52.048658700" lon="9.121652800"><ele>309</ele><time>2013-04-14T11:59:18Z</time></trkpt>
 <trkpt lat="52.048681200" lon="9.121619100"><ele>309</ele><time>2013-04-14T11:59:22Z</time></trkpt>
 <trkpt lat="52.048698700" lon="9.121589900"><ele>309</ele><time>2013-04-14T11:59:26Z</time></trkpt>
 <trkpt lat="52.048713300" lon="9.121561200"><ele>309</ele><time>2013-04-14T11:59:30Z</time></trkpt>
 <trkpt lat="52.048709900" lon="9.121554100"><ele>309</ele><time>2013-04-14T11:59:34Z</time></trkpt>
 <trkpt lat="52.048706600" lon="9.121544900"><ele>309</ele><time>2013-04-14T11:59:38Z</time></trkpt>
 <trkpt lat="52.048712800" lon="9.121530800"><ele>309</ele><time>2013-04-14T11:59:42Z</time></trkpt>
 <trkpt lat="52.048736200" lon="9.121499900"><ele>309</ele><time>2013-04-14T11:59:46Z</time></trkpt>
 <trkpt lat="52.048767000" lon="9.121456200"><ele>309</ele><time>2013-04-14T11:59:50Z</time></trkpt>
 <trkpt lat="52.048798700" lon="9.121400300"><ele>309</ele><time>2013-04-14T11:59:54Z</time></trkpt>
 <trkpt lat="52.048827000" lon="9.121346200"><ele>309</ele><time>2013-04-14T11:59:58Z</time></trkpt>
 <trkpt lat="52.048855800" lon="9.121305300"><ele>309</ele><time>2013-04-14T12:00:02Z</time></trkpt>
 <trkpt lat="52.048884100" lon="9.121238300"><ele>309</ele><time>2013-04-14T12:00:06Z</time></trkpt>
 <trkpt lat="52.048914900" lon="9.121182000"><ele>310</ele><time>2013-04-14T12:00:10Z</time></trkpt>
 <trkpt lat="52.048953200" lon="9.121134500"><ele>310</ele><time>2013-04-14T12:00:14Z</time></trkpt>
 <trkpt lat="52.048977400" lon="9.121087000"><ele>310</ele><time>2013-04-14T12:00:18Z</time></trkpt>
 <trkpt lat="52.049011600" lon="9.121028700"><ele>310</ele><time>2013-04-14T12:00:22Z</time></trkpt>
 <trkpt lat="52.049035800" lon="9.120989900"><ele>310</ele><time>2013-04-14T12:00:26Z</time></trkpt>
 <trkpt lat="52.049068700" lon="9.120937400"><ele>311</ele><time>2013-04-14T12:00:30Z</time></trkpt>
 <trkpt lat="52.049101200" lon="9.120879500"><ele>311</ele><time>2013-04-14T12:00:34Z</time></trkpt>
 <trkpt lat="52.049133300" lon="9.120819900"><ele>311</ele><time>2013-04-14T12:00:38Z</time></trkpt>
 <trkpt lat="52.049168200" lon="9.120754100"><ele>311</ele><time>2013-04-14T12:00:42Z</time></trkpt>
 <trkpt lat="52.049200800" lon="9.120702800"><ele>311</ele><time>2013-04-14T12:00:46Z</time></trkpt>
 <trkpt lat="52.049238700" lon="9.120639500"><ele>312</ele><time>2013-04-14T12:00:50Z</time></trkpt>
 <trkpt lat="52.049275300" lon="9.120572000"><ele>312</ele><time>2013-04-14T12:00:54Z</time></trkpt>
 <trkpt lat="52.049308700" lon="9.120508700"><ele>312</ele><time>2013-04-14T12:00:58Z</time></trkpt>
 <trkpt lat="52.049344500" lon="9.120447000"><ele>312</ele><time>2013-04-14T12:01:02Z</time></trkpt>
 <trkpt lat="52.049374500" lon="9.120389500"><ele>313</ele><time>2013-04-14T12:01:06Z</time></trkpt>
 <trkpt lat="52.049407400" lon="9.120332800"><ele>313</ele><time>2013-04-14T12:01:10Z</time></trkpt>
 <trkpt lat="52.049429500" lon="9.120276600"><ele>313</ele><time>2013-04-14T12:01:14Z</time></trkpt>
 <trkpt lat="52.049459100" lon="9.120233300"><ele>313</ele><time>2013-04-14T12:01:18Z</time></trkpt>
 <trkpt lat="52.049481600" lon="9.120186600"><ele>313</ele><time>2013-04-14T12:01:22Z</time></trkpt>
 <trkpt lat="52.049506600" lon="9.120122000"><ele>314</ele><time>2013-04-14T12:01:26Z</time></trkpt>
 <trkpt lat="52.049534900" lon="9.120058700"><ele>314</ele><time>2013-04-14T12:01:30Z</time></trkpt>
 <trkpt lat="52.049576600" lon="9.120002400"><ele>314</ele><time>2013-04-14T12:01:34Z</time></trkpt>
 <trkpt lat="52.049616200" lon="9.119941600"><ele>314</ele><time>2013-04-14T12:01:38Z</time></trkpt>
 <trkpt lat="52.049650800" lon="9.119882800"><ele>315</ele><time>2013-04-14T12:01:42Z</time></trkpt>
 <trkpt lat="52.049679900" lon="9.119843700"><ele>315</ele><time>2013-04-14T12:01:46Z</time></trkpt>
 <trkpt lat="52.049726200" lon="9.119796600"><ele>315</ele><time>2013-04-14T12:01:50Z</time></trkpt>
 <trkpt lat="52.049759100" lon="9.119742000"><ele>315</ele><time>2013-04-14T12:01:54Z</time></trkpt>
 <trkpt lat="52.049786600" lon="9.119684100"><ele>316</ele><time>2013-04-14T12:01:58Z</time></trkpt>
 <trkpt lat="52.049822800" lon="9.119631200"><ele>316</ele><time>2013-04-14T12:02:02Z</time></trkpt>
 <trkpt lat="52.049848300" lon="9.119568700"><ele>316</ele><time>2013-04-14T12:02:06Z</time></trkpt>
 <trkpt lat="52.049869500" lon="9.119522000"><ele>316</ele><time>2013-04-14T12:02:10Z</time></trkpt>
 <trkpt lat="52.049896200" lon="9.119478300"><ele>317</ele><time>2013-04-14T12:02:14Z</time></trkpt>
 <trkpt lat="52.049912800" lon="9.119427400"><ele>317</ele><time>2013-04-14T12:02:18Z</time></trkpt>
 <trkpt lat="52.049939900" lon="9.119377000"><ele>317</ele><time>2013-04-14T12:02:22Z</time></trkpt>
 <trkpt lat="52.049959100" lon="9.119337900"><ele>318</ele><time>2013-04-14T12:02:26Z</time></trkpt>
 <trkpt lat="52.049977900" lon="9.119296200"><ele>318</ele><time>2013-04-14T12:02:30Z</time></trkpt>
 <trkpt lat="52.050004100" lon="9.119249100"><ele>318</ele><time>2013-04-14T12:02:34Z</time></trkpt>
 <trkpt lat="52.050034100" lon="9.119172400"><ele>318</ele><time>2013-04-14T12:02:38Z</time></trkpt>
 <trkpt lat="52.050062400" lon="9.119125700"><ele>319</ele><time>2013-04-14T12:02:42Z</time></trkpt>
 <trkpt lat="52.050110300" lon="9.119093300"><ele>319</ele><time>2013-04-14T12:02:46Z</time></trkpt>
 <trkpt lat="52.050136200" lon="9.119057000"><ele>319</ele><time>2013-04-14T12:02:50Z</time></trkpt>
 <trkpt lat="52.050161200" lon="9.119019100"><ele>320</ele><time>2013-04-14T12:02:54Z</time></trkpt>
 <trkpt lat="52.050191600" lon="9.118980800"><ele>320</ele><time>2013-04-14T12:02:58Z</time></trkpt>
 <trkpt lat="52.050217800" lon="9.118932400"><ele>320</ele><time>2013-04-14T12:03:02Z</time></trkpt>
 <trkpt lat="52.050241600" lon="9.118876200"><ele>321</ele><time>2013-04-14T12:03:06Z</time></trkpt>
 <trkpt lat="52.050262000" lon="9.118812000"><ele>321</ele><time>2013-04-14T12:03:10Z</time></trkpt>
 <trkpt lat="52.050289100" lon="9.118754100"><ele>321</ele><time>2013-04-14T12:03:14Z</time></trkpt>
 <trkpt lat="52.050317400" lon="9.118691200"><ele>321</ele><time>2013-04-14T12:03:18Z</time></trkpt>
 <trkpt lat="52.050354500" lon="9.118633300"><ele>321</ele><time>2013-04-14T12:03:22Z</time></trkpt>
 <trkpt lat="52.050393300" lon="9.118587400"><ele>321</ele><time>2013-04-14T12:03:26Z</time></trkpt>
 <trkpt lat="52.050431600" lon="9.118520800"><ele>321</ele><time>2013-04-14T12:03:30Z</time></trkpt>
 <trkpt lat="52.050465800" lon="9.118468300"><ele>322</ele><time>2013-04-14T12:03:34Z</time></trkpt>
 <trkpt lat="52.050494500" lon="9.118414500"><ele>322</ele><time>2013-04-14T12:03:38Z</time></trkpt>
 <trkpt lat="52.050520800" lon="9.118366600"><ele>322</ele><time>2013-04-14T12:03:42Z</time></trkpt>
 <trkpt lat="52.050552800" lon="9.118317000"><ele>322</ele><time>2013-04-14T12:03:46Z</time></trkpt>
 <trkpt lat="52.050589500" lon="9.118257000"><ele>322</ele><time>2013-04-14T12:03:50Z</time></trkpt>
 <trkpt lat="52.050619500" lon="9.118181200"><ele>322</ele><time>2013-04-14T12:03:54Z</time></trkpt>
 <trkpt lat="52.050655300" lon="9.118110800"><ele>322</ele><time>2013-04-14T12:03:58Z</time></trkpt>
 <trkpt lat="52.050682000" lon="9.118059100"><ele>322</ele><time>2013-04-14T12:04:02Z</time></trkpt>
 <trkpt lat="52.050704900" lon="9.118012400"><ele>322</ele><time>2013-04-14T12:04:06Z</time></trkpt>
 <trkpt lat="52.050722400" lon="9.117962800"><ele>323</ele><time>2013-04-14T12:04:10Z</time></trkpt>
 <trkpt lat="52.050742500" lon="9.117923700"><ele>323</ele><time>2013-04-14T12:04:14Z</time></trkpt>
 <trkpt lat="52.050760300" lon="9.117882400"><ele>323</ele><time>2013-04-14T12:04:18Z</time></trkpt>
 <trkpt lat="52.050786200" lon="9.117825800"><ele>324</ele><time>2013-04-14T12:04:22Z</time></trkpt>
 <trkpt lat="52.050813700" lon="9.117782400"><ele>324</ele><time>2013-04-14T12:04:26Z</time></trkpt>
 <trkpt lat="52.050838700" lon="9.117735800"><ele>324</ele><time>2013-04-14T12:04:30Z</time></trkpt>
 <trkpt lat="52.050868700" lon="9.117677800"><ele>325</ele><time>2013-04-14T12:04:34Z</time></trkpt>
 <trkpt lat="52.050897000" lon="9.117620300"><ele>325</ele><time>2013-04-14T12:04:38Z</time></trkpt>
 <trkpt lat="52.050923300" lon="9.117570300"><ele>326</ele><time>2013-04-14T12:04:42Z</time></trkpt>
 <trkpt lat="52.050944500" lon="9.117520800"><ele>326</ele><time>2013-04-14T12:04:46Z</time></trkpt>
 <trkpt lat="52.050963700" lon="9.117474100"><ele>326</ele><time>2013-04-14T12:04:50Z</time></trkpt>
 <trkpt lat="52.050979100" lon="9.117426600"><ele>327</ele><time>2013-04-14T12:04:54Z</time></trkpt>
 <trkpt lat="52.050994100" lon="9.117378300"><ele>327</ele><time>2013-04-14T12:04:58Z</time></trkpt>
 <trkpt lat="52.051017800" lon="9.117307400"><ele>327</ele><time>2013-04-14T12:05:02Z</time></trkpt>
 <trkpt lat="52.051051600" lon="9.117236600"><ele>328</ele><time>2013-04-14T12:05:06Z</time></trkpt>
 <trkpt lat="52.051079900" lon="9.117164100"><ele>328</ele><time>2013-04-14T12:05:10Z</time></trkpt>
 <trkpt lat="52.051097000" lon="9.117081200"><ele>328</ele><time>2013-04-14T12:05:14Z</time></trkpt>
 <trkpt lat="52.051109900" lon="9.117011200"><ele>328</ele><time>2013-04-14T12:05:18Z</time></trkpt>
 <trkpt lat="52.051116200" lon="9.116947400"><ele>328</ele><time>2013-04-14T12:05:22Z</time></trkpt>
 <trkpt lat="52.051136200" lon="9.116893700"><ele>328</ele><time>2013-04-14T12:05:26Z</time></trkpt>
 <trkpt lat="52.051154100" lon="9.116822800"><ele>328</ele><time>2013-04-14T12:05:30Z</time></trkpt>
 <trkpt lat="52.051165300" lon="9.116764900"><ele>329</ele><time>2013-04-14T12:05:34Z</time></trkpt>
 <trkpt lat="52.051169100" lon="9.116688700"><ele>329</ele><time>2013-04-14T12:05:38Z</time></trkpt>
 <trkpt lat="52.051161600" lon="9.116623300"><ele>329</ele><time>2013-04-14T12:05:42Z</time></trkpt>
 <trkpt lat="52.051170300" lon="9.116570400"><ele>329</ele><time>2013-04-14T12:05:46Z</time></trkpt>
 <trkpt lat="52.051187800" lon="9.116492800"><ele>329</ele><time>2013-04-14T12:05:50Z</time></trkpt>
 <trkpt lat="52.051202000" lon="9.116430400"><ele>328</ele><time>2013-04-14T12:05:54Z</time></trkpt>
 <trkpt lat="52.051218700" lon="9.116357400"><ele>328</ele><time>2013-04-14T12:05:58Z</time></trkpt>
 <trkpt lat="52.051235300" lon="9.116283300"><ele>328</ele><time>2013-04-14T12:06:02Z</time></trkpt>
 <trkpt lat="52.051267800" lon="9.116205300"><ele>328</ele><time>2013-04-14T12:06:06Z</time></trkpt>
 <trkpt lat="52.051296200" lon="9.116124500"><ele>328</ele><time>2013-04-14T12:06:10Z</time></trkpt>
 <trkpt lat="52.051321200" lon="9.116037000"><ele>328</ele><time>2013-04-14T12:06:14Z</time></trkpt>
 <trkpt lat="52.051332000" lon="9.115963700"><ele>328</ele><time>2013-04-14T12:06:18Z</time></trkpt>
 <trkpt lat="52.051339900" lon="9.115896600"><ele>327</ele><time>2013-04-14T12:06:22Z</time></trkpt>
 <trkpt lat="52.051356200" lon="9.115833700"><ele>327</ele><time>2013-04-14T12:06:26Z</time></trkpt>
 <trkpt lat="52.051369100" lon="9.115768700"><ele>327</ele><time>2013-04-14T12:06:30Z</time></trkpt>
 <trkpt lat="52.051371200" lon="9.115716200"><ele>327</ele><time>2013-04-14T12:06:34Z</time></trkpt>
 <trkpt lat="52.051374100" lon="9.115662400"><ele>326</ele><time>2013-04-14T12:06:38Z</time></trkpt>
 <trkpt lat="52.051385800" lon="9.115598700"><ele>326</ele><time>2013-04-14T12:06:42Z</time></trkpt>
 <trkpt lat="52.051412400" lon="9.115513300"><ele>325</ele><time>2013-04-14T12:06:46Z</time></trkpt>
 <trkpt lat="52.051423300" lon="9.115432400"><ele>325</ele><time>2013-04-14T12:06:50Z</time></trkpt>
 <trkpt lat="52.051438300" lon="9.115368700"><ele>324</ele><time>2013-04-14T12:06:54Z</time></trkpt>
 <trkpt lat="52.051449500" lon="9.115284900"><ele>324</ele><time>2013-04-14T12:06:58Z</time></trkpt>
 <trkpt lat="52.051442400" lon="9.115210400"><ele>323</ele><time>2013-04-14T12:07:02Z</time></trkpt>
 <trkpt lat="52.051448700" lon="9.115140300"><ele>323</ele><time>2013-04-14T12:07:06Z</time></trkpt>
 <trkpt lat="52.051469100" lon="9.115073200"><ele>322</ele><time>2013-04-14T12:07:10Z</time></trkpt>
 <trkpt lat="52.051492400" lon="9.114994900"><ele>322</ele><time>2013-04-14T12:07:14Z</time></trkpt>
 <trkpt lat="52.051500300" lon="9.114932400"><ele>321</ele><time>2013-04-14T12:07:18Z</time></trkpt>
 <trkpt lat="52.051501200" lon="9.114869500"><ele>321</ele><time>2013-04-14T12:07:22Z</time></trkpt>
 <trkpt lat="52.051497000" lon="9.114803700"><ele>321</ele><time>2013-04-14T12:07:26Z</time></trkpt>
 <trkpt lat="52.051507900" lon="9.114743700"><ele>320</ele><time>2013-04-14T12:07:30Z</time></trkpt>
 <trkpt lat="52.051517000" lon="9.114684100"><ele>320</ele><time>2013-04-14T12:07:34Z</time></trkpt>
 <trkpt lat="52.051521600" lon="9.114611200"><ele>320</ele><time>2013-04-14T12:07:38Z</time></trkpt>
 <trkpt lat="52.051518700" lon="9.114557000"><ele>320</ele><time>2013-04-14T12:07:42Z</time></trkpt>
 <trkpt lat="52.051510000" lon="9.114508700"><ele>320</ele><time>2013-04-14T12:07:46Z</time></trkpt>
 <trkpt lat="52.051503700" lon="9.114449900"><ele>321</ele><time>2013-04-14T12:07:50Z</time></trkpt>
 <trkpt lat="52.051498700" lon="9.114374100"><ele>321</ele><time>2013-04-14T12:07:54Z</time></trkpt>
 <trkpt lat="52.051508700" lon="9.114292000"><ele>321</ele><time>2013-04-14T12:07:58Z</time></trkpt>
 <trkpt lat="52.051514900" lon="9.114212400"><ele>321</ele><time>2013-04-14T12:08:02Z</time></trkpt>
 <trkpt lat="52.051512800" lon="9.114135700"><ele>321</ele><time>2013-04-14T12:08:06Z</time></trkpt>
 <trkpt lat="52.051519500" lon="9.114065400"><ele>321</ele><time>2013-04-14T12:08:10Z</time></trkpt>
 <trkpt lat="52.051520300" lon="9.113993300"><ele>321</ele><time>2013-04-14T12:08:14Z</time></trkpt>
 <trkpt lat="52.051525800" lon="9.113926200"><ele>321</ele><time>2013-04-14T12:08:18Z</time></trkpt>
 <trkpt lat="52.051534100" lon="9.113853200"><ele>321</ele><time>2013-04-14T12:08:22Z</time></trkpt>
 <trkpt lat="52.051545400" lon="9.113771600"><ele>321</ele><time>2013-04-14T12:08:26Z</time></trkpt>
 <trkpt lat="52.051562000" lon="9.113694900"><ele>321</ele><time>2013-04-14T12:08:30Z</time></trkpt>
 <trkpt lat="52.051572500" lon="9.113607000"><ele>321</ele><time>2013-04-14T12:08:34Z</time></trkpt>
 <trkpt lat="52.051589100" lon="9.113527800"><ele>321</ele><time>2013-04-14T12:08:38Z</time></trkpt>
 <trkpt lat="52.051601200" lon="9.113453700"><ele>320</ele><time>2013-04-14T12:08:42Z</time></trkpt>
 <trkpt lat="52.051612400" lon="9.113386200"><ele>320</ele><time>2013-04-14T12:08:46Z</time></trkpt>
 <trkpt lat="52.051623300" lon="9.113315300"><ele>320</ele><time>2013-04-14T12:08:50Z</time></trkpt>
 <trkpt lat="52.051635800" lon="9.113252000"><ele>319</ele><time>2013-04-14T12:08:54Z</time></trkpt>
 <trkpt lat="52.051642800" lon="9.113174900"><ele>319</ele><time>2013-04-14T12:08:58Z</time></trkpt>
 <trkpt lat="52.051647000" lon="9.113098300"><ele>318</ele><time>2013-04-14T12:09:02Z</time></trkpt>
 <trkpt lat="52.051654900" lon="9.113029100"><ele>318</ele><time>2013-04-14T12:09:06Z</time></trkpt>
 <trkpt lat="52.051666200" lon="9.112961200"><ele>317</ele><time>2013-04-14T12:09:10Z</time></trkpt>
 <trkpt lat="52.051670800" lon="9.112886200"><ele>316</ele><time>2013-04-14T12:09:14Z</time></trkpt>
 <trkpt lat="52.051677400" lon="9.112823700"><ele>316</ele><time>2013-04-14T12:09:18Z</time></trkpt>
 <trkpt lat="52.051681600" lon="9.112761600"><ele>315</ele><time>2013-04-14T12:09:22Z</time></trkpt>
 <trkpt lat="52.051689100" lon="9.112696200"><ele>315</ele><time>2013-04-14T12:09:26Z</time></trkpt>
 <trkpt lat="52.051700400" lon="9.112638300"><ele>314</ele><time>2013-04-14T12:09:30Z</time></trkpt>
 <trkpt lat="52.051712800" lon="9.112586600"><ele>314</ele><time>2013-04-14T12:09:34Z</time></trkpt>
 <trkpt lat="52.051737800" lon="9.112537800"><ele>313</ele><time>2013-04-14T12:09:38Z</time></trkpt>
 <trkpt lat="52.051755400" lon="9.112487900"><ele>313</ele><time>2013-04-14T12:09:42Z</time></trkpt>
 <trkpt lat="52.051769100" lon="9.112434900"><ele>313</ele><time>2013-04-14T12:09:46Z</time></trkpt>
 <trkpt lat="52.051789500" lon="9.112369500"><ele>312</ele><time>2013-04-14T12:09:50Z</time></trkpt>
 <trkpt lat="52.051809500" lon="9.112299900"><ele>312</ele><time>2013-04-14T12:09:54Z</time></trkpt>
 <trkpt lat="52.051829500" lon="9.112230400"><ele>312</ele><time>2013-04-14T12:09:58Z</time></trkpt>
 <trkpt lat="52.051846200" lon="9.112167400"><ele>312</ele><time>2013-04-14T12:10:02Z</time></trkpt>
 <trkpt lat="52.051867000" lon="9.112107000"><ele>312</ele><time>2013-04-14T12:10:06Z</time></trkpt>
 <trkpt lat="52.051879900" lon="9.112039900"><ele>312</ele><time>2013-04-14T12:10:10Z</time></trkpt>
 <trkpt lat="52.051891200" lon="9.111971200"><ele>312</ele><time>2013-04-14T12:10:14Z</time></trkpt>
 <trkpt lat="52.051915400" lon="9.111910300"><ele>312</ele><time>2013-04-14T12:10:18Z</time></trkpt>
 <trkpt lat="52.051934900" lon="9.111848700"><ele>312</ele><time>2013-04-14T12:10:22Z</time></trkpt>
 <trkpt lat="52.051949900" lon="9.111789100"><ele>313</ele><time>2013-04-14T12:10:26Z</time></trkpt>
 <trkpt lat="52.051977000" lon="9.111714100"><ele>313</ele><time>2013-04-14T12:10:30Z</time></trkpt>
 <trkpt lat="52.052005300" lon="9.111645700"><ele>313</ele><time>2013-04-14T12:10:34Z</time></trkpt>
 <trkpt lat="52.052029500" lon="9.111588300"><ele>313</ele><time>2013-04-14T12:10:38Z</time></trkpt>
 <trkpt lat="52.052052000" lon="9.111517000"><ele>313</ele><time>2013-04-14T12:10:42Z</time></trkpt>
 <trkpt lat="52.052075300" lon="9.111444100"><ele>313</ele><time>2013-04-14T12:10:46Z</time></trkpt>
 <trkpt lat="52.052088700" lon="9.111378300"><ele>313</ele><time>2013-04-14T12:10:50Z</time></trkpt>
 <trkpt lat="52.052097000" lon="9.111314500"><ele>313</ele><time>2013-04-14T12:10:54Z</time></trkpt>
 <trkpt lat="52.052121600" lon="9.111252400"><ele>313</ele><time>2013-04-14T12:10:58Z</time></trkpt>
 <trkpt lat="52.052149900" lon="9.111188700"><ele>313</ele><time>2013-04-14T12:11:02Z</time></trkpt>
 <trkpt lat="52.052173200" lon="9.111136200"><ele>313</ele><time>2013-04-14T12:11:06Z</time></trkpt>
 <trkpt lat="52.052195800" lon="9.111062400"><ele>312</ele><time>2013-04-14T12:11:10Z</time></trkpt>
 <trkpt lat="52.052207500" lon="9.110994900"><ele>312</ele><time>2013-04-14T12:11:14Z</time></trkpt>
 <trkpt lat="52.052233300" lon="9.110940300"><ele>312</ele><time>2013-04-14T12:11:18Z</time></trkpt>
 <trkpt lat="52.052250800" lon="9.110907400"><ele>312</ele><time>2013-04-14T12:11:22Z</time></trkpt>
 <trkpt lat="52.052251200" lon="9.110893700"><ele>311</ele><time>2013-04-14T12:11:26Z</time></trkpt>
 <trkpt lat="52.052256600" lon="9.110849100"><ele>311</ele><time>2013-04-14T12:11:30Z</time></trkpt>
 <trkpt lat="52.052256600" lon="9.110788700"><ele>310</ele><time>2013-04-14T12:11:34Z</time></trkpt>
 <trkpt lat="52.052283700" lon="9.110739100"><ele>310</ele><time>2013-04-14T12:11:38Z</time></trkpt>
 <trkpt lat="52.052303300" lon="9.110684500"><ele>309</ele><time>2013-04-14T12:11:42Z</time></trkpt>
 <trkpt lat="52.052322000" lon="9.110617400"><ele>309</ele><time>2013-04-14T12:11:46Z</time></trkpt>
 <trkpt lat="52.052330800" lon="9.110567000"><ele>309</ele><time>2013-04-14T12:11:50Z</time></trkpt>
 <trkpt lat="52.052344100" lon="9.110515800"><ele>308</ele><time>2013-04-14T12:11:54Z</time></trkpt>
 <trkpt lat="52.052352000" lon="9.110455300"><ele>308</ele><time>2013-04-14T12:11:58Z</time></trkpt>
 <trkpt lat="52.052341200" lon="9.110409900"><ele>308</ele><time>2013-04-14T12:12:02Z</time></trkpt>
 <trkpt lat="52.052331600" lon="9.110387400"><ele>307</ele><time>2013-04-14T12:12:06Z</time></trkpt>
 <trkpt lat="52.052338700" lon="9.110367800"><ele>307</ele><time>2013-04-14T12:12:10Z</time></trkpt>
 <trkpt lat="52.052347800" lon="9.110352400"><ele>307</ele><time>2013-04-14T12:12:14Z</time></trkpt>
 <trkpt lat="52.052347800" lon="9.110352400"><ele>307</ele><time>2013-04-14T12:12:18Z</time></trkpt>
 <trkpt lat="52.052363700" lon="9.110321600"><ele>306</ele><time>2013-04-14T12:12:22Z</time></trkpt>
 <trkpt lat="52.052381600" lon="9.110268300"><ele>306</ele><time>2013-04-14T12:12:26Z</time></trkpt>
 <trkpt lat="52.052401600" lon="9.110217800"><ele>306</ele><time>2013-04-14T12:12:30Z</time></trkpt>
 <trkpt lat="52.052435400" lon="9.110161200"><ele>306</ele><time>2013-04-14T12:12:34Z</time></trkpt>
 <trkpt lat="52.052464100" lon="9.110102400"><ele>307</ele><time>2013-04-14T12:12:38Z</time></trkpt>
 <trkpt lat="52.052493300" lon="9.110043300"><ele>307</ele><time>2013-04-14T12:12:42Z</time></trkpt>
 <trkpt lat="52.052527800" lon="9.109987400"><ele>307</ele><time>2013-04-14T12:12:46Z</time></trkpt>
 <trkpt lat="52.052562400" lon="9.109935300"><ele>307</ele><time>2013-04-14T12:12:50Z</time></trkpt>
 <trkpt lat="52.052587000" lon="9.109901200"><ele>307</ele><time>2013-04-14T12:12:54Z</time></trkpt>
 <trkpt lat="52.052605300" lon="9.109857000"><ele>308</ele><time>2013-04-14T12:12:58Z</time></trkpt>
 <trkpt lat="52.052631200" lon="9.109805300"><ele>308</ele><time>2013-04-14T12:13:02Z</time></trkpt>
 <trkpt lat="52.052680400" lon="9.109737900"><ele>308</ele><time>2013-04-14T12:13:06Z</time></trkpt>
 <trkpt lat="52.052724500" lon="9.109683200"><ele>309</ele><time>2013-04-14T12:13:10Z</time></trkpt>
 <trkpt lat="52.052769500" lon="9.109633700"><ele>309</ele><time>2013-04-14T12:13:14Z</time></trkpt>
 <trkpt lat="52.052804500" lon="9.109571600"><ele>309</ele><time>2013-04-14T12:13:18Z</time></trkpt>
 <trkpt lat="52.052844500" lon="9.109509900"><ele>309</ele><time>2013-04-14T12:13:22Z</time></trkpt>
 <trkpt lat="52.052872400" lon="9.109451200"><ele>310</ele><time>2013-04-14T12:13:26Z</time></trkpt>
 <trkpt lat="52.052908700" lon="9.109387900"><ele>310</ele><time>2013-04-14T12:13:30Z</time></trkpt>
 <trkpt lat="52.052945700" lon="9.109354100"><ele>310</ele><time>2013-04-14T12:13:34Z</time></trkpt>
 <trkpt lat="52.052977400" lon="9.109343700"><ele>310</ele><time>2013-04-14T12:13:38Z</time></trkpt>
 <trkpt lat="52.053027000" lon="9.109333300"><ele>311</ele><time>2013-04-14T12:13:42Z</time></trkpt>
 <trkpt lat="52.053066200" lon="9.109308700"><ele>311</ele><time>2013-04-14T12:13:46Z</time></trkpt>
 <trkpt lat="52.053116600" lon="9.109314900"><ele>311</ele><time>2013-04-14T12:13:50Z</time></trkpt>
 <trkpt lat="52.053168300" lon="9.109324500"><ele>311</ele><time>2013-04-14T12:13:54Z</time></trkpt>
 <trkpt lat="52.053210300" lon="9.109337000"><ele>311</ele><time>2013-04-14T12:13:58Z</time></trkpt>
 <trkpt lat="52.053253300" lon="9.109344900"><ele>311</ele><time>2013-04-14T12:14:02Z</time></trkpt>
 <trkpt lat="52.053293700" lon="9.109353700"><ele>311</ele><time>2013-04-14T12:14:06Z</time></trkpt>
 <trkpt lat="52.053334900" lon="9.109366200"><ele>311</ele><time>2013-04-14T12:14:10Z</time></trkpt>
 <trkpt lat="52.053372000" lon="9.109388300"><ele>311</ele><time>2013-04-14T12:14:14Z</time></trkpt>
 <trkpt lat="52.053428700" lon="9.109413700"><ele>310</ele><time>2013-04-14T12:14:18Z</time></trkpt>
 <trkpt lat="52.053474100" lon="9.109410000"><ele>310</ele><time>2013-04-14T12:14:22Z</time></trkpt>
 <trkpt lat="52.053515000" lon="9.109405800"><ele>309</ele><time>2013-04-14T12:14:26Z</time></trkpt>
 <trkpt lat="52.053552800" lon="9.109387000"><ele>309</ele><time>2013-04-14T12:14:30Z</time></trkpt>
 <trkpt lat="52.053595800" lon="9.109371600"><ele>308</ele><time>2013-04-14T12:14:34Z</time></trkpt>
 <trkpt lat="52.053638700" lon="9.109357000"><ele>308</ele><time>2013-04-14T12:14:38Z</time></trkpt>
 <trkpt lat="52.053681600" lon="9.109348200"><ele>307</ele><time>2013-04-14T12:14:42Z</time></trkpt>
 <trkpt lat="52.053720800" lon="9.109339900"><ele>306</ele><time>2013-04-14T12:14:46Z</time></trkpt>
 <trkpt lat="52.053756600" lon="9.109337000"><ele>305</ele><time>2013-04-14T12:14:50Z</time></trkpt>
 <trkpt lat="52.053792800" lon="9.109329500"><ele>304</ele><time>2013-04-14T12:14:54Z</time></trkpt>
 <trkpt lat="52.053828200" lon="9.109321600"><ele>303</ele><time>2013-04-14T12:14:58Z</time></trkpt>
 <trkpt lat="52.053872000" lon="9.109320300"><ele>302</ele><time>2013-04-14T12:15:02Z</time></trkpt>
 <trkpt lat="52.053917000" lon="9.109319500"><ele>301</ele><time>2013-04-14T12:15:06Z</time></trkpt>
 <trkpt lat="52.053952900" lon="9.109326600"><ele>300</ele><time>2013-04-14T12:15:10Z</time></trkpt>
 <trkpt lat="52.053960800" lon="9.109321600"><ele>299</ele><time>2013-04-14T12:15:14Z</time></trkpt>
 <trkpt lat="52.053971600" lon="9.109326600"><ele>298</ele><time>2013-04-14T12:15:18Z</time></trkpt>
 <trkpt lat="52.053984100" lon="9.109334500"><ele>298</ele><time>2013-04-14T12:15:22Z</time></trkpt>
 <trkpt lat="52.053989500" lon="9.109332400"><ele>297</ele><time>2013-04-14T12:15:26Z</time></trkpt>
 <trkpt lat="52.053989500" lon="9.109332400"><ele>296</ele><time>2013-04-14T12:15:30Z</time></trkpt>
 <trkpt lat="52.053997800" lon="9.109325800"><ele>296</ele><time>2013-04-14T12:15:34Z</time></trkpt>
 <trkpt lat="52.054033300" lon="9.109324100"><ele>295</ele><time>2013-04-14T12:15:38Z</time></trkpt>
 <trkpt lat="52.054066600" lon="9.109332000"><ele>295</ele><time>2013-04-14T12:15:42Z</time></trkpt>
 <trkpt lat="52.054109500" lon="9.109338300"><ele>295</ele><time>2013-04-14T12:15:46Z</time></trkpt>
 <trkpt lat="52.054152400" lon="9.109351600"><ele>294</ele><time>2013-04-14T12:15:50Z</time></trkpt>
 <trkpt lat="52.054187800" lon="9.109366200"><ele>294</ele><time>2013-04-14T12:15:54Z</time></trkpt>
 <trkpt lat="52.054228300" lon="9.109372400"><ele>294</ele><time>2013-04-14T12:15:58Z</time></trkpt>
 <trkpt lat="52.054261200" lon="9.109366200"><ele>293</ele><time>2013-04-14T12:16:02Z</time></trkpt>
 <trkpt lat="52.054296600" lon="9.109359100"><ele>293</ele><time>2013-04-14T12:16:06Z</time></trkpt>
 <trkpt lat="52.054337000" lon="9.109345800"><ele>293</ele><time>2013-04-14T12:16:10Z</time></trkpt>
 <trkpt lat="52.054385800" lon="9.109326600"><ele>293</ele><time>2013-04-14T12:16:14Z</time></trkpt>
 <trkpt lat="52.054430800" lon="9.109304100"><ele>292</ele><time>2013-04-14T12:16:18Z</time></trkpt>
 <trkpt lat="52.054470800" lon="9.109299900"><ele>292</ele><time>2013-04-14T12:16:22Z</time></trkpt>
 <trkpt lat="52.054524100" lon="9.109301200"><ele>292</ele><time>2013-04-14T12:16:26Z</time></trkpt>
 <trkpt lat="52.054596600" lon="9.109276200"><ele>291</ele><time>2013-04-14T12:16:30Z</time></trkpt>
 <trkpt lat="52.054653700" lon="9.109259100"><ele>291</ele><time>2013-04-14T12:16:34Z</time></trkpt>
 <trkpt lat="52.054699500" lon="9.109251600"><ele>291</ele><time>2013-04-14T12:16:38Z</time></trkpt>
 <trkpt lat="52.054737400" lon="9.109243700"><ele>290</ele><time>2013-04-14T12:16:42Z</time></trkpt>
 <trkpt lat="52.054777800" lon="9.109236200"><ele>290</ele><time>2013-04-14T12:16:46Z</time></trkpt>
 <trkpt lat="52.054829100" lon="9.109226200"><ele>290</ele><time>2013-04-14T12:16:50Z</time></trkpt>
 <trkpt lat="52.054892400" lon="9.109215300"><ele>289</ele><time>2013-04-14T12:16:54Z</time></trkpt>
 <trkpt lat="52.054947800" lon="9.109188200"><ele>289</ele><time>2013-04-14T12:16:58Z</time></trkpt>
 <trkpt lat="52.054990300" lon="9.109162400"><ele>288</ele><time>2013-04-14T12:17:02Z</time></trkpt>
 <trkpt lat="52.055021200" lon="9.109141600"><ele>288</ele><time>2013-04-14T12:17:06Z</time></trkpt>
 <trkpt lat="52.055046200" lon="9.109111600"><ele>287</ele><time>2013-04-14T12:17:10Z</time></trkpt>
 <trkpt lat="52.055074900" lon="9.109093300"><ele>287</ele><time>2013-04-14T12:17:14Z</time></trkpt>
 <trkpt lat="52.055109500" lon="9.109062000"><ele>286</ele><time>2013-04-14T12:17:18Z</time></trkpt>
 <trkpt lat="52.055144100" lon="9.109026600"><ele>286</ele><time>2013-04-14T12:17:22Z</time></trkpt>
 <trkpt lat="52.055185300" lon="9.108997000"><ele>285</ele><time>2013-04-14T12:17:26Z</time></trkpt>
 <trkpt lat="52.055229100" lon="9.108953700"><ele>285</ele><time>2013-04-14T12:17:30Z</time></trkpt>
 <trkpt lat="52.055280000" lon="9.108905000"><ele>284</ele><time>2013-04-14T12:17:34Z</time></trkpt>
 <trkpt lat="52.055317000" lon="9.108859100"><ele>284</ele><time>2013-04-14T12:17:38Z</time></trkpt>
 <trkpt lat="52.055347400" lon="9.108809900"><ele>283</ele><time>2013-04-14T12:17:42Z</time></trkpt>
 <trkpt lat="52.055383300" lon="9.108761600"><ele>283</ele><time>2013-04-14T12:17:46Z</time></trkpt>
 <trkpt lat="52.055426600" lon="9.108706600"><ele>282</ele><time>2013-04-14T12:17:50Z</time></trkpt>
 <trkpt lat="52.055474500" lon="9.108674900"><ele>282</ele><time>2013-04-14T12:17:54Z</time></trkpt>
 <trkpt lat="52.055503700" lon="9.108652400"><ele>282</ele><time>2013-04-14T12:17:58Z</time></trkpt>
 <trkpt lat="52.055538700" lon="9.108617800"><ele>281</ele><time>2013-04-14T12:18:02Z</time></trkpt>
 <trkpt lat="52.055583700" lon="9.108581200"><ele>281</ele><time>2013-04-14T12:18:06Z</time></trkpt>
 <trkpt lat="52.055624500" lon="9.108556200"><ele>281</ele><time>2013-04-14T12:18:10Z</time></trkpt>
 <trkpt lat="52.055664500" lon="9.108529900"><ele>281</ele><time>2013-04-14T12:18:14Z</time></trkpt>
 <trkpt lat="52.055709500" lon="9.108495400"><ele>280</ele><time>2013-04-14T12:18:18Z</time></trkpt>
 <trkpt lat="52.055765700" lon="9.108451600"><ele>280</ele><time>2013-04-14T12:18:22Z</time></trkpt>
 <trkpt lat="52.055811200" lon="9.108405700"><ele>280</ele><time>2013-04-14T12:18:26Z</time></trkpt>
 <trkpt lat="52.055851600" lon="9.108382500"><ele>280</ele><time>2013-04-14T12:18:30Z</time></trkpt>
 <trkpt lat="52.055894100" lon="9.108349100"><ele>279</ele><time>2013-04-14T12:18:34Z</time></trkpt>
 <trkpt lat="52.055929500" lon="9.108307400"><ele>279</ele><time>2013-04-14T12:18:38Z</time></trkpt>
 <trkpt lat="52.055969100" lon="9.108287400"><ele>279</ele><time>2013-04-14T12:18:42Z</time></trkpt>
 <trkpt lat="52.056010400" lon="9.108268700"><ele>278</ele><time>2013-04-14T12:18:46Z</time></trkpt>
 <trkpt lat="52.056059900" lon="9.108235300"><ele>278</ele><time>2013-04-14T12:18:50Z</time></trkpt>
 <trkpt lat="52.056112000" lon="9.108207000"><ele>278</ele><time>2013-04-14T12:18:54Z</time></trkpt>
 <trkpt lat="52.056156600" lon="9.108173300"><ele>277</ele><time>2013-04-14T12:18:58Z</time></trkpt>
 <trkpt lat="52.056210300" lon="9.108164100"><ele>277</ele><time>2013-04-14T12:19:02Z</time></trkpt>
 <trkpt lat="52.056262000" lon="9.108160300"><ele>276</ele><time>2013-04-14T12:19:06Z</time></trkpt>
 <trkpt lat="52.056309900" lon="9.108152000"><ele>276</ele><time>2013-04-14T12:19:10Z</time></trkpt>
 <trkpt lat="52.056353300" lon="9.108145800"><ele>275</ele><time>2013-04-14T12:19:14Z</time></trkpt>
 <trkpt lat="52.056395400" lon="9.108143300"><ele>274</ele><time>2013-04-14T12:19:18Z</time></trkpt>
 <trkpt lat="52.056442000" lon="9.108127900"><ele>274</ele><time>2013-04-14T12:19:22Z</time></trkpt>
 <trkpt lat="52.056483700" lon="9.108112000"><ele>273</ele><time>2013-04-14T12:19:26Z</time></trkpt>
 <trkpt lat="52.056533200" lon="9.108085800"><ele>272</ele><time>2013-04-14T12:19:30Z</time></trkpt>
 <trkpt lat="52.056568300" lon="9.108047000"><ele>272</ele><time>2013-04-14T12:19:34Z</time></trkpt>
 <trkpt lat="52.056603700" lon="9.108007400"><ele>271</ele><time>2013-04-14T12:19:38Z</time></trkpt>
 <trkpt lat="52.056635300" lon="9.107966600"><ele>270</ele><time>2013-04-14T12:19:42Z</time></trkpt>
 <trkpt lat="52.056662400" lon="9.107921200"><ele>270</ele><time>2013-04-14T12:19:46Z</time></trkpt>
 <trkpt lat="52.056685800" lon="9.107884100"><ele>269</ele><time>2013-04-14T12:19:50Z</time></trkpt>
 <trkpt lat="52.056710800" lon="9.107854900"><ele>268</ele><time>2013-04-14T12:19:54Z</time></trkpt>
 <trkpt lat="52.056744500" lon="9.107807400"><ele>268</ele><time>2013-04-14T12:19:58Z</time></trkpt>
 <trkpt lat="52.056769100" lon="9.107748200"><ele>267</ele><time>2013-04-14T12:20:02Z</time></trkpt>
 <trkpt lat="52.056809100" lon="9.107703700"><ele>266</ele><time>2013-04-14T12:20:06Z</time></trkpt>
 <trkpt lat="52.056830300" lon="9.107665800"><ele>266</ele><time>2013-04-14T12:20:10Z</time></trkpt>
 <trkpt lat="52.056859900" lon="9.107603300"><ele>265</ele><time>2013-04-14T12:20:14Z</time></trkpt>
 <trkpt lat="52.056874500" lon="9.107549500"><ele>265</ele><time>2013-04-14T12:20:18Z</time></trkpt>
 <trkpt lat="52.056887800" lon="9.107487500"><ele>264</ele><time>2013-04-14T12:20:22Z</time></trkpt>
 <trkpt lat="52.056908300" lon="9.107422800"><ele>263</ele><time>2013-04-14T12:20:26Z</time></trkpt>
 <trkpt lat="52.056934100" lon="9.107364500"><ele>263</ele><time>2013-04-14T12:20:30Z</time></trkpt>
 <trkpt lat="52.056965400" lon="9.107301200"><ele>262</ele><time>2013-04-14T12:20:34Z</time></trkpt>
 <trkpt lat="52.056989100" lon="9.107232000"><ele>262</ele><time>2013-04-14T12:20:38Z</time></trkpt>
 <trkpt lat="52.057013300" lon="9.107172400"><ele>261</ele><time>2013-04-14T12:20:42Z</time></trkpt>
 <trkpt lat="52.057035700" lon="9.107112800"><ele>260</ele><time>2013-04-14T12:20:46Z</time></trkpt>
 <trkpt lat="52.057051200" lon="9.107068300"><ele>260</ele><time>2013-04-14T12:20:50Z</time></trkpt>
 <trkpt lat="52.057072000" lon="9.107012000"><ele>259</ele><time>2013-04-14T12:20:54Z</time></trkpt>
 <trkpt lat="52.057081600" lon="9.106963300"><ele>259</ele><time>2013-04-14T12:20:58Z</time></trkpt>
 <trkpt lat="52.057081600" lon="9.106922000"><ele>258</ele><time>2013-04-14T12:21:02Z</time></trkpt>
 <trkpt lat="52.057094900" lon="9.106884100"><ele>258</ele><time>2013-04-14T12:21:06Z</time></trkpt>
 <trkpt lat="52.057118300" lon="9.106838700"><ele>257</ele><time>2013-04-14T12:21:10Z</time></trkpt>
 <trkpt lat="52.057145300" lon="9.106780800"><ele>256</ele><time>2013-04-14T12:21:14Z</time></trkpt>
 <trkpt lat="52.057172000" lon="9.106704500"><ele>256</ele><time>2013-04-14T12:21:18Z</time></trkpt>
 <trkpt lat="52.057197400" lon="9.106625300"><ele>255</ele><time>2013-04-14T12:21:22Z</time></trkpt>
 <trkpt lat="52.057232000" lon="9.106549500"><ele>255</ele><time>2013-04-14T12:21:26Z</time></trkpt>
 <trkpt lat="52.057257000" lon="9.106495400"><ele>254</ele><time>2013-04-14T12:21:30Z</time></trkpt>
 <trkpt lat="52.057292000" lon="9.106431600"><ele>254</ele><time>2013-04-14T12:21:34Z</time></trkpt>
 <trkpt lat="52.057320700" lon="9.106375400"><ele>253</ele><time>2013-04-14T12:21:38Z</time></trkpt>
 <trkpt lat="52.057356200" lon="9.106312000"><ele>253</ele><time>2013-04-14T12:21:42Z</time></trkpt>
 <trkpt lat="52.057389900" lon="9.106248700"><ele>252</ele><time>2013-04-14T12:21:46Z</time></trkpt>
 <trkpt lat="52.057423300" lon="9.106183300"><ele>252</ele><time>2013-04-14T12:21:50Z</time></trkpt>
 <trkpt lat="52.057455300" lon="9.106136600"><ele>251</ele><time>2013-04-14T12:21:54Z</time></trkpt>
 <trkpt lat="52.057494500" lon="9.106080400"><ele>251</ele><time>2013-04-14T12:21:58Z</time></trkpt>
 <trkpt lat="52.057514500" lon="9.106046600"><ele>250</ele><time>2013-04-14T12:22:02Z</time></trkpt>
 <trkpt lat="52.057522400" lon="9.106003700"><ele>250</ele><time>2013-04-14T12:22:06Z</time></trkpt>
 <trkpt lat="52.057544900" lon="9.105944500"><ele>250</ele><time>2013-04-14T12:22:10Z</time></trkpt>
 <trkpt lat="52.057578300" lon="9.105884900"><ele>250</ele><time>2013-04-14T12:22:14Z</time></trkpt>
 <trkpt lat="52.057604900" lon="9.105835300"><ele>249</ele><time>2013-04-14T12:22:18Z</time></trkpt>
 <trkpt lat="52.057623700" lon="9.105803300"><ele>249</ele><time>2013-04-14T12:22:22Z</time></trkpt>
 <trkpt lat="52.057628300" lon="9.105794100"><ele>249</ele><time>2013-04-14T12:22:26Z</time></trkpt>
 <trkpt lat="52.057626600" lon="9.105783300"><ele>249</ele><time>2013-04-14T12:22:30Z</time></trkpt>
 <trkpt lat="52.057627400" lon="9.105774500"><ele>249</ele><time>2013-04-14T12:22:34Z</time></trkpt>
 <trkpt lat="52.057627400" lon="9.105774500"><ele>249</ele><time>2013-04-14T12:22:38Z</time></trkpt>
 <trkpt lat="52.057627400" lon="9.105774500"><ele>249</ele><time>2013-04-14T12:22:42Z</time></trkpt>
 <trkpt lat="52.057632400" lon="9.105777800"><ele>249</ele><time>2013-04-14T12:22:46Z</time></trkpt>
 <trkpt lat="52.057637800" lon="9.105777000"><ele>249</ele><time>2013-04-14T12:22:50Z</time></trkpt>
 <trkpt lat="52.057637800" lon="9.105777000"><ele>249</ele><time>2013-04-14T12:22:54Z</time></trkpt>
 <trkpt lat="52.057643700" lon="9.105775800"><ele>249</ele><time>2013-04-14T12:22:58Z</time></trkpt>
 <trkpt lat="52.057643700" lon="9.105775800"><ele>249</ele><time>2013-04-14T12:23:02Z</time></trkpt>
 <trkpt lat="52.057643700" lon="9.105775800"><ele>249</ele><time>2013-04-14T12:23:06Z</time></trkpt>
 <trkpt lat="52.057643700" lon="9.105775800"><ele>249</ele><time>2013-04-14T12:23:10Z</time></trkpt>
 <trkpt lat="52.057645000" lon="9.105784900"><ele>249</ele><time>2013-04-14T12:23:14Z</time></trkpt>
 <trkpt lat="52.057643300" lon="9.105793300"><ele>249</ele><time>2013-04-14T12:23:18Z</time></trkpt>
 <trkpt lat="52.057643300" lon="9.105793300"><ele>249</ele><time>2013-04-14T12:23:22Z</time></trkpt>
 <trkpt lat="52.057637400" lon="9.105796200"><ele>249</ele><time>2013-04-14T12:23:26Z</time></trkpt>
 <trkpt lat="52.057633300" lon="9.105803300"><ele>249</ele><time>2013-04-14T12:23:30Z</time></trkpt>
 <trkpt lat="52.057632400" lon="9.105824900"><ele>249</ele><time>2013-04-14T12:23:34Z</time></trkpt>
 <trkpt lat="52.057629500" lon="9.105834100"><ele>249</ele><time>2013-04-14T12:23:38Z</time></trkpt>
 <trkpt lat="52.057626600" lon="9.105842000"><ele>249</ele><time>2013-04-14T12:23:42Z</time></trkpt>
 <trkpt lat="52.057622400" lon="9.105835800"><ele>249</ele><time>2013-04-14T12:23:46Z</time></trkpt>
 <trkpt lat="52.057622400" lon="9.105835800"><ele>249</ele><time>2013-04-14T12:23:50Z</time></trkpt>
 <trkpt lat="52.057628700" lon="9.105837400"><ele>249</ele><time>2013-04-14T12:23:54Z</time></trkpt>
 <trkpt lat="52.057628700" lon="9.105837400"><ele>249</ele><time>2013-04-14T12:23:58Z</time></trkpt>
 <trkpt lat="52.057628700" lon="9.105837400"><ele>249</ele><time>2013-04-14T12:24:02Z</time></trkpt>
 <trkpt lat="52.057633700" lon="9.105833700"><ele>249</ele><time>2013-04-14T12:24:06Z</time></trkpt>
 <trkpt lat="52.057633700" lon="9.105833700"><ele>249</ele><time>2013-04-14T12:24:10Z</time></trkpt>
 <trkpt lat="52.057633700" lon="9.105833700"><ele>249</ele><time>2013-04-14T12:24:14Z</time></trkpt>
 <trkpt lat="52.057632800" lon="9.105842400"><ele>249</ele><time>2013-04-14T12:24:18Z</time></trkpt>
 <trkpt lat="52.057631600" lon="9.105851600"><ele>249</ele><time>2013-04-14T12:24:22Z</time></trkpt>
 <trkpt lat="52.057631600" lon="9.105851600"><ele>249</ele><time>2013-04-14T12:24:26Z</time></trkpt>
 <trkpt lat="52.057637400" lon="9.105852000"><ele>249</ele><time>2013-04-14T12:24:30Z</time></trkpt>
 <trkpt lat="52.057637400" lon="9.105852000"><ele>249</ele><time>2013-04-14T12:24:34Z</time></trkpt>
 <trkpt lat="52.057637400" lon="9.105852000"><ele>249</ele><time>2013-04-14T12:24:38Z</time></trkpt>
 <trkpt lat="52.057643300" lon="9.105854500"><ele>249</ele><time>2013-04-14T12:24:42Z</time></trkpt>
 <trkpt lat="52.057646600" lon="9.105875800"><ele>249</ele><time>2013-04-14T12:24:46Z</time></trkpt>
 <trkpt lat="52.057646600" lon="9.105875800"><ele>249</ele><time>2013-04-14T12:24:50Z</time></trkpt>
 <trkpt lat="52.057646600" lon="9.105875800"><ele>249</ele><time>2013-04-14T12:24:54Z</time></trkpt>
 <trkpt lat="52.057642800" lon="9.105883700"><ele>249</ele><time>2013-04-14T12:24:58Z</time></trkpt>
 <trkpt lat="52.057642800" lon="9.105883700"><ele>249</ele><time>2013-04-14T12:25:02Z</time></trkpt>
 <trkpt lat="52.057637800" lon="9.105887400"><ele>249</ele><time>2013-04-14T12:25:06Z</time></trkpt>
 <trkpt lat="52.057637800" lon="9.105887400"><ele>249</ele><time>2013-04-14T12:25:10Z</time></trkpt>
 <trkpt lat="52.057637800" lon="9.105887400"><ele>249</ele><time>2013-04-14T12:25:14Z</time></trkpt>
 <trkpt lat="52.057637800" lon="9.105887400"><ele>249</ele><time>2013-04-14T12:25:18Z</time></trkpt>
 <trkpt lat="52.057637800" lon="9.105887400"><ele>249</ele><time>2013-04-14T12:25:22Z</time></trkpt>
 <trkpt lat="52.057636200" lon="9.105897000"><ele>249</ele><time>2013-04-14T12:25:26Z</time></trkpt>
 <trkpt lat="52.057639500" lon="9.105905700"><ele>249</ele><time>2013-04-14T12:25:30Z</time></trkpt>
 <trkpt lat="52.057639500" lon="9.105905700"><ele>249</ele><time>2013-04-14T12:25:34Z</time></trkpt>
 <trkpt lat="52.057639500" lon="9.105905700"><ele>249</ele><time>2013-04-14T12:25:38Z</time></trkpt>
 <trkpt lat="52.057639500" lon="9.105905700"><ele>249</ele><time>2013-04-14T12:25:42Z</time></trkpt>
 <trkpt lat="52.057639500" lon="9.105905700"><ele>249</ele><time>2013-04-14T12:25:46Z</time></trkpt>
 <trkpt lat="52.057633700" lon="9.105902000"><ele>249</ele><time>2013-04-14T12:25:50Z</time></trkpt>
 <trkpt lat="52.057627400" lon="9.105907000"><ele>249</ele><time>2013-04-14T12:25:54Z</time></trkpt>
 <trkpt lat="52.057621600" lon="9.105904500"><ele>249</ele><time>2013-04-14T12:25:58Z</time></trkpt>
 <trkpt lat="52.057621600" lon="9.105904500"><ele>249</ele><time>2013-04-14T12:26:02Z</time></trkpt>
 <trkpt lat="52.057621600" lon="9.105904500"><ele>249</ele><time>2013-04-14T12:26:06Z</time></trkpt>
 <trkpt lat="52.057621600" lon="9.105904500"><ele>249</ele><time>2013-04-14T12:26:10Z</time></trkpt>
 <trkpt lat="52.057621600" lon="9.105904500"><ele>249</ele><time>2013-04-14T12:26:14Z</time></trkpt>
 <trkpt lat="52.057621600" lon="9.105904500"><ele>249</ele><time>2013-04-14T12:26:18Z</time></trkpt>
 <trkpt lat="52.057627000" lon="9.105898300"><ele>249</ele><time>2013-04-14T12:26:22Z</time></trkpt>
 <trkpt lat="52.057627000" lon="9.105898300"><ele>249</ele><time>2013-04-14T12:26:26Z</time></trkpt>
 <trkpt lat="52.057630800" lon="9.105892000"><ele>249</ele><time>2013-04-14T12:26:30Z</time></trkpt>
 <trkpt lat="52.057630800" lon="9.105892000"><ele>249</ele><time>2013-04-14T12:26:34Z</time></trkpt>
 <trkpt lat="52.057626600" lon="9.105886200"><ele>249</ele><time>2013-04-14T12:26:38Z</time></trkpt>
 <trkpt lat="52.057626600" lon="9.105886200"><ele>249</ele><time>2013-04-14T12:26:42Z</time></trkpt>
 <trkpt lat="52.057632400" lon="9.105877000"><ele>249</ele><time>2013-04-14T12:26:46Z</time></trkpt>
 <trkpt lat="52.057640800" lon="9.105862800"><ele>249</ele><time>2013-04-14T12:26:50Z</time></trkpt>
 <trkpt lat="52.057636200" lon="9.105867400"><ele>249</ele><time>2013-04-14T12:26:54Z</time></trkpt>
 <trkpt lat="52.057636200" lon="9.105867400"><ele>249</ele><time>2013-04-14T12:26:58Z</time></trkpt>
 <trkpt lat="52.057636200" lon="9.105867400"><ele>249</ele><time>2013-04-14T12:27:02Z</time></trkpt>
 <trkpt lat="52.057635800" lon="9.105876200"><ele>249</ele><time>2013-04-14T12:27:06Z</time></trkpt>
 <trkpt lat="52.057642000" lon="9.105893300"><ele>249</ele><time>2013-04-14T12:27:10Z</time></trkpt>
 <trkpt lat="52.057643300" lon="9.105902000"><ele>249</ele><time>2013-04-14T12:27:14Z</time></trkpt>
 <trkpt lat="52.057643300" lon="9.105902000"><ele>249</ele><time>2013-04-14T12:27:18Z</time></trkpt>
 <trkpt lat="52.057642800" lon="9.105911200"><ele>249</ele><time>2013-04-14T12:27:22Z</time></trkpt>
 <trkpt lat="52.057642800" lon="9.105911200"><ele>249</ele><time>2013-04-14T12:27:26Z</time></trkpt>
 <trkpt lat="52.057642800" lon="9.105911200"><ele>249</ele><time>2013-04-14T12:27:30Z</time></trkpt>
 <trkpt lat="52.057642800" lon="9.105911200"><ele>249</ele><time>2013-04-14T12:27:34Z</time></trkpt>
 <trkpt lat="52.057645800" lon="9.105919100"><ele>249</ele><time>2013-04-14T12:27:38Z</time></trkpt>
 <trkpt lat="52.057641600" lon="9.105936200"><ele>249</ele><time>2013-04-14T12:27:42Z</time></trkpt>
 <trkpt lat="52.057638300" lon="9.105944100"><ele>249</ele><time>2013-04-14T12:27:46Z</time></trkpt>
 <trkpt lat="52.057639500" lon="9.105954500"><ele>249</ele><time>2013-04-14T12:27:50Z</time></trkpt>
 <trkpt lat="52.057639500" lon="9.105954500"><ele>249</ele><time>2013-04-14T12:27:54Z</time></trkpt>
 <trkpt lat="52.057639500" lon="9.105954500"><ele>249</ele><time>2013-04-14T12:27:58Z</time></trkpt>
 <trkpt lat="52.057639500" lon="9.105954500"><ele>249</ele><time>2013-04-14T12:28:02Z</time></trkpt>
 <trkpt lat="52.057641600" lon="9.105964100"><ele>249</ele><time>2013-04-14T12:28:06Z</time></trkpt>
 <trkpt lat="52.057642400" lon="9.105974900"><ele>249</ele><time>2013-04-14T12:28:10Z</time></trkpt>
 <trkpt lat="52.057642400" lon="9.105974900"><ele>249</ele><time>2013-04-14T12:28:14Z</time></trkpt>
 <trkpt lat="52.057642400" lon="9.105974900"><ele>249</ele><time>2013-04-14T12:28:18Z</time></trkpt>
 <trkpt lat="52.057642400" lon="9.105974900"><ele>249</ele><time>2013-04-14T12:28:22Z</time></trkpt>
 <trkpt lat="52.057646200" lon="9.105967800"><ele>249</ele><time>2013-04-14T12:28:26Z</time></trkpt>
 <trkpt lat="52.057650800" lon="9.105960300"><ele>249</ele><time>2013-04-14T12:28:30Z</time></trkpt>
 <trkpt lat="52.057655800" lon="9.105957000"><ele>249</ele><time>2013-04-14T12:28:34Z</time></trkpt>
 <trkpt lat="52.057661600" lon="9.105952400"><ele>249</ele><time>2013-04-14T12:28:38Z</time></trkpt>
 <trkpt lat="52.057661600" lon="9.105952400"><ele>249</ele><time>2013-04-14T12:28:42Z</time></trkpt>
 <trkpt lat="52.057664100" lon="9.105944100"><ele>249</ele><time>2013-04-14T12:28:46Z</time></trkpt>
 <trkpt lat="52.057664100" lon="9.105944100"><ele>249</ele><time>2013-04-14T12:28:50Z</time></trkpt>
 <trkpt lat="52.057663300" lon="9.105934900"><ele>249</ele><time>2013-04-14T12:28:54Z</time></trkpt>
 <trkpt lat="52.057663300" lon="9.105934900"><ele>249</ele><time>2013-04-14T12:28:58Z</time></trkpt>
 <trkpt lat="52.057657400" lon="9.105934900"><ele>249</ele><time>2013-04-14T12:29:02Z</time></trkpt>
 <trkpt lat="52.057652000" lon="9.105937400"><ele>249</ele><time>2013-04-14T12:29:06Z</time></trkpt>
 <trkpt lat="52.057646200" lon="9.105932800"><ele>249</ele><time>2013-04-14T12:29:10Z</time></trkpt>
 <trkpt lat="52.057645000" lon="9.105924100"><ele>249</ele><time>2013-04-14T12:29:14Z</time></trkpt>
 <trkpt lat="52.057645000" lon="9.105924100"><ele>249</ele><time>2013-04-14T12:29:18Z</time></trkpt>
 <trkpt lat="52.057648300" lon="9.105915800"><ele>249</ele><time>2013-04-14T12:29:22Z</time></trkpt>
 <trkpt lat="52.057650000" lon="9.105907400"><ele>249</ele><time>2013-04-14T12:29:26Z</time></trkpt>
 <trkpt lat="52.057645800" lon="9.105901600"><ele>249</ele><time>2013-04-14T12:29:30Z</time></trkpt>
 <trkpt lat="52.057645800" lon="9.105901600"><ele>249</ele><time>2013-04-14T12:29:34Z</time></trkpt>
 <trkpt lat="52.057643300" lon="9.105909500"><ele>249</ele><time>2013-04-14T12:29:38Z</time></trkpt>
 <trkpt lat="52.057643300" lon="9.105909500"><ele>249</ele><time>2013-04-14T12:29:42Z</time></trkpt>
 <trkpt lat="52.057642000" lon="9.105900400"><ele>249</ele><time>2013-04-14T12:29:46Z</time></trkpt>
 <trkpt lat="52.057647400" lon="9.105905300"><ele>249</ele><time>2013-04-14T12:29:50Z</time></trkpt>
 <trkpt lat="52.057650300" lon="9.105914500"><ele>249</ele><time>2013-04-14T12:29:54Z</time></trkpt>
 <trkpt lat="52.057674900" lon="9.105907000"><ele>249</ele><time>2013-04-14T12:29:58Z</time></trkpt>
 <trkpt lat="52.057711200" lon="9.105900700"><ele>249</ele><time>2013-04-14T12:30:02Z</time></trkpt>
 <trkpt lat="52.057754500" lon="9.105879500"><ele>249</ele><time>2013-04-14T12:30:06Z</time></trkpt>
 <trkpt lat="52.057781200" lon="9.105834500"><ele>249</ele><time>2013-04-14T12:30:10Z</time></trkpt>
 <trkpt lat="52.057802400" lon="9.105787400"><ele>249</ele><time>2013-04-14T12:30:14Z</time></trkpt>
 <trkpt lat="52.057817400" lon="9.105776600"><ele>249</ele><time>2013-04-14T12:30:18Z</time></trkpt>
 <trkpt lat="52.057824900" lon="9.105774500"><ele>249</ele><time>2013-04-14T12:30:22Z</time></trkpt>
 <trkpt lat="52.057821600" lon="9.105764100"><ele>249</ele><time>2013-04-14T12:30:26Z</time></trkpt>
 <trkpt lat="52.057804500" lon="9.105733700"><ele>249</ele><time>2013-04-14T12:30:30Z</time></trkpt>
 <trkpt lat="52.057792400" lon="9.105681600"><ele>249</ele><time>2013-04-14T12:30:34Z</time></trkpt>
 <trkpt lat="52.057777900" lon="9.105629100"><ele>249</ele><time>2013-04-14T12:30:38Z</time></trkpt>
 <trkpt lat="52.057761200" lon="9.105565800"><ele>249</ele><time>2013-04-14T12:30:42Z</time></trkpt>
 <trkpt lat="52.057735300" lon="9.105522000"><ele>249</ele><time>2013-04-14T12:30:46Z</time></trkpt>
 <trkpt lat="52.057699900" lon="9.105509100"><ele>249</ele><time>2013-04-14T12:30:50Z</time></trkpt>
 <trkpt lat="52.057664900" lon="9.105510800"><ele>249</ele><time>2013-04-14T12:30:54Z</time></trkpt>
 <trkpt lat="52.057628300" lon="9.105531600"><ele>249</ele><time>2013-04-14T12:30:58Z</time></trkpt>
 <trkpt lat="52.057586600" lon="9.105547000"><ele>249</ele><time>2013-04-14T12:31:02Z</time></trkpt>
 <trkpt lat="52.057550300" lon="9.105572400"><ele>249</ele><time>2013-04-14T12:31:06Z</time></trkpt>
 <trkpt lat="52.057520400" lon="9.105602900"><ele>249</ele><time>2013-04-14T12:31:10Z</time></trkpt>
 <trkpt lat="52.057484900" lon="9.105637000"><ele>249</ele><time>2013-04-14T12:31:14Z</time></trkpt>
 <trkpt lat="52.057444100" lon="9.105684900"><ele>249</ele><time>2013-04-14T12:31:18Z</time></trkpt>
 <trkpt lat="52.057413700" lon="9.105733300"><ele>249</ele><time>2013-04-14T12:31:22Z</time></trkpt>
 <trkpt lat="52.057370400" lon="9.105769100"><ele>249</ele><time>2013-04-14T12:31:26Z</time></trkpt>
 <trkpt lat="52.057326200" lon="9.105808700"><ele>249</ele><time>2013-04-14T12:31:30Z</time></trkpt>
 <trkpt lat="52.057278300" lon="9.105840800"><ele>250</ele><time>2013-04-14T12:31:34Z</time></trkpt>
 <trkpt lat="52.057236600" lon="9.105874500"><ele>250</ele><time>2013-04-14T12:31:38Z</time></trkpt>
 <trkpt lat="52.057195800" lon="9.105914900"><ele>250</ele><time>2013-04-14T12:31:42Z</time></trkpt>
 <trkpt lat="52.057156200" lon="9.105955300"><ele>250</ele><time>2013-04-14T12:31:46Z</time></trkpt>
 <trkpt lat="52.057123300" lon="9.106000800"><ele>251</ele><time>2013-04-14T12:31:50Z</time></trkpt>
 <trkpt lat="52.057082000" lon="9.106054100"><ele>251</ele><time>2013-04-14T12:31:54Z</time></trkpt>
 <trkpt lat="52.057044500" lon="9.106088700"><ele>251</ele><time>2013-04-14T12:31:58Z</time></trkpt>
 <trkpt lat="52.057005300" lon="9.106134900"><ele>252</ele><time>2013-04-14T12:32:02Z</time></trkpt>
 <trkpt lat="52.056966600" lon="9.106181200"><ele>252</ele><time>2013-04-14T12:32:06Z</time></trkpt>
 <trkpt lat="52.056917800" lon="9.106224500"><ele>252</ele><time>2013-04-14T12:32:10Z</time></trkpt>
 <trkpt lat="52.056872800" lon="9.106265800"><ele>253</ele><time>2013-04-14T12:32:14Z</time></trkpt>
 <trkpt lat="52.056834500" lon="9.106311200"><ele>253</ele><time>2013-04-14T12:32:18Z</time></trkpt>
 <trkpt lat="52.056789100" lon="9.106348300"><ele>254</ele><time>2013-04-14T12:32:22Z</time></trkpt>
 <trkpt lat="52.056754900" lon="9.106380000"><ele>255</ele><time>2013-04-14T12:32:26Z</time></trkpt>
 <trkpt lat="52.056705800" lon="9.106410800"><ele>255</ele><time>2013-04-14T12:32:30Z</time></trkpt>
 <trkpt lat="52.056657000" lon="9.106455300"><ele>256</ele><time>2013-04-14T12:32:34Z</time></trkpt>
 <trkpt lat="52.056614100" lon="9.106518700"><ele>257</ele><time>2013-04-14T12:32:38Z</time></trkpt>
 <trkpt lat="52.056567400" lon="9.106573700"><ele>258</ele><time>2013-04-14T12:32:42Z</time></trkpt>
 <trkpt lat="52.056527000" lon="9.106621600"><ele>258</ele><time>2013-04-14T12:32:46Z</time></trkpt>
 <trkpt lat="52.056479100" lon="9.106654900"><ele>259</ele><time>2013-04-14T12:32:50Z</time></trkpt>
 <trkpt lat="52.056439900" lon="9.106698300"><ele>260</ele><time>2013-04-14T12:32:54Z</time></trkpt>
 <trkpt lat="52.056408700" lon="9.106717000"><ele>261</ele><time>2013-04-14T12:32:58Z</time></trkpt>
 <trkpt lat="52.056381600" lon="9.106757400"><ele>262</ele><time>2013-04-14T12:33:02Z</time></trkpt>
 <trkpt lat="52.056372800" lon="9.106789100"><ele>263</ele><time>2013-04-14T12:33:06Z</time></trkpt>
 <trkpt lat="52.056330800" lon="9.106795800"><ele>264</ele><time>2013-04-14T12:33:10Z</time></trkpt>
 <trkpt lat="52.056299900" lon="9.106786600"><ele>264</ele><time>2013-04-14T12:33:14Z</time></trkpt>
 <trkpt lat="52.056262800" lon="9.106742000"><ele>265</ele><time>2013-04-14T12:33:18Z</time></trkpt>
 <trkpt lat="52.056232800" lon="9.106698700"><ele>266</ele><time>2013-04-14T12:33:22Z</time></trkpt>
 <trkpt lat="52.056209500" lon="9.106673300"><ele>267</ele><time>2013-04-14T12:33:26Z</time></trkpt>
 <trkpt lat="52.056177400" lon="9.106649500"><ele>268</ele><time>2013-04-14T12:33:30Z</time></trkpt>
 <trkpt lat="52.056134500" lon="9.106633700"><ele>268</ele><time>2013-04-14T12:33:34Z</time></trkpt>
 <trkpt lat="52.056090400" lon="9.106632000"><ele>269</ele><time>2013-04-14T12:33:38Z</time></trkpt>
 <trkpt lat="52.056065300" lon="9.106597000"><ele>269</ele><time>2013-04-14T12:33:42Z</time></trkpt>
 <trkpt lat="52.056030800" lon="9.106578300"><ele>270</ele><time>2013-04-14T12:33:46Z</time></trkpt>
 <trkpt lat="52.055985300" lon="9.106579900"><ele>270</ele><time>2013-04-14T12:33:50Z</time></trkpt>
 <trkpt lat="52.055944500" lon="9.106582000"><ele>271</ele><time>2013-04-14T12:33:54Z</time></trkpt>
 <trkpt lat="52.055905300" lon="9.106597800"><ele>271</ele><time>2013-04-14T12:33:58Z</time></trkpt>
 <trkpt lat="52.055867400" lon="9.106616200"><ele>271</ele><time>2013-04-14T12:34:02Z</time></trkpt>
 <trkpt lat="52.055837900" lon="9.106630300"><ele>271</ele><time>2013-04-14T12:34:06Z</time></trkpt>
 <trkpt lat="52.055817400" lon="9.106623300"><ele>272</ele><time>2013-04-14T12:34:10Z</time></trkpt>
 <trkpt lat="52.055772000" lon="9.106641200"><ele>272</ele><time>2013-04-14T12:34:14Z</time></trkpt>
 <trkpt lat="52.055719900" lon="9.106672400"><ele>272</ele><time>2013-04-14T12:34:18Z</time></trkpt>
 <trkpt lat="52.055667800" lon="9.106689500"><ele>272</ele><time>2013-04-14T12:34:22Z</time></trkpt>
 <trkpt lat="52.055631200" lon="9.106657400"><ele>272</ele><time>2013-04-14T12:34:26Z</time></trkpt>
 <trkpt lat="52.055587900" lon="9.106639100"><ele>272</ele><time>2013-04-14T12:34:30Z</time></trkpt>
 <trkpt lat="52.055547900" lon="9.106612800"><ele>272</ele><time>2013-04-14T12:34:34Z</time></trkpt>
 <trkpt lat="52.055515800" lon="9.106589500"><ele>273</ele><time>2013-04-14T12:34:38Z</time></trkpt>
 <trkpt lat="52.055487400" lon="9.106562000"><ele>273</ele><time>2013-04-14T12:34:42Z</time></trkpt>
 <trkpt lat="52.055452800" lon="9.106549900"><ele>273</ele><time>2013-04-14T12:34:46Z</time></trkpt>
 <trkpt lat="52.055415400" lon="9.106571200"><ele>273</ele><time>2013-04-14T12:34:50Z</time></trkpt>
 <trkpt lat="52.055388300" lon="9.106581200"><ele>273</ele><time>2013-04-14T12:34:54Z</time></trkpt>
 <trkpt lat="52.055329500" lon="9.106548700"><ele>273</ele><time>2013-04-14T12:34:58Z</time></trkpt>
 <trkpt lat="52.055289500" lon="9.106517800"><ele>272</ele><time>2013-04-14T12:35:02Z</time></trkpt>
 <trkpt lat="52.055257000" lon="9.106502000"><ele>272</ele><time>2013-04-14T12:35:06Z</time></trkpt>
 <trkpt lat="52.055214500" lon="9.106479900"><ele>272</ele><time>2013-04-14T12:35:10Z</time></trkpt>
 <trkpt lat="52.055182400" lon="9.106446200"><ele>271</ele><time>2013-04-14T12:35:14Z</time></trkpt>
 <trkpt lat="52.055152400" lon="9.106403200"><ele>271</ele><time>2013-04-14T12:35:18Z</time></trkpt>
 <trkpt lat="52.055113300" lon="9.106386600"><ele>270</ele><time>2013-04-14T12:35:22Z</time></trkpt>
 <trkpt lat="52.055070300" lon="9.106359500"><ele>270</ele><time>2013-04-14T12:35:26Z</time></trkpt>
 <trkpt lat="52.055076200" lon="9.106283300"><ele>269</ele><time>2013-04-14T12:35:30Z</time></trkpt>
 <trkpt lat="52.055038200" lon="9.106239900"><ele>268</ele><time>2013-04-14T12:35:34Z</time></trkpt>
 <trkpt lat="52.054998200" lon="9.106194100"><ele>267</ele><time>2013-04-14T12:35:38Z</time></trkpt>
 <trkpt lat="52.054962800" lon="9.106158300"><ele>266</ele><time>2013-04-14T12:35:42Z</time></trkpt>
 <trkpt lat="52.054927800" lon="9.106127800"><ele>265</ele><time>2013-04-14T12:35:46Z</time></trkpt>
 <trkpt lat="52.054913200" lon="9.106095400"><ele>264</ele><time>2013-04-14T12:35:50Z</time></trkpt>
 <trkpt lat="52.054887400" lon="9.106080800"><ele>263</ele><time>2013-04-14T12:35:54Z</time></trkpt>
 <trkpt lat="52.054839100" lon="9.106037000"><ele>262</ele><time>2013-04-14T12:35:58Z</time></trkpt>
 <trkpt lat="52.054772000" lon="9.105990800"><ele>261</ele><time>2013-04-14T12:36:02Z</time></trkpt>
 <trkpt lat="52.054723700" lon="9.105968700"><ele>259</ele><time>2013-04-14T12:36:06Z</time></trkpt>
 <trkpt lat="52.054677800" lon="9.105952000"><ele>258</ele><time>2013-04-14T12:36:10Z</time></trkpt>
 <trkpt lat="52.054637400" lon="9.105936200"><ele>257</ele><time>2013-04-14T12:36:14Z</time></trkpt>
 <trkpt lat="52.054597400" lon="9.105909500"><ele>256</ele><time>2013-04-14T12:36:18Z</time></trkpt>
 <trkpt lat="52.054568300" lon="9.105874500"><ele>255</ele><time>2013-04-14T12:36:22Z</time></trkpt>
 <trkpt lat="52.054523700" lon="9.105821200"><ele>254</ele><time>2013-04-14T12:36:26Z</time></trkpt>
 <trkpt lat="52.054479100" lon="9.105770400"><ele>253</ele><time>2013-04-14T12:36:30Z</time></trkpt>
 <trkpt lat="52.054434100" lon="9.105722400"><ele>252</ele><time>2013-04-14T12:36:34Z</time></trkpt>
 <trkpt lat="52.054415800" lon="9.105687000"><ele>251</ele><time>2013-04-14T12:36:38Z</time></trkpt>
 <trkpt lat="52.054403700" lon="9.105661200"><ele>250</ele><time>2013-04-14T12:36:42Z</time></trkpt>
 <trkpt lat="52.054403700" lon="9.105661200"><ele>249</ele><time>2013-04-14T12:36:46Z</time></trkpt>
 <trkpt lat="52.054400000" lon="9.105668700"><ele>248</ele><time>2013-04-14T12:36:50Z</time></trkpt>
 <trkpt lat="52.054400000" lon="9.105668700"><ele>247</ele><time>2013-04-14T12:36:54Z</time></trkpt>
 <trkpt lat="52.054379100" lon="9.105643300"><ele>246</ele><time>2013-04-14T12:36:58Z</time></trkpt>
 <trkpt lat="52.054332400" lon="9.105618300"><ele>245</ele><time>2013-04-14T12:37:02Z</time></trkpt>
 <trkpt lat="52.054284500" lon="9.105589500"><ele>244</ele><time>2013-04-14T12:37:06Z</time></trkpt>
 <trkpt lat="52.054239500" lon="9.105562400"><ele>243</ele><time>2013-04-14T12:37:10Z</time></trkpt>
 <trkpt lat="52.054197000" lon="9.105527000"><ele>242</ele><time>2013-04-14T12:37:14Z</time></trkpt>
 <trkpt lat="52.054178300" lon="9.105496600"><ele>240</ele><time>2013-04-14T12:37:18Z</time></trkpt>
 <trkpt lat="52.054160800" lon="9.105457800"><ele>239</ele><time>2013-04-14T12:37:22Z</time></trkpt>
 <trkpt lat="52.054137000" lon="9.105424100"><ele>238</ele><time>2013-04-14T12:37:26Z</time></trkpt>
 <trkpt lat="52.054110800" lon="9.105398300"><ele>237</ele><time>2013-04-14T12:37:30Z</time></trkpt>
 <trkpt lat="52.054081200" lon="9.105364100"><ele>236</ele><time>2013-04-14T12:37:34Z</time></trkpt>
 <trkpt lat="52.054047000" lon="9.105339900"><ele>235</ele><time>2013-04-14T12:37:38Z</time></trkpt>
 <trkpt lat="52.053987800" lon="9.105297800"><ele>233</ele><time>2013-04-14T12:37:42Z</time></trkpt>
 <trkpt lat="52.053945300" lon="9.105259100"><ele>232</ele><time>2013-04-14T12:37:46Z</time></trkpt>
 <trkpt lat="52.053897400" lon="9.105226600"><ele>231</ele><time>2013-04-14T12:37:50Z</time></trkpt>
 <trkpt lat="52.053852400" lon="9.105194500"><ele>230</ele><time>2013-04-14T12:37:54Z</time></trkpt>
 <trkpt lat="52.053809900" lon="9.105146600"><ele>229</ele><time>2013-04-14T12:37:58Z</time></trkpt>
 <trkpt lat="52.053773700" lon="9.105095800"><ele>228</ele><time>2013-04-14T12:38:02Z</time></trkpt>
 <trkpt lat="52.053728700" lon="9.105055800"><ele>227</ele><time>2013-04-14T12:38:06Z</time></trkpt>
 <trkpt lat="52.053692400" lon="9.105011200"><ele>226</ele><time>2013-04-14T12:38:10Z</time></trkpt>
 <trkpt lat="52.053670400" lon="9.104950300"><ele>225</ele><time>2013-04-14T12:38:14Z</time></trkpt>
 <trkpt lat="52.053634100" lon="9.104895300"><ele>224</ele><time>2013-04-14T12:38:18Z</time></trkpt>
 <trkpt lat="52.053601600" lon="9.104831200"><ele>223</ele><time>2013-04-14T12:38:22Z</time></trkpt>
 <trkpt lat="52.053555800" lon="9.104744500"><ele>222</ele><time>2013-04-14T12:38:26Z</time></trkpt>
 <trkpt lat="52.053510700" lon="9.104682800"><ele>221</ele><time>2013-04-14T12:38:30Z</time></trkpt>
 <trkpt lat="52.053490400" lon="9.104640300"><ele>220</ele><time>2013-04-14T12:38:34Z</time></trkpt>
 <trkpt lat="52.053460400" lon="9.104579100"><ele>219</ele><time>2013-04-14T12:38:38Z</time></trkpt>
 <trkpt lat="52.053423700" lon="9.104495300"><ele>218</ele><time>2013-04-14T12:38:42Z</time></trkpt>
 <trkpt lat="52.053389900" lon="9.104412000"><ele>217</ele><time>2013-04-14T12:38:46Z</time></trkpt>
 <trkpt lat="52.053351600" lon="9.104352800"><ele>216</ele><time>2013-04-14T12:38:50Z</time></trkpt>
 <trkpt lat="52.053321600" lon="9.104300400"><ele>215</ele><time>2013-04-14T12:38:54Z</time></trkpt>
 <trkpt lat="52.053286600" lon="9.104239900"><ele>214</ele><time>2013-04-14T12:38:58Z</time></trkpt>
 <trkpt lat="52.053259900" lon="9.104181200"><ele>213</ele><time>2013-04-14T12:39:02Z</time></trkpt>
 <trkpt lat="52.053233300" lon="9.104128700"><ele>212</ele><time>2013-04-14T12:39:06Z</time></trkpt>
 <trkpt lat="52.053206200" lon="9.104072400"><ele>211</ele><time>2013-04-14T12:39:10Z</time></trkpt>
 <trkpt lat="52.053189100" lon="9.104024500"><ele>210</ele><time>2013-04-14T12:39:14Z</time></trkpt>
 <trkpt lat="52.053162900" lon="9.103977000"><ele>209</ele><time>2013-04-14T12:39:18Z</time></trkpt>
 <trkpt lat="52.053125800" lon="9.103912800"><ele>208</ele><time>2013-04-14T12:39:22Z</time></trkpt>
 <trkpt lat="52.053089900" lon="9.103855300"><ele>206</ele><time>2013-04-14T12:39:26Z</time></trkpt>
 <trkpt lat="52.053056600" lon="9.103812400"><ele>205</ele><time>2013-04-14T12:39:30Z</time></trkpt>
 <trkpt lat="52.053021600" lon="9.103751200"><ele>204</ele><time>2013-04-14T12:39:34Z</time></trkpt>
 <trkpt lat="52.052983300" lon="9.103693700"><ele>203</ele><time>2013-04-14T12:39:38Z</time></trkpt>
 <trkpt lat="52.052944900" lon="9.103641600"><ele>202</ele><time>2013-04-14T12:39:42Z</time></trkpt>
 <trkpt lat="52.052912400" lon="9.103577900"><ele>202</ele><time>2013-04-14T12:39:46Z</time></trkpt>
 <trkpt lat="52.052885400" lon="9.103520300"><ele>201</ele><time>2013-04-14T12:39:50Z</time></trkpt>
 <trkpt lat="52.052859100" lon="9.103451200"><ele>200</ele><time>2013-04-14T12:39:54Z</time></trkpt>
 <trkpt lat="52.052831600" lon="9.103389900"><ele>199</ele><time>2013-04-14T12:39:58Z</time></trkpt>
 <trkpt lat="52.052809100" lon="9.103336600"><ele>199</ele><time>2013-04-14T12:40:02Z</time></trkpt>
 <trkpt lat="52.052782400" lon="9.103277400"><ele>198</ele><time>2013-04-14T12:40:06Z</time></trkpt>
 <trkpt lat="52.052750300" lon="9.103217900"><ele>197</ele><time>2013-04-14T12:40:10Z</time></trkpt>
 <trkpt lat="52.052715300" lon="9.103146200"><ele>197</ele><time>2013-04-14T12:40:14Z</time></trkpt>
 <trkpt lat="52.052684900" lon="9.103074500"><ele>196</ele><time>2013-04-14T12:40:18Z</time></trkpt>
 <trkpt lat="52.052652000" lon="9.103014100"><ele>196</ele><time>2013-04-14T12:40:22Z</time></trkpt>
 <trkpt lat="52.052623300" lon="9.102952000"><ele>195</ele><time>2013-04-14T12:40:26Z</time></trkpt>
 <trkpt lat="52.052595800" lon="9.102895300"><ele>195</ele><time>2013-04-14T12:40:30Z</time></trkpt>
 <trkpt lat="52.052569900" lon="9.102856600"><ele>195</ele><time>2013-04-14T12:40:34Z</time></trkpt>
 <trkpt lat="52.052542900" lon="9.102818700"><ele>194</ele><time>2013-04-14T12:40:38Z</time></trkpt>
 <trkpt lat="52.052511600" lon="9.102774100"><ele>194</ele><time>2013-04-14T12:40:42Z</time></trkpt>
 <trkpt lat="52.052487800" lon="9.102717900"><ele>194</ele><time>2013-04-14T12:40:46Z</time></trkpt>
 <trkpt lat="52.052455300" lon="9.102648700"><ele>194</ele><time>2013-04-14T12:40:50Z</time></trkpt>
 <trkpt lat="52.052429100" lon="9.102596200"><ele>193</ele><time>2013-04-14T12:40:54Z</time></trkpt>
 <trkpt lat="52.052403700" lon="9.102534500"><ele>193</ele><time>2013-04-14T12:40:58Z</time></trkpt>
 <trkpt lat="52.052380400" lon="9.102489500"><ele>193</ele><time>2013-04-14T12:41:02Z</time></trkpt>
 <trkpt lat="52.052363300" lon="9.102441600"><ele>192</ele><time>2013-04-14T12:41:06Z</time></trkpt>
 <trkpt lat="52.052360800" lon="9.102400800"><ele>192</ele><time>2013-04-14T12:41:10Z</time></trkpt>
 <trkpt lat="52.052364900" lon="9.102346200"><ele>192</ele><time>2013-04-14T12:41:14Z</time></trkpt>
 <trkpt lat="52.052382000" lon="9.102285300"><ele>191</ele><time>2013-04-14T12:41:18Z</time></trkpt>
 <trkpt lat="52.052380800" lon="9.102218700"><ele>191</ele><time>2013-04-14T12:41:22Z</time></trkpt>
 <trkpt lat="52.052358300" lon="9.102157000"><ele>191</ele><time>2013-04-14T12:41:26Z</time></trkpt>
 <trkpt lat="52.052326200" lon="9.102125800"><ele>190</ele><time>2013-04-14T12:41:30Z</time></trkpt>
 <trkpt lat="52.052290000" lon="9.102115800"><ele>190</ele><time>2013-04-14T12:41:34Z</time></trkpt>
 <trkpt lat="52.052247800" lon="9.102101600"><ele>189</ele><time>2013-04-14T12:41:38Z</time></trkpt>
 <trkpt lat="52.052209100" lon="9.102077900"><ele>189</ele><time>2013-04-14T12:41:42Z</time></trkpt>
 <trkpt lat="52.052170800" lon="9.102057400"><ele>189</ele><time>2013-04-14T12:41:46Z</time></trkpt>
 <trkpt lat="52.052124900" lon="9.102043700"><ele>188</ele><time>2013-04-14T12:41:50Z</time></trkpt>
 <trkpt lat="52.052082000" lon="9.102010400"><ele>188</ele><time>2013-04-14T12:41:54Z</time></trkpt>
 <trkpt lat="52.052036600" lon="9.101999100"><ele>188</ele><time>2013-04-14T12:41:58Z</time></trkpt>
 <trkpt lat="52.051989900" lon="9.102009100"><ele>188</ele><time>2013-04-14T12:42:02Z</time></trkpt>
 <trkpt lat="52.051957400" lon="9.101994900"><ele>187</ele><time>2013-04-14T12:42:06Z</time></trkpt>
 <trkpt lat="52.051920800" lon="9.101980300"><ele>187</ele><time>2013-04-14T12:42:10Z</time></trkpt>
 <trkpt lat="52.051864900" lon="9.101977900"><ele>187</ele><time>2013-04-14T12:42:14Z</time></trkpt>
 <trkpt lat="52.051828700" lon="9.101960800"><ele>187</ele><time>2013-04-14T12:42:18Z</time></trkpt>
 <trkpt lat="52.051797400" lon="9.101940300"><ele>187</ele><time>2013-04-14T12:42:22Z</time></trkpt>
 <trkpt lat="52.051751600" lon="9.101937400"><ele>187</ele><time>2013-04-14T12:42:26Z</time></trkpt>
 <trkpt lat="52.051701200" lon="9.101925300"><ele>187</ele><time>2013-04-14T12:42:30Z</time></trkpt>
 <trkpt lat="52.051655800" lon="9.101907800"><ele>187</ele><time>2013-04-14T12:42:34Z</time></trkpt>
 <trkpt lat="52.051609900" lon="9.101835000"><ele>187</ele><time>2013-04-14T12:42:38Z</time></trkpt>
 <trkpt lat="52.051580800" lon="9.101758300"><ele>187</ele><time>2013-04-14T12:42:42Z</time></trkpt>
 <trkpt lat="52.051565800" lon="9.101682800"><ele>187</ele><time>2013-04-14T12:42:46Z</time></trkpt>
 <trkpt lat="52.051558300" lon="9.101608700"><ele>187</ele><time>2013-04-14T12:42:50Z</time></trkpt>
 <trkpt lat="52.051543300" lon="9.101497400"><ele>187</ele><time>2013-04-14T12:42:54Z</time></trkpt>
 <trkpt lat="52.051541200" lon="9.101416200"><ele>187</ele><time>2013-04-14T12:42:58Z</time></trkpt>
 <trkpt lat="52.051549100" lon="9.101352900"><ele>187</ele><time>2013-04-14T12:43:02Z</time></trkpt>
 <trkpt lat="52.051557400" lon="9.101285800"><ele>186</ele><time>2013-04-14T12:43:06Z</time></trkpt>
 <trkpt lat="52.051563700" lon="9.101217800"><ele>186</ele><time>2013-04-14T12:43:10Z</time></trkpt>
 <trkpt lat="52.051570300" lon="9.101149900"><ele>186</ele><time>2013-04-14T12:43:14Z</time></trkpt>
 <trkpt lat="52.051578700" lon="9.101086600"><ele>186</ele><time>2013-04-14T12:43:18Z</time></trkpt>
 <trkpt lat="52.051584500" lon="9.101022000"><ele>186</ele><time>2013-04-14T12:43:22Z</time></trkpt>
 <trkpt lat="52.051597800" lon="9.100961200"><ele>186</ele><time>2013-04-14T12:43:26Z</time></trkpt>
 <trkpt lat="52.051607000" lon="9.100899100"><ele>186</ele><time>2013-04-14T12:43:30Z</time></trkpt>
 <trkpt lat="52.051612000" lon="9.100826200"><ele>186</ele><time>2013-04-14T12:43:34Z</time></trkpt>
 <trkpt lat="52.051613300" lon="9.100745700"><ele>186</ele><time>2013-04-14T12:43:38Z</time></trkpt>
 <trkpt lat="52.051612900" lon="9.100661600"><ele>185</ele><time>2013-04-14T12:43:42Z</time></trkpt>
 <trkpt lat="52.051607800" lon="9.100580000"><ele>185</ele><time>2013-04-14T12:43:46Z</time></trkpt>
 <trkpt lat="52.051610800" lon="9.100514900"><ele>185</ele><time>2013-04-14T12:43:50Z</time></trkpt>
 <trkpt lat="52.051610300" lon="9.100455800"><ele>184</ele><time>2013-04-14T12:43:54Z</time></trkpt>
 <trkpt lat="52.051596600" lon="9.100388700"><ele>184</ele><time>2013-04-14T12:43:58Z</time></trkpt>
 <trkpt lat="52.051564900" lon="9.100353300"><ele>184</ele><time>2013-04-14T12:44:02Z</time></trkpt>
 <trkpt lat="52.051536200" lon="9.100348300"><ele>183</ele><time>2013-04-14T12:44:06Z</time></trkpt>
 <trkpt lat="52.051509100" lon="9.100354900"><ele>183</ele><time>2013-04-14T12:44:10Z</time></trkpt>
 <trkpt lat="52.051497000" lon="9.100294900"><ele>183</ele><time>2013-04-14T12:44:14Z</time></trkpt>
 <trkpt lat="52.051486200" lon="9.100212900"><ele>182</ele><time>2013-04-14T12:44:18Z</time></trkpt>
 <trkpt lat="52.051482000" lon="9.100160800"><ele>182</ele><time>2013-04-14T12:44:22Z</time></trkpt>
 <trkpt lat="52.051483300" lon="9.100132800"><ele>182</ele><time>2013-04-14T12:44:26Z</time></trkpt>
 <trkpt lat="52.051490800" lon="9.100108700"><ele>182</ele><time>2013-04-14T12:44:30Z</time></trkpt>
 <trkpt lat="52.051490800" lon="9.100108700"><ele>182</ele><time>2013-04-14T12:44:34Z</time></trkpt>
 <trkpt lat="52.051490800" lon="9.100108700"><ele>182</ele><time>2013-04-14T12:44:38Z</time></trkpt>
 <trkpt lat="52.051481200" lon="9.100129100"><ele>182</ele><time>2013-04-14T12:44:42Z</time></trkpt>
 <trkpt lat="52.051447800" lon="9.100141200"><ele>182</ele><time>2013-04-14T12:44:46Z</time></trkpt>
 <trkpt lat="52.051417000" lon="9.100144900"><ele>182</ele><time>2013-04-14T12:44:50Z</time></trkpt>
 <trkpt lat="52.051371600" lon="9.100164500"><ele>183</ele><time>2013-04-14T12:44:54Z</time></trkpt>
 <trkpt lat="52.051328200" lon="9.100183300"><ele>183</ele><time>2013-04-14T12:44:58Z</time></trkpt>
 <trkpt lat="52.051274900" lon="9.100190300"><ele>183</ele><time>2013-04-14T12:45:02Z</time></trkpt>
 <trkpt lat="52.051232400" lon="9.100177800"><ele>184</ele><time>2013-04-14T12:45:06Z</time></trkpt>
 <trkpt lat="52.051191200" lon="9.100160300"><ele>185</ele><time>2013-04-14T12:45:10Z</time></trkpt>
 <trkpt lat="52.051139500" lon="9.100156200"><ele>185</ele><time>2013-04-14T12:45:14Z</time></trkpt>
 <trkpt lat="52.051076600" lon="9.100150300"><ele>186</ele><time>2013-04-14T12:45:18Z</time></trkpt>
 <trkpt lat="52.051022400" lon="9.100143300"><ele>187</ele><time>2013-04-14T12:45:22Z</time></trkpt>
 <trkpt lat="52.050976600" lon="9.100127400"><ele>187</ele><time>2013-04-14T12:45:26Z</time></trkpt>
 <trkpt lat="52.050926600" lon="9.100114100"><ele>188</ele><time>2013-04-14T12:45:30Z</time></trkpt>
 <trkpt lat="52.050882900" lon="9.100107400"><ele>189</ele><time>2013-04-14T12:45:34Z</time></trkpt>
 <trkpt lat="52.050834500" lon="9.100114100"><ele>189</ele><time>2013-04-14T12:45:38Z</time></trkpt>
 <trkpt lat="52.050785800" lon="9.100112000"><ele>190</ele><time>2013-04-14T12:45:42Z</time></trkpt>
 <trkpt lat="52.050735700" lon="9.100105800"><ele>191</ele><time>2013-04-14T12:45:46Z</time></trkpt>
 <trkpt lat="52.050687900" lon="9.100106200"><ele>192</ele><time>2013-04-14T12:45:50Z</time></trkpt>
 <trkpt lat="52.050631600" lon="9.100103300"><ele>193</ele><time>2013-04-14T12:45:54Z</time></trkpt>
 <trkpt lat="52.050570300" lon="9.100087800"><ele>193</ele><time>2013-04-14T12:45:58Z</time></trkpt>
 <trkpt lat="52.050519500" lon="9.100071200"><ele>194</ele><time>2013-04-14T12:46:02Z</time></trkpt>
 <trkpt lat="52.050466600" lon="9.100054500"><ele>195</ele><time>2013-04-14T12:46:06Z</time></trkpt>
 <trkpt lat="52.050426200" lon="9.100032900"><ele>196</ele><time>2013-04-14T12:46:10Z</time></trkpt>
 <trkpt lat="52.050382000" lon="9.100022000"><ele>197</ele><time>2013-04-14T12:46:14Z</time></trkpt>
 <trkpt lat="52.050324900" lon="9.100024100"><ele>198</ele><time>2013-04-14T12:46:18Z</time></trkpt>
 <trkpt lat="52.050259900" lon="9.100039500"><ele>199</ele><time>2013-04-14T12:46:22Z</time></trkpt>
 <trkpt lat="52.050197400" lon="9.100042800"><ele>200</ele><time>2013-04-14T12:46:26Z</time></trkpt>
 <trkpt lat="52.050143300" lon="9.100033700"><ele>201</ele><time>2013-04-14T12:46:30Z</time></trkpt>
 <trkpt lat="52.050108300" lon="9.100033300"><ele>202</ele><time>2013-04-14T12:46:34Z</time></trkpt>
 <trkpt lat="52.050062000" lon="9.100012400"><ele>204</ele><time>2013-04-14T12:46:38Z</time></trkpt>
 <trkpt lat="52.050023300" lon="9.099996600"><ele>205</ele><time>2013-04-14T12:46:42Z</time></trkpt>
 <trkpt lat="52.049970800" lon="9.100002800"><ele>206</ele><time>2013-04-14T12:46:46Z</time></trkpt>
 <trkpt lat="52.049915300" lon="9.099999900"><ele>207</ele><time>2013-04-14T12:46:50Z</time></trkpt>
 <trkpt lat="52.049855300" lon="9.099984100"><ele>209</ele><time>2013-04-14T12:46:54Z</time></trkpt>
 <trkpt lat="52.049793200" lon="9.099938300"><ele>210</ele><time>2013-04-14T12:46:58Z</time></trkpt>
 <trkpt lat="52.049802000" lon="9.099882800"><ele>212</ele><time>2013-04-14T12:47:02Z</time></trkpt>
 <trkpt lat="52.049847800" lon="9.099845300"><ele>213</ele><time>2013-04-14T12:47:06Z</time></trkpt>
 <trkpt lat="52.049902400" lon="9.099830800"><ele>214</ele><time>2013-04-14T12:47:10Z</time></trkpt>
 <trkpt lat="52.049944500" lon="9.099817400"><ele>216</ele><time>2013-04-14T12:47:14Z</time></trkpt>
 <trkpt lat="52.049989900" lon="9.099806600"><ele>217</ele><time>2013-04-14T12:47:18Z</time></trkpt>
 <trkpt lat="52.050029500" lon="9.099786600"><ele>218</ele><time>2013-04-14T12:47:22Z</time></trkpt>
 <trkpt lat="52.050087800" lon="9.099769900"><ele>219</ele><time>2013-04-14T12:47:26Z</time></trkpt>
 <trkpt lat="52.050136600" lon="9.099771200"><ele>221</ele><time>2013-04-14T12:47:30Z</time></trkpt>
 <trkpt lat="52.050161600" lon="9.099747000"><ele>222</ele><time>2013-04-14T12:47:34Z</time></trkpt>
 <trkpt lat="52.050194100" lon="9.099701200"><ele>223</ele><time>2013-04-14T12:47:38Z</time></trkpt>
 <trkpt lat="52.050222800" lon="9.099660300"><ele>224</ele><time>2013-04-14T12:47:42Z</time></trkpt>
 <trkpt lat="52.050241200" lon="9.099626200"><ele>226</ele><time>2013-04-14T12:47:46Z</time></trkpt>
 <trkpt lat="52.050263300" lon="9.099585800"><ele>227</ele><time>2013-04-14T12:47:50Z</time></trkpt>
 <trkpt lat="52.050282400" lon="9.099525800"><ele>228</ele><time>2013-04-14T12:47:54Z</time></trkpt>
 <trkpt lat="52.050297900" lon="9.099458200"><ele>228</ele><time>2013-04-14T12:47:58Z</time></trkpt>
 <trkpt lat="52.050282900" lon="9.099370400"><ele>229</ele><time>2013-04-14T12:48:02Z</time></trkpt>
 <trkpt lat="52.050283700" lon="9.099319100"><ele>230</ele><time>2013-04-14T12:48:06Z</time></trkpt>
 <trkpt lat="52.050291200" lon="9.099270800"><ele>231</ele><time>2013-04-14T12:48:10Z</time></trkpt>
 <trkpt lat="52.050302000" lon="9.099227400"><ele>232</ele><time>2013-04-14T12:48:14Z</time></trkpt>
 <trkpt lat="52.050310300" lon="9.099172400"><ele>232</ele><time>2013-04-14T12:48:18Z</time></trkpt>
 <trkpt lat="52.050312000" lon="9.099099900"><ele>233</ele><time>2013-04-14T12:48:22Z</time></trkpt>
 <trkpt lat="52.050308700" lon="9.099045300"><ele>233</ele><time>2013-04-14T12:48:26Z</time></trkpt>
 <trkpt lat="52.050314500" lon="9.099046600"><ele>234</ele><time>2013-04-14T12:48:30Z</time></trkpt>
 <trkpt lat="52.050319500" lon="9.099053300"><ele>234</ele><time>2013-04-14T12:48:34Z</time></trkpt>
 <trkpt lat="52.050322400" lon="9.099060800"><ele>234</ele><time>2013-04-14T12:48:38Z</time></trkpt>
 <trkpt lat="52.050338700" lon="9.099065300"><ele>234</ele><time>2013-04-14T12:48:42Z</time></trkpt>
 <trkpt lat="52.050338700" lon="9.099065300"><ele>234</ele><time>2013-04-14T12:48:46Z</time></trkpt>
 <trkpt lat="52.050344100" lon="9.099069500"><ele>234</ele><time>2013-04-14T12:48:50Z</time></trkpt>
 <trkpt lat="52.050345800" lon="9.099079100"><ele>234</ele><time>2013-04-14T12:48:54Z</time></trkpt>
 <trkpt lat="52.050346600" lon="9.099087800"><ele>234</ele><time>2013-04-14T12:48:58Z</time></trkpt>
 <trkpt lat="52.050346600" lon="9.099087800"><ele>234</ele><time>2013-04-14T12:49:02Z</time></trkpt>
 <trkpt lat="52.050343700" lon="9.099077800"><ele>234</ele><time>2013-04-14T12:49:06Z</time></trkpt>
 <trkpt lat="52.050345800" lon="9.099053700"><ele>234</ele><time>2013-04-14T12:49:10Z</time></trkpt>
 <trkpt lat="52.050347800" lon="9.099044900"><ele>234</ele><time>2013-04-14T12:49:14Z</time></trkpt>
 <trkpt lat="52.050349900" lon="9.099069100"><ele>233</ele><time>2013-04-14T12:49:18Z</time></trkpt>
 <trkpt lat="52.050349900" lon="9.099069100"><ele>233</ele><time>2013-04-14T12:49:22Z</time></trkpt>
 <trkpt lat="52.050354900" lon="9.099075400"><ele>233</ele><time>2013-04-14T12:49:26Z</time></trkpt>
 <trkpt lat="52.050361200" lon="9.099077400"><ele>233</ele><time>2013-04-14T12:49:30Z</time></trkpt>
 <trkpt lat="52.050372900" lon="9.099079500"><ele>232</ele><time>2013-04-14T12:49:34Z</time></trkpt>
 <trkpt lat="52.050379500" lon="9.099078300"><ele>232</ele><time>2013-04-14T12:49:38Z</time></trkpt>
 <trkpt lat="52.050386600" lon="9.099077800"><ele>232</ele><time>2013-04-14T12:49:42Z</time></trkpt>
 <trkpt lat="52.050405300" lon="9.099074900"><ele>232</ele><time>2013-04-14T12:49:46Z</time></trkpt>
 <trkpt lat="52.050428700" lon="9.099052400"><ele>231</ele><time>2013-04-14T12:49:50Z</time></trkpt>
 <trkpt lat="52.050445800" lon="9.099042400"><ele>231</ele><time>2013-04-14T12:49:54Z</time></trkpt>
 <trkpt lat="52.050451200" lon="9.099045800"><ele>231</ele><time>2013-04-14T12:49:58Z</time></trkpt>
 <trkpt lat="52.050451200" lon="9.099045800"><ele>231</ele><time>2013-04-14T12:50:02Z</time></trkpt>
 <trkpt lat="52.050451200" lon="9.099045800"><ele>230</ele><time>2013-04-14T12:50:06Z</time></trkpt>
 <trkpt lat="52.050451200" lon="9.099045800"><ele>230</ele><time>2013-04-14T12:50:10Z</time></trkpt>
 <trkpt lat="52.050447400" lon="9.099038300"><ele>229</ele><time>2013-04-14T12:50:14Z</time></trkpt>
 <trkpt lat="52.050412900" lon="9.099044100"><ele>229</ele><time>2013-04-14T12:50:18Z</time></trkpt>
 <trkpt lat="52.050399900" lon="9.099049100"><ele>228</ele><time>2013-04-14T12:50:22Z</time></trkpt>
 <trkpt lat="52.050377800" lon="9.099037500"><ele>228</ele><time>2013-04-14T12:50:26Z</time></trkpt>
 <trkpt lat="52.050332800" lon="9.099022800"><ele>227</ele><time>2013-04-14T12:50:30Z</time></trkpt>
 <trkpt lat="52.050297800" lon="9.099028300"><ele>227</ele><time>2013-04-14T12:50:34Z</time></trkpt>
 <trkpt lat="52.050278200" lon="9.099022400"><ele>227</ele><time>2013-04-14T12:50:38Z</time></trkpt>
 <trkpt lat="52.050278200" lon="9.099022400"><ele>226</ele><time>2013-04-14T12:50:42Z</time></trkpt>
 <trkpt lat="52.050279900" lon="9.098992000"><ele>226</ele><time>2013-04-14T12:50:46Z</time></trkpt>
 <trkpt lat="52.050275300" lon="9.098957000"><ele>225</ele><time>2013-04-14T12:50:50Z</time></trkpt>
 <trkpt lat="52.050270800" lon="9.098950800"><ele>225</ele><time>2013-04-14T12:50:54Z</time></trkpt>
 <trkpt lat="52.050268300" lon="9.098942400"><ele>225</ele><time>2013-04-14T12:50:58Z</time></trkpt>
 <trkpt lat="52.050268300" lon="9.098942400"><ele>224</ele><time>2013-04-14T12:51:02Z</time></trkpt>
 <trkpt lat="52.050281200" lon="9.098957400"><ele>224</ele><time>2013-04-14T12:51:06Z</time></trkpt>
 <trkpt lat="52.050288700" lon="9.098947000"><ele>224</ele><time>2013-04-14T12:51:10Z</time></trkpt>
 <trkpt lat="52.050296600" lon="9.098952400"><ele>224</ele><time>2013-04-14T12:51:14Z</time></trkpt>
 <trkpt lat="52.050313700" lon="9.098952000"><ele>224</ele><time>2013-04-14T12:51:18Z</time></trkpt>
 <trkpt lat="52.050303700" lon="9.098960400"><ele>223</ele><time>2013-04-14T12:51:22Z</time></trkpt>
 <trkpt lat="52.050301600" lon="9.098970400"><ele>223</ele><time>2013-04-14T12:51:26Z</time></trkpt>
 <trkpt lat="52.050301600" lon="9.098970400"><ele>223</ele><time>2013-04-14T12:51:30Z</time></trkpt>
 <trkpt lat="52.050307000" lon="9.098973300"><ele>223</ele><time>2013-04-14T12:51:34Z</time></trkpt>
 <trkpt lat="52.050298300" lon="9.099021600"><ele>223</ele><time>2013-04-14T12:51:38Z</time></trkpt>
 <trkpt lat="52.050306200" lon="9.099061200"><ele>223</ele><time>2013-04-14T12:51:42Z</time></trkpt>
 <trkpt lat="52.050316600" lon="9.099087000"><ele>222</ele><time>2013-04-14T12:51:46Z</time></trkpt>
 <trkpt lat="52.050337000" lon="9.099099500"><ele>222</ele><time>2013-04-14T12:51:50Z</time></trkpt>
 <trkpt lat="52.050349900" lon="9.099062400"><ele>222</ele><time>2013-04-14T12:51:54Z</time></trkpt>
 <trkpt lat="52.050355300" lon="9.099046200"><ele>222</ele><time>2013-04-14T12:51:58Z</time></trkpt>
 <trkpt lat="52.050355800" lon="9.099018700"><ele>222</ele><time>2013-04-14T12:52:02Z</time></trkpt>
 <trkpt lat="52.050365800" lon="9.098959500"><ele>222</ele><time>2013-04-14T12:52:06Z</time></trkpt>
 <trkpt lat="52.050373300" lon="9.098864100"><ele>222</ele><time>2013-04-14T12:52:10Z</time></trkpt>
 <trkpt lat="52.050363700" lon="9.098759500"><ele>222</ele><time>2013-04-14T12:52:14Z</time></trkpt>
 <trkpt lat="52.050346600" lon="9.098696600"><ele>222</ele><time>2013-04-14T12:52:18Z</time></trkpt>
 <trkpt lat="52.050339900" lon="9.098621600"><ele>222</ele><time>2013-04-14T12:52:22Z</time></trkpt>
 <trkpt lat="52.050334900" lon="9.098566200"><ele>223</ele><time>2013-04-14T12:52:26Z</time></trkpt>
 <trkpt lat="52.050316200" lon="9.098535800"><ele>223</ele><time>2013-04-14T12:52:30Z</time></trkpt>
 <trkpt lat="52.050293700" lon="9.098458700"><ele>223</ele><time>2013-04-14T12:52:34Z</time></trkpt>
 <trkpt lat="52.050286600" lon="9.098399100"><ele>223</ele><time>2013-04-14T12:52:38Z</time></trkpt>
 <trkpt lat="52.050284500" lon="9.098347000"><ele>223</ele><time>2013-04-14T12:52:42Z</time></trkpt>
 <trkpt lat="52.050299500" lon="9.098282000"><ele>223</ele><time>2013-04-14T12:52:46Z</time></trkpt>
 <trkpt lat="52.050305800" lon="9.098215400"><ele>223</ele><time>2013-04-14T12:52:50Z</time></trkpt>
 <trkpt lat="52.050297900" lon="9.098137800"><ele>224</ele><time>2013-04-14T12:52:54Z</time></trkpt>
 <trkpt lat="52.050283300" lon="9.098070000"><ele>224</ele><time>2013-04-14T12:52:58Z</time></trkpt>
 <trkpt lat="52.050263700" lon="9.098009500"><ele>224</ele><time>2013-04-14T12:53:02Z</time></trkpt>
 <trkpt lat="52.050255400" lon="9.097959100"><ele>224</ele><time>2013-04-14T12:53:06Z</time></trkpt>
 <trkpt lat="52.050244900" lon="9.097900800"><ele>224</ele><time>2013-04-14T12:53:10Z</time></trkpt>
 <trkpt lat="52.050214500" lon="9.097815300"><ele>225</ele><time>2013-04-14T12:53:14Z</time></trkpt>
 <trkpt lat="52.050207400" lon="9.097760800"><ele>225</ele><time>2013-04-14T12:53:18Z</time></trkpt>
 <trkpt lat="52.050199900" lon="9.097718200"><ele>225</ele><time>2013-04-14T12:53:22Z</time></trkpt>
 <trkpt lat="52.050182800" lon="9.097666600"><ele>225</ele><time>2013-04-14T12:53:26Z</time></trkpt>
 <trkpt lat="52.050171200" lon="9.097613300"><ele>226</ele><time>2013-04-14T12:53:30Z</time></trkpt>
 <trkpt lat="52.050159900" lon="9.097566200"><ele>226</ele><time>2013-04-14T12:53:34Z</time></trkpt>
 <trkpt lat="52.050154500" lon="9.097510300"><ele>226</ele><time>2013-04-14T12:53:38Z</time></trkpt>
 <trkpt lat="52.050127000" lon="9.097459500"><ele>226</ele><time>2013-04-14T12:53:42Z</time></trkpt>
 <trkpt lat="52.050106200" lon="9.097386600"><ele>227</ele><time>2013-04-14T12:53:46Z</time></trkpt>
 <trkpt lat="52.050080700" lon="9.097313700"><ele>227</ele><time>2013-04-14T12:53:50Z</time></trkpt>
 <trkpt lat="52.050048300" lon="9.097263300"><ele>228</ele><time>2013-04-14T12:53:54Z</time></trkpt>
 <trkpt lat="52.050027000" lon="9.097243300"><ele>228</ele><time>2013-04-14T12:53:58Z</time></trkpt>
 <trkpt lat="52.050009100" lon="9.097218300"><ele>229</ele><time>2013-04-14T12:54:02Z</time></trkpt>
 <trkpt lat="52.049986200" lon="9.097191200"><ele>229</ele><time>2013-04-14T12:54:06Z</time></trkpt>
 <trkpt lat="52.049965700" lon="9.097162900"><ele>230</ele><time>2013-04-14T12:54:10Z</time></trkpt>
 <trkpt lat="52.049943700" lon="9.097095800"><ele>230</ele><time>2013-04-14T12:54:14Z</time></trkpt>
 <trkpt lat="52.049922400" lon="9.097036200"><ele>231</ele><time>2013-04-14T12:54:18Z</time></trkpt>
 <trkpt lat="52.049903300" lon="9.096990800"><ele>231</ele><time>2013-04-14T12:54:22Z</time></trkpt>
 <trkpt lat="52.049883700" lon="9.096944500"><ele>232</ele><time>2013-04-14T12:54:26Z</time></trkpt>
 <trkpt lat="52.049868300" lon="9.096886200"><ele>232</ele><time>2013-04-14T12:54:30Z</time></trkpt>
 <trkpt lat="52.049835300" lon="9.096839900"><ele>233</ele><time>2013-04-14T12:54:34Z</time></trkpt>
 <trkpt lat="52.049819500" lon="9.096826200"><ele>233</ele><time>2013-04-14T12:54:38Z</time></trkpt>
 <trkpt lat="52.049792400" lon="9.096792400"><ele>234</ele><time>2013-04-14T12:54:42Z</time></trkpt>
 <trkpt lat="52.049752800" lon="9.096780300"><ele>234</ele><time>2013-04-14T12:54:46Z</time></trkpt>
 <trkpt lat="52.049727000" lon="9.096782000"><ele>235</ele><time>2013-04-14T12:54:50Z</time></trkpt>
 <trkpt lat="52.049718700" lon="9.096782000"><ele>236</ele><time>2013-04-14T12:54:54Z</time></trkpt>
 <trkpt lat="52.049717000" lon="9.096761600"><ele>236</ele><time>2013-04-14T12:54:58Z</time></trkpt>
 <trkpt lat="52.049752000" lon="9.096728700"><ele>237</ele><time>2013-04-14T12:55:02Z</time></trkpt>
 <trkpt lat="52.049752400" lon="9.096679900"><ele>237</ele><time>2013-04-14T12:55:06Z</time></trkpt>
 <trkpt lat="52.049720400" lon="9.096638700"><ele>238</ele><time>2013-04-14T12:55:10Z</time></trkpt>
 <trkpt lat="52.049689100" lon="9.096602400"><ele>238</ele><time>2013-04-14T12:55:14Z</time></trkpt>
 <trkpt lat="52.049652000" lon="9.096517900"><ele>239</ele><time>2013-04-14T12:55:18Z</time></trkpt>
 <trkpt lat="52.049624100" lon="9.096469900"><ele>239</ele><time>2013-04-14T12:55:22Z</time></trkpt>
 <trkpt lat="52.049603700" lon="9.096435400"><ele>240</ele><time>2013-04-14T12:55:26Z</time></trkpt>
 <trkpt lat="52.049577800" lon="9.096424500"><ele>240</ele><time>2013-04-14T12:55:30Z</time></trkpt>
 <trkpt lat="52.049565300" lon="9.096402900"><ele>241</ele><time>2013-04-14T12:55:34Z</time></trkpt>
 <trkpt lat="52.049557400" lon="9.096367000"><ele>241</ele><time>2013-04-14T12:55:38Z</time></trkpt>
 <trkpt lat="52.049543700" lon="9.096333700"><ele>242</ele><time>2013-04-14T12:55:42Z</time></trkpt>
 <trkpt lat="52.049523700" lon="9.096298700"><ele>242</ele><time>2013-04-14T12:55:46Z</time></trkpt>
 <trkpt lat="52.049500300" lon="9.096264900"><ele>243</ele><time>2013-04-14T12:55:50Z</time></trkpt>
 <trkpt lat="52.049476200" lon="9.096223700"><ele>243</ele><time>2013-04-14T12:55:54Z</time></trkpt>
 <trkpt lat="52.049442800" lon="9.096175800"><ele>244</ele><time>2013-04-14T12:55:58Z</time></trkpt>
 <trkpt lat="52.049395800" lon="9.096122400"><ele>244</ele><time>2013-04-14T12:56:02Z</time></trkpt>
 <trkpt lat="52.049339900" lon="9.096081200"><ele>245</ele><time>2013-04-14T12:56:06Z</time></trkpt>
 <trkpt lat="52.049312000" lon="9.096017400"><ele>245</ele><time>2013-04-14T12:56:10Z</time></trkpt>
 <trkpt lat="52.049275800" lon="9.095955800"><ele>245</ele><time>2013-04-14T12:56:14Z</time></trkpt>
 <trkpt lat="52.049229500" lon="9.095906200"><ele>246</ele><time>2013-04-14T12:56:18Z</time></trkpt>
 <trkpt lat="52.049197400" lon="9.095865400"><ele>246</ele><time>2013-04-14T12:56:22Z</time></trkpt>
 <trkpt lat="52.049178300" lon="9.095824500"><ele>247</ele><time>2013-04-14T12:56:26Z</time></trkpt>
 <trkpt lat="52.049166200" lon="9.095782400"><ele>247</ele><time>2013-04-14T12:56:30Z</time></trkpt>
 <trkpt lat="52.049145800" lon="9.095712900"><ele>248</ele><time>2013-04-14T12:56:34Z</time></trkpt>
 <trkpt lat="52.049120300" lon="9.095652000"><ele>248</ele><time>2013-04-14T12:56:38Z</time></trkpt>
 <trkpt lat="52.049096200" lon="9.095580800"><ele>249</ele><time>2013-04-14T12:56:42Z</time></trkpt>
 <trkpt lat="52.049090300" lon="9.095516200"><ele>250</ele><time>2013-04-14T12:56:46Z</time></trkpt>
 <trkpt lat="52.049062400" lon="9.095451600"><ele>250</ele><time>2013-04-14T12:56:50Z</time></trkpt>
 <trkpt lat="52.049041600" lon="9.095400800"><ele>251</ele><time>2013-04-14T12:56:54Z</time></trkpt>
 <trkpt lat="52.049014900" lon="9.095355800"><ele>251</ele><time>2013-04-14T12:56:58Z</time></trkpt>
 <trkpt lat="52.048992000" lon="9.095292400"><ele>252</ele><time>2013-04-14T12:57:02Z</time></trkpt>
 <trkpt lat="52.048970300" lon="9.095233300"><ele>253</ele><time>2013-04-14T12:57:06Z</time></trkpt>
 <trkpt lat="52.048954100" lon="9.095180800"><ele>253</ele><time>2013-04-14T12:57:10Z</time></trkpt>
 <trkpt lat="52.048919500" lon="9.095114500"><ele>254</ele><time>2013-04-14T12:57:14Z</time></trkpt>
 <trkpt lat="52.048881600" lon="9.095044500"><ele>255</ele><time>2013-04-14T12:57:18Z</time></trkpt>
 <trkpt lat="52.048849900" lon="9.094987000"><ele>255</ele><time>2013-04-14T12:57:22Z</time></trkpt>
 <trkpt lat="52.048824500" lon="9.094940800"><ele>256</ele><time>2013-04-14T12:57:26Z</time></trkpt>
 <trkpt lat="52.048807800" lon="9.094872400"><ele>256</ele><time>2013-04-14T12:57:30Z</time></trkpt>
 <trkpt lat="52.048788300" lon="9.094779900"><ele>257</ele><time>2013-04-14T12:57:34Z</time></trkpt>
 <trkpt lat="52.048762800" lon="9.094714500"><ele>257</ele><time>2013-04-14T12:57:38Z</time></trkpt>
 <trkpt lat="52.048739500" lon="9.094666200"><ele>258</ele><time>2013-04-14T12:57:42Z</time></trkpt>
 <trkpt lat="52.048725300" lon="9.094628300"><ele>258</ele><time>2013-04-14T12:57:46Z</time></trkpt>
 <trkpt lat="52.048706600" lon="9.094587400"><ele>259</ele><time>2013-04-14T12:57:50Z</time></trkpt>
 <trkpt lat="52.048690800" lon="9.094535700"><ele>259</ele><time>2013-04-14T12:57:54Z</time></trkpt>
 <trkpt lat="52.048674900" lon="9.094483300"><ele>260</ele><time>2013-04-14T12:57:58Z</time></trkpt>
 <trkpt lat="52.048657400" lon="9.094379900"><ele>260</ele><time>2013-04-14T12:58:02Z</time></trkpt>
 <trkpt lat="52.048651600" lon="9.094290800"><ele>261</ele><time>2013-04-14T12:58:06Z</time></trkpt>
 <trkpt lat="52.048632400" lon="9.094224900"><ele>261</ele><time>2013-04-14T12:58:10Z</time></trkpt>
 <trkpt lat="52.048600400" lon="9.094157800"><ele>261</ele><time>2013-04-14T12:58:14Z</time></trkpt>
 <trkpt lat="52.048564500" lon="9.094057000"><ele>262</ele><time>2013-04-14T12:58:18Z</time></trkpt>
 <trkpt lat="52.048539100" lon="9.093964100"><ele>262</ele><time>2013-04-14T12:58:22Z</time></trkpt>
 <trkpt lat="52.048533300" lon="9.093903300"><ele>262</ele><time>2013-04-14T12:58:26Z</time></trkpt>
 <trkpt lat="52.048531600" lon="9.093839500"><ele>263</ele><time>2013-04-14T12:58:30Z</time></trkpt>
 <trkpt lat="52.048517400" lon="9.093777400"><ele>263</ele><time>2013-04-14T12:58:34Z</time></trkpt>
 <trkpt lat="52.048500800" lon="9.093729900"><ele>263</ele><time>2013-04-14T12:58:38Z</time></trkpt>
 <trkpt lat="52.048497800" lon="9.093663700"><ele>264</ele><time>2013-04-14T12:58:42Z</time></trkpt>
 <trkpt lat="52.048501600" lon="9.093584900"><ele>264</ele><time>2013-04-14T12:58:46Z</time></trkpt>
 <trkpt lat="52.048506600" lon="9.093515300"><ele>264</ele><time>2013-04-14T12:58:50Z</time></trkpt>
 <trkpt lat="52.048507800" lon="9.093447000"><ele>265</ele><time>2013-04-14T12:58:54Z</time></trkpt>
 <trkpt lat="52.048506200" lon="9.093377400"><ele>265</ele><time>2013-04-14T12:58:58Z</time></trkpt>
 <trkpt lat="52.048518700" lon="9.093299500"><ele>265</ele><time>2013-04-14T12:59:02Z</time></trkpt>
 <trkpt lat="52.048524100" lon="9.093225800"><ele>266</ele><time>2013-04-14T12:59:06Z</time></trkpt>
 <trkpt lat="52.048522800" lon="9.093146600"><ele>266</ele><time>2013-04-14T12:59:10Z</time></trkpt>
 <trkpt lat="52.048526200" lon="9.093080300"><ele>266</ele><time>2013-04-14T12:59:14Z</time></trkpt>
 <trkpt lat="52.048523700" lon="9.093013700"><ele>266</ele><time>2013-04-14T12:59:18Z</time></trkpt>
 <trkpt lat="52.048516200" lon="9.092950700"><ele>267</ele><time>2013-04-14T12:59:22Z</time></trkpt>
 <trkpt lat="52.048510400" lon="9.092872400"><ele>267</ele><time>2013-04-14T12:59:26Z</time></trkpt>
 <trkpt lat="52.048509500" lon="9.092801600"><ele>267</ele><time>2013-04-14T12:59:30Z</time></trkpt>
 <trkpt lat="52.048512400" lon="9.092751600"><ele>267</ele><time>2013-04-14T12:59:34Z</time></trkpt>
 <trkpt lat="52.048506600" lon="9.092699500"><ele>267</ele><time>2013-04-14T12:59:38Z</time></trkpt>
 <trkpt lat="52.048499500" lon="9.092637900"><ele>267</ele><time>2013-04-14T12:59:42Z</time></trkpt>
 <trkpt lat="52.048502000" lon="9.092574500"><ele>267</ele><time>2013-04-14T12:59:46Z</time></trkpt>
 <trkpt lat="52.048508300" lon="9.092489500"><ele>267</ele><time>2013-04-14T12:59:50Z</time></trkpt>
 <trkpt lat="52.048510300" lon="9.092415300"><ele>267</ele><time>2013-04-14T12:59:54Z</time></trkpt>
 <trkpt lat="52.048491600" lon="9.092307000"><ele>267</ele><time>2013-04-14T12:59:58Z</time></trkpt>
 <trkpt lat="52.048479500" lon="9.092203300"><ele>267</ele><time>2013-04-14T13:00:02Z</time></trkpt>
 <trkpt lat="52.048477400" lon="9.092128200"><ele>267</ele><time>2013-04-14T13:00:06Z</time></trkpt>
 <trkpt lat="52.048476200" lon="9.092050800"><ele>267</ele><time>2013-04-14T13:00:10Z</time></trkpt>
 <trkpt lat="52.048490800" lon="9.091978300"><ele>267</ele><time>2013-04-14T13:00:14Z</time></trkpt>
 <trkpt lat="52.048504500" lon="9.091893300"><ele>267</ele><time>2013-04-14T13:00:18Z</time></trkpt>
 <trkpt lat="52.048499500" lon="9.091800800"><ele>267</ele><time>2013-04-14T13:00:22Z</time></trkpt>
 <trkpt lat="52.048502000" lon="9.091725300"><ele>267</ele><time>2013-04-14T13:00:26Z</time></trkpt>
 <trkpt lat="52.048494500" lon="9.091658300"><ele>267</ele><time>2013-04-14T13:00:30Z</time></trkpt>
 <trkpt lat="52.048488700" lon="9.091595800"><ele>266</ele><time>2013-04-14T13:00:34Z</time></trkpt>
 <trkpt lat="52.048487800" lon="9.091537000"><ele>266</ele><time>2013-04-14T13:00:38Z</time></trkpt>
 <trkpt lat="52.048493700" lon="9.091465300"><ele>266</ele><time>2013-04-14T13:00:42Z</time></trkpt>
 <trkpt lat="52.048498700" lon="9.091400800"><ele>266</ele><time>2013-04-14T13:00:46Z</time></trkpt>
 <trkpt lat="52.048494900" lon="9.091346600"><ele>266</ele><time>2013-04-14T13:00:50Z</time></trkpt>
 <trkpt lat="52.048490800" lon="9.091265800"><ele>266</ele><time>2013-04-14T13:00:54Z</time></trkpt>
 <trkpt lat="52.048477800" lon="9.091184900"><ele>266</ele><time>2013-04-14T13:00:58Z</time></trkpt>
 <trkpt lat="52.048464900" lon="9.091105800"><ele>266</ele><time>2013-04-14T13:01:02Z</time></trkpt>
 <trkpt lat="52.048463700" lon="9.091034100"><ele>267</ele><time>2013-04-14T13:01:06Z</time></trkpt>
 <trkpt lat="52.048476600" lon="9.090968700"><ele>267</ele><time>2013-04-14T13:01:10Z</time></trkpt>
 <trkpt lat="52.048486200" lon="9.090903300"><ele>267</ele><time>2013-04-14T13:01:14Z</time></trkpt>
 <trkpt lat="52.048487800" lon="9.090833300"><ele>267</ele><time>2013-04-14T13:01:18Z</time></trkpt>
 <trkpt lat="52.048484900" lon="9.090756200"><ele>267</ele><time>2013-04-14T13:01:22Z</time></trkpt>
 <trkpt lat="52.048494100" lon="9.090677800"><ele>268</ele><time>2013-04-14T13:01:26Z</time></trkpt>
 <trkpt lat="52.048497400" lon="9.090576600"><ele>268</ele><time>2013-04-14T13:01:30Z</time></trkpt>
 <trkpt lat="52.048495800" lon="9.090508300"><ele>268</ele><time>2013-04-14T13:01:34Z</time></trkpt>
 <trkpt lat="52.048502000" lon="9.090443300"><ele>268</ele><time>2013-04-14T13:01:38Z</time></trkpt>
 <trkpt lat="52.048506600" lon="9.090377400"><ele>268</ele><time>2013-04-14T13:01:42Z</time></trkpt>
 <trkpt lat="52.048512400" lon="9.090311600"><ele>269</ele><time>2013-04-14T13:01:46Z</time></trkpt>
 <trkpt lat="52.048506600" lon="9.090232400"><ele>269</ele><time>2013-04-14T13:01:50Z</time></trkpt>
 <trkpt lat="52.048508700" lon="9.090147400"><ele>269</ele><time>2013-04-14T13:01:54Z</time></trkpt>
 <trkpt lat="52.048515800" lon="9.090063700"><ele>269</ele><time>2013-04-14T13:01:58Z</time></trkpt>
 <trkpt lat="52.048507800" lon="9.089972400"><ele>269</ele><time>2013-04-14T13:02:02Z</time></trkpt>
 <trkpt lat="52.048513300" lon="9.089896600"><ele>269</ele><time>2013-04-14T13:02:06Z</time></trkpt>
 <trkpt lat="52.048515300" lon="9.089831200"><ele>270</ele><time>2013-04-14T13:02:10Z</time></trkpt>
 <trkpt lat="52.048509100" lon="9.089812400"><ele>270</ele><time>2013-04-14T13:02:14Z</time></trkpt>
 <trkpt lat="52.048521200" lon="9.089754100"><ele>270</ele><time>2013-04-14T13:02:18Z</time></trkpt>
 <trkpt lat="52.048525300" lon="9.089681600"><ele>270</ele><time>2013-04-14T13:02:22Z</time></trkpt>
 <trkpt lat="52.048530800" lon="9.089601200"><ele>270</ele><time>2013-04-14T13:02:26Z</time></trkpt>
 <trkpt lat="52.048531600" lon="9.089534500"><ele>271</ele><time>2013-04-14T13:02:30Z</time></trkpt>
 <trkpt lat="52.048547000" lon="9.089485300"><ele>271</ele><time>2013-04-14T13:02:34Z</time></trkpt>
 <trkpt lat="52.048553200" lon="9.089392000"><ele>271</ele><time>2013-04-14T13:02:38Z</time></trkpt>
 <trkpt lat="52.048555300" lon="9.089307000"><ele>271</ele><time>2013-04-14T13:02:42Z</time></trkpt>
 <trkpt lat="52.048557400" lon="9.089231200"><ele>271</ele><time>2013-04-14T13:02:46Z</time></trkpt>
 <trkpt lat="52.048561600" lon="9.089152000"><ele>272</ele><time>2013-04-14T13:02:50Z</time></trkpt>
 <trkpt lat="52.048552400" lon="9.089069100"><ele>272</ele><time>2013-04-14T13:02:54Z</time></trkpt>
 <trkpt lat="52.048553700" lon="9.088988300"><ele>272</ele><time>2013-04-14T13:02:58Z</time></trkpt>
 <trkpt lat="52.048552400" lon="9.088914100"><ele>272</ele><time>2013-04-14T13:03:02Z</time></trkpt>
 <trkpt lat="52.048541600" lon="9.088833300"><ele>272</ele><time>2013-04-14T13:03:06Z</time></trkpt>
 <trkpt lat="52.048529100" lon="9.088752800"><ele>272</ele><time>2013-04-14T13:03:10Z</time></trkpt>
 <trkpt lat="52.048529500" lon="9.088666200"><ele>272</ele><time>2013-04-14T13:03:14Z</time></trkpt>
 <trkpt lat="52.048539100" lon="9.088587400"><ele>272</ele><time>2013-04-14T13:03:18Z</time></trkpt>
 <trkpt lat="52.048549900" lon="9.088509900"><ele>272</ele><time>2013-04-14T13:03:22Z</time></trkpt>
 <trkpt lat="52.048554500" lon="9.088432000"><ele>272</ele><time>2013-04-14T13:03:26Z</time></trkpt>
 <trkpt lat="52.048564500" lon="9.088359900"><ele>271</ele><time>2013-04-14T13:03:30Z</time></trkpt>
 <trkpt lat="52.048552900" lon="9.088289100"><ele>271</ele><time>2013-04-14T13:03:34Z</time></trkpt>
 <trkpt lat="52.048543700" lon="9.088204500"><ele>271</ele><time>2013-04-14T13:03:38Z</time></trkpt>
 <trkpt lat="52.048547400" lon="9.088123700"><ele>271</ele><time>2013-04-14T13:03:42Z</time></trkpt>
 <trkpt lat="52.048555300" lon="9.088043300"><ele>270</ele><time>2013-04-14T13:03:46Z</time></trkpt>
 <trkpt lat="52.048554100" lon="9.087962400"><ele>270</ele><time>2013-04-14T13:03:50Z</time></trkpt>
 <trkpt lat="52.048553700" lon="9.087878300"><ele>270</ele><time>2013-04-14T13:03:54Z</time></trkpt>
 <trkpt lat="52.048559100" lon="9.087794900"><ele>269</ele><time>2013-04-14T13:03:58Z</time></trkpt>
 <trkpt lat="52.048564500" lon="9.087717400"><ele>269</ele><time>2013-04-14T13:04:02Z</time></trkpt>
 <trkpt lat="52.048567400" lon="9.087652800"><ele>269</ele><time>2013-04-14T13:04:06Z</time></trkpt>
 <trkpt lat="52.048572000" lon="9.087581200"><ele>269</ele><time>2013-04-14T13:04:10Z</time></trkpt>
 <trkpt lat="52.048576600" lon="9.087502400"><ele>268</ele><time>2013-04-14T13:04:14Z</time></trkpt>
 <trkpt lat="52.048582400" lon="9.087425400"><ele>268</ele><time>2013-04-14T13:04:18Z</time></trkpt>
 <trkpt lat="52.048592000" lon="9.087340400"><ele>268</ele><time>2013-04-14T13:04:22Z</time></trkpt>
 <trkpt lat="52.048598700" lon="9.087267400"><ele>268</ele><time>2013-04-14T13:04:26Z</time></trkpt>
 <trkpt lat="52.048602400" lon="9.087197400"><ele>268</ele><time>2013-04-14T13:04:30Z</time></trkpt>
 <trkpt lat="52.048602800" lon="9.087128300"><ele>268</ele><time>2013-04-14T13:04:34Z</time></trkpt>
 <trkpt lat="52.048604100" lon="9.087062000"><ele>268</ele><time>2013-04-14T13:04:38Z</time></trkpt>
 <trkpt lat="52.048607000" lon="9.086986600"><ele>268</ele><time>2013-04-14T13:04:42Z</time></trkpt>
 <trkpt lat="52.048617400" lon="9.086908300"><ele>268</ele><time>2013-04-14T13:04:46Z</time></trkpt>
 <trkpt lat="52.048619900" lon="9.086871600"><ele>268</ele><time>2013-04-14T13:04:50Z</time></trkpt>
 <trkpt lat="52.048626200" lon="9.086869500"><ele>268</ele><time>2013-04-14T13:04:54Z</time></trkpt>
 <trkpt lat="52.048632400" lon="9.086853700"><ele>268</ele><time>2013-04-14T13:04:58Z</time></trkpt>
 <trkpt lat="52.048633300" lon="9.086793700"><ele>268</ele><time>2013-04-14T13:05:02Z</time></trkpt>
 <trkpt lat="52.048637400" lon="9.086727900"><ele>268</ele><time>2013-04-14T13:05:06Z</time></trkpt>
 <trkpt lat="52.048647000" lon="9.086659100"><ele>268</ele><time>2013-04-14T13:05:10Z</time></trkpt>
 <trkpt lat="52.048652800" lon="9.086592800"><ele>268</ele><time>2013-04-14T13:05:14Z</time></trkpt>
 <trkpt lat="52.048659100" lon="9.086540800"><ele>268</ele><time>2013-04-14T13:05:18Z</time></trkpt>
 <trkpt lat="52.048672000" lon="9.086487400"><ele>268</ele><time>2013-04-14T13:05:22Z</time></trkpt>
 <trkpt lat="52.048692400" lon="9.086443300"><ele>268</ele><time>2013-04-14T13:05:26Z</time></trkpt>
 <trkpt lat="52.048710300" lon="9.086430300"><ele>268</ele><time>2013-04-14T13:05:30Z</time></trkpt>
 <trkpt lat="52.048738700" lon="9.086437400"><ele>268</ele><time>2013-04-14T13:05:34Z</time></trkpt>
 <trkpt lat="52.048757500" lon="9.086449100"><ele>268</ele><time>2013-04-14T13:05:38Z</time></trkpt>
 <trkpt lat="52.048793700" lon="9.086459500"><ele>268</ele><time>2013-04-14T13:05:42Z</time></trkpt>
 <trkpt lat="52.048831600" lon="9.086474500"><ele>268</ele><time>2013-04-14T13:05:46Z</time></trkpt>
 <trkpt lat="52.048865800" lon="9.086497800"><ele>268</ele><time>2013-04-14T13:05:50Z</time></trkpt>
 <trkpt lat="52.048906600" lon="9.086509900"><ele>267</ele><time>2013-04-14T13:05:54Z</time></trkpt>
 <trkpt lat="52.048944500" lon="9.086526600"><ele>267</ele><time>2013-04-14T13:05:58Z</time></trkpt>
 <trkpt lat="52.048984100" lon="9.086531600"><ele>267</ele><time>2013-04-14T13:06:02Z</time></trkpt>
 <trkpt lat="52.049022800" lon="9.086554500"><ele>266</ele><time>2013-04-14T13:06:06Z</time></trkpt>
 <trkpt lat="52.049063700" lon="9.086575800"><ele>266</ele><time>2013-04-14T13:06:10Z</time></trkpt>
 <trkpt lat="52.049094900" lon="9.086612000"><ele>266</ele><time>2013-04-14T13:06:14Z</time></trkpt>
 <trkpt lat="52.049139100" lon="9.086622000"><ele>265</ele><time>2013-04-14T13:06:18Z</time></trkpt>
 <trkpt lat="52.049186200" lon="9.086624100"><ele>265</ele><time>2013-04-14T13:06:22Z</time></trkpt>
 <trkpt lat="52.049234900" lon="9.086637000"><ele>265</ele><time>2013-04-14T13:06:26Z</time></trkpt>
 <trkpt lat="52.049296200" lon="9.086643700"><ele>264</ele><time>2013-04-14T13:06:30Z</time></trkpt>
 <trkpt lat="52.049333300" lon="9.086648300"><ele>264</ele><time>2013-04-14T13:06:34Z</time></trkpt>
 <trkpt lat="52.049377400" lon="9.086659900"><ele>264</ele><time>2013-04-14T13:06:38Z</time></trkpt>
 <trkpt lat="52.049423700" lon="9.086662800"><ele>264</ele><time>2013-04-14T13:06:42Z</time></trkpt>
 <trkpt lat="52.049479900" lon="9.086667400"><ele>263</ele><time>2013-04-14T13:06:46Z</time></trkpt>
 <trkpt lat="52.049537400" lon="9.086690800"><ele>263</ele><time>2013-04-14T13:06:50Z</time></trkpt>
 <trkpt lat="52.049594100" lon="9.086698300"><ele>263</ele><time>2013-04-14T13:06:54Z</time></trkpt>
 <trkpt lat="52.049640800" lon="9.086707500"><ele>263</ele><time>2013-04-14T13:06:58Z</time></trkpt>
 <trkpt lat="52.049694100" lon="9.086700700"><ele>264</ele><time>2013-04-14T13:07:02Z</time></trkpt>
 <trkpt lat="52.049737400" lon="9.086700800"><ele>264</ele><time>2013-04-14T13:07:06Z</time></trkpt>
 <trkpt lat="52.049759900" lon="9.086718700"><ele>264</ele><time>2013-04-14T13:07:10Z</time></trkpt>
 <trkpt lat="52.049773300" lon="9.086737000"><ele>264</ele><time>2013-04-14T13:07:14Z</time></trkpt>
 <trkpt lat="52.049788700" lon="9.086745300"><ele>264</ele><time>2013-04-14T13:07:18Z</time></trkpt>
 <trkpt lat="52.049806200" lon="9.086729900"><ele>264</ele><time>2013-04-14T13:07:22Z</time></trkpt>
 <trkpt lat="52.049853700" lon="9.086679500"><ele>264</ele><time>2013-04-14T13:07:26Z</time></trkpt>
 <trkpt lat="52.049910300" lon="9.086637000"><ele>264</ele><time>2013-04-14T13:07:30Z</time></trkpt>
 <trkpt lat="52.049950400" lon="9.086601200"><ele>264</ele><time>2013-04-14T13:07:34Z</time></trkpt>
 <trkpt lat="52.049971200" lon="9.086558300"><ele>264</ele><time>2013-04-14T13:07:38Z</time></trkpt>
 <trkpt lat="52.049977400" lon="9.086542900"><ele>264</ele><time>2013-04-14T13:07:42Z</time></trkpt>
 <trkpt lat="52.049986600" lon="9.086539900"><ele>264</ele><time>2013-04-14T13:07:46Z</time></trkpt>
 <trkpt lat="52.050021200" lon="9.086472400"><ele>264</ele><time>2013-04-14T13:07:50Z</time></trkpt>
 <trkpt lat="52.050051200" lon="9.086411200"><ele>264</ele><time>2013-04-14T13:07:54Z</time></trkpt>
 <trkpt lat="52.050069500" lon="9.086360300"><ele>263</ele><time>2013-04-14T13:07:58Z</time></trkpt>
 <trkpt lat="52.050082400" lon="9.086363300"><ele>263</ele><time>2013-04-14T13:08:02Z</time></trkpt>
 <trkpt lat="52.050082400" lon="9.086363300"><ele>263</ele><time>2013-04-14T13:08:06Z</time></trkpt>
 <trkpt lat="52.050084100" lon="9.086353700"><ele>262</ele><time>2013-04-14T13:08:10Z</time></trkpt>
 <trkpt lat="52.050105300" lon="9.086299100"><ele>262</ele><time>2013-04-14T13:08:14Z</time></trkpt>
 <trkpt lat="52.050136200" lon="9.086244500"><ele>262</ele><time>2013-04-14T13:08:18Z</time></trkpt>
 <trkpt lat="52.050161200" lon="9.086203300"><ele>261</ele><time>2013-04-14T13:08:22Z</time></trkpt>
 <trkpt lat="52.050213700" lon="9.086152800"><ele>261</ele><time>2013-04-14T13:08:26Z</time></trkpt>
 <trkpt lat="52.050268700" lon="9.086091200"><ele>260</ele><time>2013-04-14T13:08:30Z</time></trkpt>
 <trkpt lat="52.050312000" lon="9.086050400"><ele>260</ele><time>2013-04-14T13:08:34Z</time></trkpt>
 <trkpt lat="52.050356600" lon="9.085997400"><ele>259</ele><time>2013-04-14T13:08:38Z</time></trkpt>
 <trkpt lat="52.050392800" lon="9.085960800"><ele>259</ele><time>2013-04-14T13:08:42Z</time></trkpt>
 <trkpt lat="52.050435000" lon="9.085922400"><ele>259</ele><time>2013-04-14T13:08:46Z</time></trkpt>
 <trkpt lat="52.050474100" lon="9.085879500"><ele>259</ele><time>2013-04-14T13:08:50Z</time></trkpt>
 <trkpt lat="52.050517800" lon="9.085832000"><ele>258</ele><time>2013-04-14T13:08:54Z</time></trkpt>
 <trkpt lat="52.050559900" lon="9.085784900"><ele>258</ele><time>2013-04-14T13:08:58Z</time></trkpt>
 <trkpt lat="52.050598300" lon="9.085723700"><ele>258</ele><time>2013-04-14T13:09:02Z</time></trkpt>
 <trkpt lat="52.050631600" lon="9.085674900"><ele>258</ele><time>2013-04-14T13:09:06Z</time></trkpt>
 <trkpt lat="52.050642400" lon="9.085668300"><ele>258</ele><time>2013-04-14T13:09:10Z</time></trkpt>
 <trkpt lat="52.050642400" lon="9.085668300"><ele>258</ele><time>2013-04-14T13:09:14Z</time></trkpt>
 <trkpt lat="52.050642400" lon="9.085668300"><ele>258</ele><time>2013-04-14T13:09:18Z</time></trkpt>
 <trkpt lat="52.050660800" lon="9.085653300"><ele>258</ele><time>2013-04-14T13:09:22Z</time></trkpt>
 <trkpt lat="52.050692000" lon="9.085602400"><ele>258</ele><time>2013-04-14T13:09:26Z</time></trkpt>
 <trkpt lat="52.050709100" lon="9.085535800"><ele>258</ele><time>2013-04-14T13:09:30Z</time></trkpt>
 <trkpt lat="52.050708300" lon="9.085454100"><ele>259</ele><time>2013-04-14T13:09:34Z</time></trkpt>
 <trkpt lat="52.050727900" lon="9.085391200"><ele>259</ele><time>2013-04-14T13:09:38Z</time></trkpt>
 <trkpt lat="52.050748700" lon="9.085308700"><ele>259</ele><time>2013-04-14T13:09:42Z</time></trkpt>
 <trkpt lat="52.050764100" lon="9.085237000"><ele>260</ele><time>2013-04-14T13:09:46Z</time></trkpt>
 <trkpt lat="52.050808300" lon="9.085152400"><ele>260</ele><time>2013-04-14T13:09:50Z</time></trkpt>
 <trkpt lat="52.050840700" lon="9.085074500"><ele>261</ele><time>2013-04-14T13:09:54Z</time></trkpt>
 <trkpt lat="52.050888700" lon="9.085015700"><ele>261</ele><time>2013-04-14T13:09:58Z</time></trkpt>
 <trkpt lat="52.050923700" lon="9.084942800"><ele>261</ele><time>2013-04-14T13:10:02Z</time></trkpt>
 <trkpt lat="52.050953700" lon="9.084875800"><ele>262</ele><time>2013-04-14T13:10:06Z</time></trkpt>
 <trkpt lat="52.050973300" lon="9.084817800"><ele>262</ele><time>2013-04-14T13:10:10Z</time></trkpt>
 <trkpt lat="52.050997000" lon="9.084767000"><ele>263</ele><time>2013-04-14T13:10:14Z</time></trkpt>
 <trkpt lat="52.051035400" lon="9.084704900"><ele>263</ele><time>2013-04-14T13:10:18Z</time></trkpt>
 <trkpt lat="52.051078700" lon="9.084647400"><ele>264</ele><time>2013-04-14T13:10:22Z</time></trkpt>
 <trkpt lat="52.051110800" lon="9.084579500"><ele>264</ele><time>2013-04-14T13:10:26Z</time></trkpt>
 <trkpt lat="52.051125400" lon="9.084516200"><ele>265</ele><time>2013-04-14T13:10:30Z</time></trkpt>
 <trkpt lat="52.051108300" lon="9.084412800"><ele>265</ele><time>2013-04-14T13:10:34Z</time></trkpt>
 <trkpt lat="52.051097800" lon="9.084367000"><ele>265</ele><time>2013-04-14T13:10:38Z</time></trkpt>
 <trkpt lat="52.051084500" lon="9.084361200"><ele>266</ele><time>2013-04-14T13:10:42Z</time></trkpt>
 <trkpt lat="52.051079500" lon="9.084311600"><ele>266</ele><time>2013-04-14T13:10:46Z</time></trkpt>
 <trkpt lat="52.051059100" lon="9.084260800"><ele>266</ele><time>2013-04-14T13:10:50Z</time></trkpt>
 <trkpt lat="52.051061600" lon="9.084198200"><ele>267</ele><time>2013-04-14T13:10:54Z</time></trkpt>
 <trkpt lat="52.051069900" lon="9.084139100"><ele>267</ele><time>2013-04-14T13:10:58Z</time></trkpt>
 <trkpt lat="52.051077900" lon="9.084082400"><ele>268</ele><time>2013-04-14T13:11:02Z</time></trkpt>
 <trkpt lat="52.051077400" lon="9.084034500"><ele>268</ele><time>2013-04-14T13:11:06Z</time></trkpt>
 <trkpt lat="52.051090400" lon="9.083999100"><ele>268</ele><time>2013-04-14T13:11:10Z</time></trkpt>
 <trkpt lat="52.051107400" lon="9.083944500"><ele>269</ele><time>2013-04-14T13:11:14Z</time></trkpt>
 <trkpt lat="52.051117400" lon="9.083872400"><ele>269</ele><time>2013-04-14T13:11:18Z</time></trkpt>
 <trkpt lat="52.051120800" lon="9.083808700"><ele>269</ele><time>2013-04-14T13:11:22Z</time></trkpt>
 <trkpt lat="52.051120400" lon="9.083746200"><ele>270</ele><time>2013-04-14T13:11:26Z</time></trkpt>
 <trkpt lat="52.051114900" lon="9.083702400"><ele>270</ele><time>2013-04-14T13:11:30Z</time></trkpt>
 <trkpt lat="52.051104100" lon="9.083650300"><ele>270</ele><time>2013-04-14T13:11:34Z</time></trkpt>
 <trkpt lat="52.051092800" lon="9.083592800"><ele>271</ele><time>2013-04-14T13:11:38Z</time></trkpt>
 <trkpt lat="52.051077800" lon="9.083532800"><ele>271</ele><time>2013-04-14T13:11:42Z</time></trkpt>
 <trkpt lat="52.051072000" lon="9.083477000"><ele>271</ele><time>2013-04-14T13:11:46Z</time></trkpt>
 <trkpt lat="52.051067400" lon="9.083409500"><ele>272</ele><time>2013-04-14T13:11:50Z</time></trkpt>
 <trkpt lat="52.051062400" lon="9.083332000"><ele>272</ele><time>2013-04-14T13:11:54Z</time></trkpt>
 <trkpt lat="52.051055300" lon="9.083249500"><ele>272</ele><time>2013-04-14T13:11:58Z</time></trkpt>
 <trkpt lat="52.051057000" lon="9.083177000"><ele>273</ele><time>2013-04-14T13:12:02Z</time></trkpt>
 <trkpt lat="52.051054900" lon="9.083119100"><ele>273</ele><time>2013-04-14T13:12:06Z</time></trkpt>
 <trkpt lat="52.051058700" lon="9.083076600"><ele>273</ele><time>2013-04-14T13:12:10Z</time></trkpt>
 <trkpt lat="52.051061200" lon="9.083030700"><ele>274</ele><time>2013-04-14T13:12:14Z</time></trkpt>
 <trkpt lat="52.051057400" lon="9.082981600"><ele>274</ele><time>2013-04-14T13:12:18Z</time></trkpt>
 <trkpt lat="52.051055400" lon="9.082917000"><ele>275</ele><time>2013-04-14T13:12:22Z</time></trkpt>
 <trkpt lat="52.051059500" lon="9.082854100"><ele>275</ele><time>2013-04-14T13:12:26Z</time></trkpt>
 <trkpt lat="52.051062000" lon="9.082781600"><ele>276</ele><time>2013-04-14T13:12:30Z</time></trkpt>
 <trkpt lat="52.051067800" lon="9.082721200"><ele>276</ele><time>2013-04-14T13:12:34Z</time></trkpt>
 <trkpt lat="52.051061600" lon="9.082654100"><ele>276</ele><time>2013-04-14T13:12:38Z</time></trkpt>
 <trkpt lat="52.051043300" lon="9.082603700"><ele>277</ele><time>2013-04-14T13:12:42Z</time></trkpt>
 <trkpt lat="52.051035800" lon="9.082589100"><ele>277</ele><time>2013-04-14T13:12:46Z</time></trkpt>
 <trkpt lat="52.051034900" lon="9.082535300"><ele>277</ele><time>2013-04-14T13:12:50Z</time></trkpt>
 <trkpt lat="52.051029900" lon="9.082477400"><ele>278</ele><time>2013-04-14T13:12:54Z</time></trkpt>
 <trkpt lat="52.051024900" lon="9.082419100"><ele>278</ele><time>2013-04-14T13:12:58Z</time></trkpt>
 <trkpt lat="52.051017000" lon="9.082387400"><ele>278</ele><time>2013-04-14T13:13:02Z</time></trkpt>
 <trkpt lat="52.051004100" lon="9.082368300"><ele>278</ele><time>2013-04-14T13:13:06Z</time></trkpt>
 <trkpt lat="52.051002000" lon="9.082342500"><ele>279</ele><time>2013-04-14T13:13:10Z</time></trkpt>
 <trkpt lat="52.050989100" lon="9.082316200"><ele>279</ele><time>2013-04-14T13:13:14Z</time></trkpt>
 <trkpt lat="52.050978300" lon="9.082277800"><ele>279</ele><time>2013-04-14T13:13:18Z</time></trkpt>
 <trkpt lat="52.050965800" lon="9.082247800"><ele>279</ele><time>2013-04-14T13:13:22Z</time></trkpt>
 <trkpt lat="52.050959500" lon="9.082198300"><ele>279</ele><time>2013-04-14T13:13:26Z</time></trkpt>
 <trkpt lat="52.050961600" lon="9.082136600"><ele>279</ele><time>2013-04-14T13:13:30Z</time></trkpt>
 <trkpt lat="52.050957000" lon="9.082083700"><ele>279</ele><time>2013-04-14T13:13:34Z</time></trkpt>
 <trkpt lat="52.050955800" lon="9.082020800"><ele>279</ele><time>2013-04-14T13:13:38Z</time></trkpt>
 <trkpt lat="52.050950800" lon="9.081967400"><ele>279</ele><time>2013-04-14T13:13:42Z</time></trkpt>
 <trkpt lat="52.050960300" lon="9.081891200"><ele>280</ele><time>2013-04-14T13:13:46Z</time></trkpt>
 <trkpt lat="52.050962800" lon="9.081827000"><ele>280</ele><time>2013-04-14T13:13:50Z</time></trkpt>
 <trkpt lat="52.050954100" lon="9.081780000"><ele>280</ele><time>2013-04-14T13:13:54Z</time></trkpt>
 <trkpt lat="52.050946200" lon="9.081732400"><ele>280</ele><time>2013-04-14T13:13:58Z</time></trkpt>
 <trkpt lat="52.050936200" lon="9.081684100"><ele>280</ele><time>2013-04-14T13:14:02Z</time></trkpt>
 <trkpt lat="52.050925800" lon="9.081657800"><ele>280</ele><time>2013-04-14T13:14:06Z</time></trkpt>
 <trkpt lat="52.050921200" lon="9.081651200"><ele>280</ele><time>2013-04-14T13:14:10Z</time></trkpt>
 <trkpt lat="52.050927400" lon="9.081613700"><ele>280</ele><time>2013-04-14T13:14:14Z</time></trkpt>
 <trkpt lat="52.050938700" lon="9.081558300"><ele>280</ele><time>2013-04-14T13:14:18Z</time></trkpt>
 <trkpt lat="52.050940000" lon="9.081548300"><ele>280</ele><time>2013-04-14T13:14:22Z</time></trkpt>
 <trkpt lat="52.050947800" lon="9.081511600"><ele>280</ele><time>2013-04-14T13:14:26Z</time></trkpt>
 <trkpt lat="52.050949900" lon="9.081472000"><ele>281</ele><time>2013-04-14T13:14:30Z</time></trkpt>
 <trkpt lat="52.050945300" lon="9.081424500"><ele>281</ele><time>2013-04-14T13:14:34Z</time></trkpt>
 <trkpt lat="52.050932900" lon="9.081368200"><ele>281</ele><time>2013-04-14T13:14:38Z</time></trkpt>
 <trkpt lat="52.050929900" lon="9.081286200"><ele>281</ele><time>2013-04-14T13:14:42Z</time></trkpt>
 <trkpt lat="52.050906600" lon="9.081207400"><ele>281</ele><time>2013-04-14T13:14:46Z</time></trkpt>
 <trkpt lat="52.050881200" lon="9.081129500"><ele>282</ele><time>2013-04-14T13:14:50Z</time></trkpt>
 <trkpt lat="52.050873700" lon="9.081079100"><ele>282</ele><time>2013-04-14T13:14:54Z</time></trkpt>
 <trkpt lat="52.050863700" lon="9.081006200"><ele>282</ele><time>2013-04-14T13:14:58Z</time></trkpt>
 <trkpt lat="52.050851200" lon="9.080919900"><ele>282</ele><time>2013-04-14T13:15:02Z</time></trkpt>
 <trkpt lat="52.050837800" lon="9.080842800"><ele>282</ele><time>2013-04-14T13:15:06Z</time></trkpt>
 <trkpt lat="52.050839500" lon="9.080801200"><ele>282</ele><time>2013-04-14T13:15:10Z</time></trkpt>
 <trkpt lat="52.050837900" lon="9.080776600"><ele>283</ele><time>2013-04-14T13:15:14Z</time></trkpt>
 <trkpt lat="52.050834500" lon="9.080767800"><ele>283</ele><time>2013-04-14T13:15:18Z</time></trkpt>
 <trkpt lat="52.050835800" lon="9.080730300"><ele>283</ele><time>2013-04-14T13:15:22Z</time></trkpt>
 <trkpt lat="52.050838700" lon="9.080666200"><ele>283</ele><time>2013-04-14T13:15:26Z</time></trkpt>
 <trkpt lat="52.050853300" lon="9.080609100"><ele>283</ele><time>2013-04-14T13:15:30Z</time></trkpt>
 <trkpt lat="52.050850800" lon="9.080532900"><ele>283</ele><time>2013-04-14T13:15:34Z</time></trkpt>
 <trkpt lat="52.050848300" lon="9.080448700"><ele>283</ele><time>2013-04-14T13:15:38Z</time></trkpt>
 <trkpt lat="52.050848300" lon="9.080384500"><ele>283</ele><time>2013-04-14T13:15:42Z</time></trkpt>
 <trkpt lat="52.050857400" lon="9.080330300"><ele>284</ele><time>2013-04-14T13:15:46Z</time></trkpt>
 <trkpt lat="52.050862400" lon="9.080264100"><ele>284</ele><time>2013-04-14T13:15:50Z</time></trkpt>
 <trkpt lat="52.050870800" lon="9.080199100"><ele>284</ele><time>2013-04-14T13:15:54Z</time></trkpt>
 <trkpt lat="52.050880300" lon="9.080130400"><ele>284</ele><time>2013-04-14T13:15:58Z</time></trkpt>
 <trkpt lat="52.050882800" lon="9.080063700"><ele>284</ele><time>2013-04-14T13:16:02Z</time></trkpt>
 <trkpt lat="52.050870300" lon="9.079982400"><ele>284</ele><time>2013-04-14T13:16:06Z</time></trkpt>
 <trkpt lat="52.050865800" lon="9.079910400"><ele>284</ele><time>2013-04-14T13:16:10Z</time></trkpt>
 <trkpt lat="52.050851600" lon="9.079832900"><ele>284</ele><time>2013-04-14T13:16:14Z</time></trkpt>
 <trkpt lat="52.050853700" lon="9.079771600"><ele>284</ele><time>2013-04-14T13:16:18Z</time></trkpt>
 <trkpt lat="52.050866200" lon="9.079709900"><ele>284</ele><time>2013-04-14T13:16:22Z</time></trkpt>
 <trkpt lat="52.050873300" lon="9.079651600"><ele>284</ele><time>2013-04-14T13:16:26Z</time></trkpt>
 <trkpt lat="52.050873700" lon="9.079588300"><ele>284</ele><time>2013-04-14T13:16:30Z</time></trkpt>
 <trkpt lat="52.050867000" lon="9.079514500"><ele>284</ele><time>2013-04-14T13:16:34Z</time></trkpt>
 <trkpt lat="52.050865300" lon="9.079431600"><ele>284</ele><time>2013-04-14T13:16:38Z</time></trkpt>
 <trkpt lat="52.050859100" lon="9.079338700"><ele>284</ele><time>2013-04-14T13:16:42Z</time></trkpt>
 <trkpt lat="52.050842000" lon="9.079275300"><ele>285</ele><time>2013-04-14T13:16:46Z</time></trkpt>
 <trkpt lat="52.050827800" lon="9.079209900"><ele>285</ele><time>2013-04-14T13:16:50Z</time></trkpt>
 <trkpt lat="52.050821600" lon="9.079141200"><ele>285</ele><time>2013-04-14T13:16:54Z</time></trkpt>
 <trkpt lat="52.050811600" lon="9.079079900"><ele>286</ele><time>2013-04-14T13:16:58Z</time></trkpt>
 <trkpt lat="52.050810700" lon="9.079019500"><ele>286</ele><time>2013-04-14T13:17:02Z</time></trkpt>
 <trkpt lat="52.050807400" lon="9.078969100"><ele>286</ele><time>2013-04-14T13:17:06Z</time></trkpt>
 <trkpt lat="52.050825800" lon="9.078928300"><ele>287</ele><time>2013-04-14T13:17:10Z</time></trkpt>
 <trkpt lat="52.050831200" lon="9.078878700"><ele>287</ele><time>2013-04-14T13:17:14Z</time></trkpt>
 <trkpt lat="52.050832400" lon="9.078856200"><ele>287</ele><time>2013-04-14T13:17:18Z</time></trkpt>
 <trkpt lat="52.050828300" lon="9.078847000"><ele>288</ele><time>2013-04-14T13:17:22Z</time></trkpt>
 <trkpt lat="52.050815800" lon="9.078816600"><ele>288</ele><time>2013-04-14T13:17:26Z</time></trkpt>
 <trkpt lat="52.050795800" lon="9.078802000"><ele>288</ele><time>2013-04-14T13:17:30Z</time></trkpt>
 <trkpt lat="52.050775700" lon="9.078772800"><ele>289</ele><time>2013-04-14T13:17:34Z</time></trkpt>
 <trkpt lat="52.050767000" lon="9.078716600"><ele>289</ele><time>2013-04-14T13:17:38Z</time></trkpt>
 <trkpt lat="52.050760300" lon="9.078676200"><ele>289</ele><time>2013-04-14T13:17:42Z</time></trkpt>
 <trkpt lat="52.050754900" lon="9.078622400"><ele>290</ele><time>2013-04-14T13:17:46Z</time></trkpt>
 <trkpt lat="52.050739500" lon="9.078566200"><ele>290</ele><time>2013-04-14T13:17:50Z</time></trkpt>
 <trkpt lat="52.050724100" lon="9.078502900"><ele>290</ele><time>2013-04-14T13:17:54Z</time></trkpt>
 <trkpt lat="52.050717000" lon="9.078447400"><ele>291</ele><time>2013-04-14T13:17:58Z</time></trkpt>
 <trkpt lat="52.050721200" lon="9.078390800"><ele>291</ele><time>2013-04-14T13:18:02Z</time></trkpt>
 <trkpt lat="52.050719500" lon="9.078331600"><ele>291</ele><time>2013-04-14T13:18:06Z</time></trkpt>
 <trkpt lat="52.050727400" lon="9.078287000"><ele>291</ele><time>2013-04-14T13:18:10Z</time></trkpt>
 <trkpt lat="52.050732400" lon="9.078237400"><ele>292</ele><time>2013-04-14T13:18:14Z</time></trkpt>
 <trkpt lat="52.050742400" lon="9.078178700"><ele>292</ele><time>2013-04-14T13:18:18Z</time></trkpt>
 <trkpt lat="52.050744500" lon="9.078119100"><ele>292</ele><time>2013-04-14T13:18:22Z</time></trkpt>
 <trkpt lat="52.050744900" lon="9.078041200"><ele>293</ele><time>2013-04-14T13:18:26Z</time></trkpt>
 <trkpt lat="52.050726200" lon="9.077942500"><ele>293</ele><time>2013-04-14T13:18:30Z</time></trkpt>
 <trkpt lat="52.050690400" lon="9.077841200"><ele>293</ele><time>2013-04-14T13:18:34Z</time></trkpt>
 <trkpt lat="52.050663200" lon="9.077784100"><ele>294</ele><time>2013-04-14T13:18:38Z</time></trkpt>
 <trkpt lat="52.050630400" lon="9.077723700"><ele>294</ele><time>2013-04-14T13:18:42Z</time></trkpt>
 <trkpt lat="52.050609900" lon="9.077668200"><ele>295</ele><time>2013-04-14T13:18:46Z</time></trkpt>
 <trkpt lat="52.050593300" lon="9.077602000"><ele>295</ele><time>2013-04-14T13:18:50Z</time></trkpt>
 <trkpt lat="52.050581600" lon="9.077527000"><ele>295</ele><time>2013-04-14T13:18:54Z</time></trkpt>
 <trkpt lat="52.050556200" lon="9.077430300"><ele>296</ele><time>2013-04-14T13:18:58Z</time></trkpt>
 <trkpt lat="52.050528300" lon="9.077298300"><ele>296</ele><time>2013-04-14T13:19:02Z</time></trkpt>
 <trkpt lat="52.050513300" lon="9.077195300"><ele>297</ele><time>2013-04-14T13:19:06Z</time></trkpt>
 <trkpt lat="52.050505300" lon="9.077144900"><ele>297</ele><time>2013-04-14T13:19:10Z</time></trkpt>
 <trkpt lat="52.050483300" lon="9.077103300"><ele>297</ele><time>2013-04-14T13:19:14Z</time></trkpt>
 <trkpt lat="52.050474100" lon="9.077065800"><ele>298</ele><time>2013-04-14T13:19:18Z</time></trkpt>
 <trkpt lat="52.050461200" lon="9.077019500"><ele>298</ele><time>2013-04-14T13:19:22Z</time></trkpt>
 <trkpt lat="52.050444500" lon="9.076936600"><ele>299</ele><time>2013-04-14T13:19:26Z</time></trkpt>
 <trkpt lat="52.050426600" lon="9.076875800"><ele>299</ele><time>2013-04-14T13:19:30Z</time></trkpt>
 <trkpt lat="52.050395400" lon="9.076810800"><ele>300</ele><time>2013-04-14T13:19:34Z</time></trkpt>
 <trkpt lat="52.050354100" lon="9.076732800"><ele>300</ele><time>2013-04-14T13:19:38Z</time></trkpt>
 <trkpt lat="52.050324500" lon="9.076630300"><ele>301</ele><time>2013-04-14T13:19:42Z</time></trkpt>
 <trkpt lat="52.050301600" lon="9.076554900"><ele>301</ele><time>2013-04-14T13:19:46Z</time></trkpt>
 <trkpt lat="52.050284900" lon="9.076503700"><ele>302</ele><time>2013-04-14T13:19:50Z</time></trkpt>
 <trkpt lat="52.050263200" lon="9.076466200"><ele>302</ele><time>2013-04-14T13:19:54Z</time></trkpt>
 <trkpt lat="52.050244900" lon="9.076415300"><ele>303</ele><time>2013-04-14T13:19:58Z</time></trkpt>
 <trkpt lat="52.050242800" lon="9.076357800"><ele>303</ele><time>2013-04-14T13:20:02Z</time></trkpt>
 <trkpt lat="52.050233300" lon="9.076268700"><ele>304</ele><time>2013-04-14T13:20:06Z</time></trkpt>
 <trkpt lat="52.050222800" lon="9.076205800"><ele>304</ele><time>2013-04-14T13:20:10Z</time></trkpt>
 <trkpt lat="52.050217800" lon="9.076142400"><ele>305</ele><time>2013-04-14T13:20:14Z</time></trkpt>
 <trkpt lat="52.050217800" lon="9.076073700"><ele>305</ele><time>2013-04-14T13:20:18Z</time></trkpt>
 <trkpt lat="52.050223700" lon="9.076012800"><ele>306</ele><time>2013-04-14T13:20:22Z</time></trkpt>
 <trkpt lat="52.050234900" lon="9.075948700"><ele>306</ele><time>2013-04-14T13:20:26Z</time></trkpt>
 <trkpt lat="52.050245700" lon="9.075866600"><ele>307</ele><time>2013-04-14T13:20:30Z</time></trkpt>
 <trkpt lat="52.050244100" lon="9.075789100"><ele>307</ele><time>2013-04-14T13:20:34Z</time></trkpt>
 <trkpt lat="52.050250400" lon="9.075709900"><ele>307</ele><time>2013-04-14T13:20:38Z</time></trkpt>
 <trkpt lat="52.050262400" lon="9.075634100"><ele>308</ele><time>2013-04-14T13:20:42Z</time></trkpt>
 <trkpt lat="52.050265000" lon="9.075567400"><ele>308</ele><time>2013-04-14T13:20:46Z</time></trkpt>
 <trkpt lat="52.050256600" lon="9.075502000"><ele>308</ele><time>2013-04-14T13:20:50Z</time></trkpt>
 <trkpt lat="52.050251200" lon="9.075428300"><ele>308</ele><time>2013-04-14T13:20:54Z</time></trkpt>
 <trkpt lat="52.050247400" lon="9.075337900"><ele>309</ele><time>2013-04-14T13:20:58Z</time></trkpt>
 <trkpt lat="52.050248200" lon="9.075244900"><ele>309</ele><time>2013-04-14T13:21:02Z</time></trkpt>
 <trkpt lat="52.050263700" lon="9.075167000"><ele>309</ele><time>2013-04-14T13:21:06Z</time></trkpt>
 <trkpt lat="52.050285300" lon="9.075068700"><ele>309</ele><time>2013-04-14T13:21:10Z</time></trkpt>
 <trkpt lat="52.050312900" lon="9.074985400"><ele>310</ele><time>2013-04-14T13:21:14Z</time></trkpt>
 <trkpt lat="52.050346200" lon="9.074907400"><ele>310</ele><time>2013-04-14T13:21:18Z</time></trkpt>
 <trkpt lat="52.050369100" lon="9.074836200"><ele>310</ele><time>2013-04-14T13:21:22Z</time></trkpt>
 <trkpt lat="52.050379100" lon="9.074752000"><ele>310</ele><time>2013-04-14T13:21:26Z</time></trkpt>
 <trkpt lat="52.050387000" lon="9.074667900"><ele>310</ele><time>2013-04-14T13:21:30Z</time></trkpt>
 <trkpt lat="52.050399500" lon="9.074581200"><ele>310</ele><time>2013-04-14T13:21:34Z</time></trkpt>
 <trkpt lat="52.050414100" lon="9.074506200"><ele>311</ele><time>2013-04-14T13:21:38Z</time></trkpt>
 <trkpt lat="52.050422400" lon="9.074419500"><ele>311</ele><time>2013-04-14T13:21:42Z</time></trkpt>
 <trkpt lat="52.050444500" lon="9.074354500"><ele>311</ele><time>2013-04-14T13:21:46Z</time></trkpt>
 <trkpt lat="52.050457000" lon="9.074285300"><ele>311</ele><time>2013-04-14T13:21:50Z</time></trkpt>
 <trkpt lat="52.050447400" lon="9.074225800"><ele>311</ele><time>2013-04-14T13:21:54Z</time></trkpt>
 <trkpt lat="52.050426200" lon="9.074169500"><ele>311</ele><time>2013-04-14T13:21:58Z</time></trkpt>
 <trkpt lat="52.050400800" lon="9.074112900"><ele>311</ele><time>2013-04-14T13:22:02Z</time></trkpt>
 <trkpt lat="52.050378700" lon="9.074044500"><ele>311</ele><time>2013-04-14T13:22:06Z</time></trkpt>
 <trkpt lat="52.050358300" lon="9.073968700"><ele>311</ele><time>2013-04-14T13:22:10Z</time></trkpt>
 <trkpt lat="52.050344900" lon="9.073885800"><ele>311</ele><time>2013-04-14T13:22:14Z</time></trkpt>
 <trkpt lat="52.050340300" lon="9.073752400"><ele>311</ele><time>2013-04-14T13:22:18Z</time></trkpt>
 <trkpt lat="52.050326600" lon="9.073641600"><ele>311</ele><time>2013-04-14T13:22:22Z</time></trkpt>
 <trkpt lat="52.050317000" lon="9.073573700"><ele>311</ele><time>2013-04-14T13:22:26Z</time></trkpt>
 <trkpt lat="52.050332800" lon="9.073503700"><ele>311</ele><time>2013-04-14T13:22:30Z</time></trkpt>
 <trkpt lat="52.050352400" lon="9.073424100"><ele>311</ele><time>2013-04-14T13:22:34Z</time></trkpt>
 <trkpt lat="52.050371600" lon="9.073348300"><ele>311</ele><time>2013-04-14T13:22:38Z</time></trkpt>
 <trkpt lat="52.050380800" lon="9.073277000"><ele>311</ele><time>2013-04-14T13:22:42Z</time></trkpt>
 <trkpt lat="52.050397000" lon="9.073197400"><ele>311</ele><time>2013-04-14T13:22:46Z</time></trkpt>
 <trkpt lat="52.050409100" lon="9.073164100"><ele>310</ele><time>2013-04-14T13:22:50Z</time></trkpt>
 <trkpt lat="52.050420800" lon="9.073098700"><ele>310</ele><time>2013-04-14T13:22:54Z</time></trkpt>
 <trkpt lat="52.050416600" lon="9.073020800"><ele>310</ele><time>2013-04-14T13:22:58Z</time></trkpt>
 <trkpt lat="52.050398700" lon="9.072941600"><ele>310</ele><time>2013-04-14T13:23:02Z</time></trkpt>
 <trkpt lat="52.050377800" lon="9.072875300"><ele>310</ele><time>2013-04-14T13:23:06Z</time></trkpt>
 <trkpt lat="52.050353700" lon="9.072821600"><ele>310</ele><time>2013-04-14T13:23:10Z</time></trkpt>
 <trkpt lat="52.050327400" lon="9.072780800"><ele>310</ele><time>2013-04-14T13:23:14Z</time></trkpt>
 <trkpt lat="52.050307400" lon="9.072741600"><ele>310</ele><time>2013-04-14T13:23:18Z</time></trkpt>
 <trkpt lat="52.050292800" lon="9.072712000"><ele>310</ele><time>2013-04-14T13:23:22Z</time></trkpt>
 <trkpt lat="52.050262000" lon="9.072673300"><ele>310</ele><time>2013-04-14T13:23:26Z</time></trkpt>
 <trkpt lat="52.050235300" lon="9.072633300"><ele>310</ele><time>2013-04-14T13:23:30Z</time></trkpt>
 <trkpt lat="52.050214500" lon="9.072589900"><ele>310</ele><time>2013-04-14T13:23:34Z</time></trkpt>
 <trkpt lat="52.050196200" lon="9.072551200"><ele>310</ele><time>2013-04-14T13:23:38Z</time></trkpt>
 <trkpt lat="52.050167900" lon="9.072507800"><ele>310</ele><time>2013-04-14T13:23:42Z</time></trkpt>
 <trkpt lat="52.050145300" lon="9.072457900"><ele>310</ele><time>2013-04-14T13:23:46Z</time></trkpt>
 <trkpt lat="52.050119500" lon="9.072401600"><ele>310</ele><time>2013-04-14T13:23:50Z</time></trkpt>
 <trkpt lat="52.050088700" lon="9.072338200"><ele>310</ele><time>2013-04-14T13:23:54Z</time></trkpt>
 <trkpt lat="52.050052900" lon="9.072294500"><ele>310</ele><time>2013-04-14T13:23:58Z</time></trkpt>
 <trkpt lat="52.050015400" lon="9.072249900"><ele>310</ele><time>2013-04-14T13:24:02Z</time></trkpt>
 <trkpt lat="52.049979500" lon="9.072222400"><ele>310</ele><time>2013-04-14T13:24:06Z</time></trkpt>
 <trkpt lat="52.049945300" lon="9.072187400"><ele>310</ele><time>2013-04-14T13:24:10Z</time></trkpt>
 <trkpt lat="52.049913300" lon="9.072141200"><ele>310</ele><time>2013-04-14T13:24:14Z</time></trkpt>
 <trkpt lat="52.049880400" lon="9.072107900"><ele>311</ele><time>2013-04-14T13:24:18Z</time></trkpt>
 <trkpt lat="52.049844500" lon="9.072074500"><ele>311</ele><time>2013-04-14T13:24:22Z</time></trkpt>
 <trkpt lat="52.049814900" lon="9.072061200"><ele>311</ele><time>2013-04-14T13:24:26Z</time></trkpt>
 <trkpt lat="52.049780400" lon="9.072055300"><ele>311</ele><time>2013-04-14T13:24:30Z</time></trkpt>
 <trkpt lat="52.049754900" lon="9.072043200"><ele>311</ele><time>2013-04-14T13:24:34Z</time></trkpt>
 <trkpt lat="52.049720300" lon="9.072023700"><ele>311</ele><time>2013-04-14T13:24:38Z</time></trkpt>
 <trkpt lat="52.049700300" lon="9.072010400"><ele>311</ele><time>2013-04-14T13:24:42Z</time></trkpt>
 <trkpt lat="52.049679900" lon="9.071976600"><ele>312</ele><time>2013-04-14T13:24:46Z</time></trkpt>
 <trkpt lat="52.049661600" lon="9.071962800"><ele>312</ele><time>2013-04-14T13:24:50Z</time></trkpt>
 <trkpt lat="52.049661600" lon="9.071962800"><ele>312</ele><time>2013-04-14T13:24:54Z</time></trkpt>
 <trkpt lat="52.049654900" lon="9.071961600"><ele>312</ele><time>2013-04-14T13:24:58Z</time></trkpt>
 <trkpt lat="52.049649500" lon="9.071961600"><ele>312</ele><time>2013-04-14T13:25:02Z</time></trkpt>
 <trkpt lat="52.049616200" lon="9.071957900"><ele>312</ele><time>2013-04-14T13:25:06Z</time></trkpt>
 <trkpt lat="52.049609100" lon="9.071937000"><ele>312</ele><time>2013-04-14T13:25:10Z</time></trkpt>
 <trkpt lat="52.049609100" lon="9.071937000"><ele>312</ele><time>2013-04-14T13:25:14Z</time></trkpt>
 <trkpt lat="52.049596200" lon="9.071932000"><ele>312</ele><time>2013-04-14T13:25:18Z</time></trkpt>
 <trkpt lat="52.049571200" lon="9.071942800"><ele>312</ele><time>2013-04-14T13:25:22Z</time></trkpt>
 <trkpt lat="52.049533700" lon="9.071929100"><ele>312</ele><time>2013-04-14T13:25:26Z</time></trkpt>
 <trkpt lat="52.049485000" lon="9.071913300"><ele>313</ele><time>2013-04-14T13:25:30Z</time></trkpt>
 <trkpt lat="52.049436600" lon="9.071873300"><ele>313</ele><time>2013-04-14T13:25:34Z</time></trkpt>
 <trkpt lat="52.049393200" lon="9.071861600"><ele>313</ele><time>2013-04-14T13:25:38Z</time></trkpt>
 <trkpt lat="52.049362000" lon="9.071865400"><ele>313</ele><time>2013-04-14T13:25:42Z</time></trkpt>
 <trkpt lat="52.049327000" lon="9.071898700"><ele>313</ele><time>2013-04-14T13:25:46Z</time></trkpt>
 <trkpt lat="52.049291200" lon="9.071918700"><ele>313</ele><time>2013-04-14T13:25:50Z</time></trkpt>
 <trkpt lat="52.049245700" lon="9.071939500"><ele>314</ele><time>2013-04-14T13:25:54Z</time></trkpt>
 <trkpt lat="52.049199100" lon="9.071962800"><ele>314</ele><time>2013-04-14T13:25:58Z</time></trkpt>
 <trkpt lat="52.049156200" lon="9.071975800"><ele>314</ele><time>2013-04-14T13:26:02Z</time></trkpt>
 <trkpt lat="52.049122000" lon="9.071963300"><ele>315</ele><time>2013-04-14T13:26:06Z</time></trkpt>
 <trkpt lat="52.049077400" lon="9.071987900"><ele>315</ele><time>2013-04-14T13:26:10Z</time></trkpt>
 <trkpt lat="52.049035000" lon="9.071992000"><ele>316</ele><time>2013-04-14T13:26:14Z</time></trkpt>
 <trkpt lat="52.049003300" lon="9.071954900"><ele>316</ele><time>2013-04-14T13:26:18Z</time></trkpt>
 <trkpt lat="52.048987000" lon="9.071893700"><ele>316</ele><time>2013-04-14T13:26:22Z</time></trkpt>
 <trkpt lat="52.048982000" lon="9.071824100"><ele>317</ele><time>2013-04-14T13:26:26Z</time></trkpt>
 <trkpt lat="52.048972000" lon="9.071782400"><ele>317</ele><time>2013-04-14T13:26:30Z</time></trkpt>
 <trkpt lat="52.048967800" lon="9.071747800"><ele>317</ele><time>2013-04-14T13:26:34Z</time></trkpt>
 <trkpt lat="52.048962400" lon="9.071692000"><ele>318</ele><time>2013-04-14T13:26:38Z</time></trkpt>
 <trkpt lat="52.048946600" lon="9.071602800"><ele>318</ele><time>2013-04-14T13:26:42Z</time></trkpt>
 <trkpt lat="52.048927900" lon="9.071508700"><ele>318</ele><time>2013-04-14T13:26:46Z</time></trkpt>
 <trkpt lat="52.048919100" lon="9.071445400"><ele>319</ele><time>2013-04-14T13:26:50Z</time></trkpt>
 <trkpt lat="52.048911600" lon="9.071361600"><ele>319</ele><time>2013-04-14T13:26:54Z</time></trkpt>
 <trkpt lat="52.048912800" lon="9.071290800"><ele>319</ele><time>2013-04-14T13:26:58Z</time></trkpt>
 <trkpt lat="52.048906600" lon="9.071204500"><ele>320</ele><time>2013-04-14T13:27:02Z</time></trkpt>
 <trkpt lat="52.048889500" lon="9.071122800"><ele>320</ele><time>2013-04-14T13:27:06Z</time></trkpt>
 <trkpt lat="52.048884500" lon="9.071057800"><ele>320</ele><time>2013-04-14T13:27:10Z</time></trkpt>
 <trkpt lat="52.048879900" lon="9.070984500"><ele>320</ele><time>2013-04-14T13:27:14Z</time></trkpt>
 <trkpt lat="52.048879500" lon="9.070897000"><ele>321</ele><time>2013-04-14T13:27:19Z</time></trkpt>
 <trkpt lat="52.048869900" lon="9.070816200"><ele>321</ele><time>2013-04-14T13:27:22Z</time></trkpt>
 <trkpt lat="52.048864500" lon="9.070725800"><ele>321</ele><time>2013-04-14T13:27:26Z</time></trkpt>
 <trkpt lat="52.048859500" lon="9.070647800"><ele>321</ele><time>2013-04-14T13:27:30Z</time></trkpt>
 <trkpt lat="52.048851200" lon="9.070561600"><ele>322</ele><time>2013-04-14T13:27:34Z</time></trkpt>
 <trkpt lat="52.048847800" lon="9.070494500"><ele>322</ele><time>2013-04-14T13:27:38Z</time></trkpt>
 <trkpt lat="52.048843700" lon="9.070411600"><ele>322</ele><time>2013-04-14T13:27:42Z</time></trkpt>
 <trkpt lat="52.048837000" lon="9.070333200"><ele>322</ele><time>2013-04-14T13:27:46Z</time></trkpt>
 <trkpt lat="52.048835800" lon="9.070262800"><ele>322</ele><time>2013-04-14T13:27:50Z</time></trkpt>
 <trkpt lat="52.048838300" lon="9.070188700"><ele>323</ele><time>2013-04-14T13:27:55Z</time></trkpt>
 <trkpt lat="52.048837900" lon="9.070104500"><ele>323</ele><time>2013-04-14T13:27:59Z</time></trkpt>
 <trkpt lat="52.048832800" lon="9.070028700"><ele>323</ele><time>2013-04-14T13:28:02Z</time></trkpt>
 <trkpt lat="52.048830300" lon="9.069952800"><ele>323</ele><time>2013-04-14T13:28:06Z</time></trkpt>
 <trkpt lat="52.048832800" lon="9.069893200"><ele>324</ele><time>2013-04-14T13:28:10Z</time></trkpt>
 <trkpt lat="52.048832800" lon="9.069893200"><ele>324</ele><time>2013-04-14T13:28:14Z</time></trkpt>
 <trkpt lat="52.048830000" lon="9.069883700"><ele>324</ele><time>2013-04-14T13:28:18Z</time></trkpt>
 <trkpt lat="52.048827400" lon="9.069864100"><ele>324</ele><time>2013-04-14T13:28:22Z</time></trkpt>
 <trkpt lat="52.048826600" lon="9.069844500"><ele>325</ele><time>2013-04-14T13:28:26Z</time></trkpt>
 <trkpt lat="52.048829900" lon="9.069784900"><ele>325</ele><time>2013-04-14T13:28:31Z</time></trkpt>
 <trkpt lat="52.048833300" lon="9.069703300"><ele>325</ele><time>2013-04-14T13:28:34Z</time></trkpt>
 <trkpt lat="52.048832800" lon="9.069614900"><ele>325</ele><time>2013-04-14T13:28:38Z</time></trkpt>
 <trkpt lat="52.048830300" lon="9.069539900"><ele>326</ele><time>2013-04-14T13:28:42Z</time></trkpt>
 <trkpt lat="52.048839100" lon="9.069454500"><ele>326</ele><time>2013-04-14T13:28:46Z</time></trkpt>
 <trkpt lat="52.048829500" lon="9.069384100"><ele>326</ele><time>2013-04-14T13:28:50Z</time></trkpt>
 <trkpt lat="52.048824500" lon="9.069312900"><ele>326</ele><time>2013-04-14T13:28:54Z</time></trkpt>
 <trkpt lat="52.048821200" lon="9.069246600"><ele>326</ele><time>2013-04-14T13:28:59Z</time></trkpt>
 <trkpt lat="52.048809900" lon="9.069167800"><ele>326</ele><time>2013-04-14T13:29:03Z</time></trkpt>
 <trkpt lat="52.048802800" lon="9.069089500"><ele>326</ele><time>2013-04-14T13:29:07Z</time></trkpt>
 <trkpt lat="52.048801600" lon="9.069010300"><ele>326</ele><time>2013-04-14T13:29:10Z</time></trkpt>
 <trkpt lat="52.048797800" lon="9.068950700"><ele>326</ele><time>2013-04-14T13:29:15Z</time></trkpt>
 <trkpt lat="52.048794500" lon="9.068889900"><ele>326</ele><time>2013-04-14T13:29:18Z</time></trkpt>
 <trkpt lat="52.048787800" lon="9.068819900"><ele>326</ele><time>2013-04-14T13:29:22Z</time></trkpt>
 <trkpt lat="52.048782000" lon="9.068752400"><ele>326</ele><time>2013-04-14T13:29:26Z</time></trkpt>
 <trkpt lat="52.048792400" lon="9.068687000"><ele>326</ele><time>2013-04-14T13:29:30Z</time></trkpt>
 <trkpt lat="52.048798300" lon="9.068599900"><ele>326</ele><time>2013-04-14T13:29:34Z</time></trkpt>
 <trkpt lat="52.048802400" lon="9.068514900"><ele>326</ele><time>2013-04-14T13:29:38Z</time></trkpt>
 <trkpt lat="52.048799100" lon="9.068427400"><ele>326</ele><time>2013-04-14T13:29:43Z</time></trkpt>
 <trkpt lat="52.048797400" lon="9.068347000"><ele>326</ele><time>2013-04-14T13:29:46Z</time></trkpt>
 <trkpt lat="52.048794100" lon="9.068269100"><ele>326</ele><time>2013-04-14T13:29:50Z</time></trkpt>
 <trkpt lat="52.048797400" lon="9.068192400"><ele>327</ele><time>2013-04-14T13:29:54Z</time></trkpt>
 <trkpt lat="52.048797000" lon="9.068109500"><ele>327</ele><time>2013-04-14T13:29:58Z</time></trkpt>
 <trkpt lat="52.048795400" lon="9.068029900"><ele>327</ele><time>2013-04-14T13:30:02Z</time></trkpt>
 <trkpt lat="52.048789900" lon="9.067966200"><ele>327</ele><time>2013-04-14T13:30:06Z</time></trkpt>
 <trkpt lat="52.048790800" lon="9.067914900"><ele>327</ele><time>2013-04-14T13:30:10Z</time></trkpt>
 <trkpt lat="52.048795300" lon="9.067829900"><ele>327</ele><time>2013-04-14T13:30:14Z</time></trkpt>
 <trkpt lat="52.048796600" lon="9.067757400"><ele>328</ele><time>2013-04-14T13:30:18Z</time></trkpt>
 <trkpt lat="52.048803700" lon="9.067677000"><ele>328</ele><time>2013-04-14T13:30:22Z</time></trkpt>
 <trkpt lat="52.048811200" lon="9.067610400"><ele>328</ele><time>2013-04-14T13:30:26Z</time></trkpt>
 <trkpt lat="52.048817400" lon="9.067537400"><ele>328</ele><time>2013-04-14T13:30:30Z</time></trkpt>
 <trkpt lat="52.048832400" lon="9.067459500"><ele>328</ele><time>2013-04-14T13:30:34Z</time></trkpt>
 <trkpt lat="52.048836600" lon="9.067382000"><ele>328</ele><time>2013-04-14T13:30:38Z</time></trkpt>
 <trkpt lat="52.048843300" lon="9.067305400"><ele>329</ele><time>2013-04-14T13:30:42Z</time></trkpt>
 <trkpt lat="52.048843300" lon="9.067239100"><ele>329</ele><time>2013-04-14T13:30:46Z</time></trkpt>
 <trkpt lat="52.048847000" lon="9.067161600"><ele>329</ele><time>2013-04-14T13:30:50Z</time></trkpt>
 <trkpt lat="52.048857400" lon="9.067086600"><ele>329</ele><time>2013-04-14T13:30:54Z</time></trkpt>
 <trkpt lat="52.048863300" lon="9.067009500"><ele>329</ele><time>2013-04-14T13:30:58Z</time></trkpt>
 <trkpt lat="52.048869500" lon="9.066943700"><ele>330</ele><time>2013-04-14T13:31:02Z</time></trkpt>
 <trkpt lat="52.048884100" lon="9.066869900"><ele>330</ele><time>2013-04-14T13:31:06Z</time></trkpt>
 <trkpt lat="52.048889500" lon="9.066802400"><ele>330</ele><time>2013-04-14T13:31:10Z</time></trkpt>
 <trkpt lat="52.048906600" lon="9.066740300"><ele>331</ele><time>2013-04-14T13:31:14Z</time></trkpt>
 <trkpt lat="52.048922400" lon="9.066678700"><ele>331</ele><time>2013-04-14T13:31:18Z</time></trkpt>
 <trkpt lat="52.048927800" lon="9.066602800"><ele>332</ele><time>2013-04-14T13:31:22Z</time></trkpt>
 <trkpt lat="52.048933300" lon="9.066519100"><ele>332</ele><time>2013-04-14T13:31:26Z</time></trkpt>
 <trkpt lat="52.048955300" lon="9.066443700"><ele>333</ele><time>2013-04-14T13:31:30Z</time></trkpt>
 <trkpt lat="52.048974100" lon="9.066364100"><ele>333</ele><time>2013-04-14T13:31:34Z</time></trkpt>
 <trkpt lat="52.048992400" lon="9.066286600"><ele>334</ele><time>2013-04-14T13:31:38Z</time></trkpt>
 <trkpt lat="52.049017000" lon="9.066209500"><ele>334</ele><time>2013-04-14T13:31:42Z</time></trkpt>
 <trkpt lat="52.049027000" lon="9.066157000"><ele>335</ele><time>2013-04-14T13:31:46Z</time></trkpt>
 <trkpt lat="52.049034500" lon="9.066112000"><ele>336</ele><time>2013-04-14T13:31:50Z</time></trkpt>
 <trkpt lat="52.049043700" lon="9.066036200"><ele>336</ele><time>2013-04-14T13:31:54Z</time></trkpt>
 <trkpt lat="52.049060800" lon="9.065967400"><ele>337</ele><time>2013-04-14T13:31:58Z</time></trkpt>
 <trkpt lat="52.049076600" lon="9.065894100"><ele>337</ele><time>2013-04-14T13:32:02Z</time></trkpt>
 <trkpt lat="52.049094100" lon="9.065822400"><ele>338</ele><time>2013-04-14T13:32:06Z</time></trkpt>
 <trkpt lat="52.049115800" lon="9.065740700"><ele>338</ele><time>2013-04-14T13:32:10Z</time></trkpt>
 <trkpt lat="52.049145800" lon="9.065672800"><ele>339</ele><time>2013-04-14T13:32:14Z</time></trkpt>
 <trkpt lat="52.049167400" lon="9.065596200"><ele>339</ele><time>2013-04-14T13:32:18Z</time></trkpt>
 <trkpt lat="52.049187000" lon="9.065544500"><ele>339</ele><time>2013-04-14T13:32:22Z</time></trkpt>
 <trkpt lat="52.049201200" lon="9.065478300"><ele>340</ele><time>2013-04-14T13:32:26Z</time></trkpt>
 <trkpt lat="52.049214100" lon="9.065429500"><ele>340</ele><time>2013-04-14T13:32:30Z</time></trkpt>
 <trkpt lat="52.049229500" lon="9.065367400"><ele>340</ele><time>2013-04-14T13:32:34Z</time></trkpt>
 <trkpt lat="52.049250800" lon="9.065301200"><ele>340</ele><time>2013-04-14T13:32:38Z</time></trkpt>
 <trkpt lat="52.049273700" lon="9.065222800"><ele>340</ele><time>2013-04-14T13:32:42Z</time></trkpt>
 <trkpt lat="52.049304500" lon="9.065161600"><ele>340</ele><time>2013-04-14T13:32:46Z</time></trkpt>
 <trkpt lat="52.049329100" lon="9.065100400"><ele>340</ele><time>2013-04-14T13:32:50Z</time></trkpt>
 <trkpt lat="52.049365300" lon="9.065061600"><ele>340</ele><time>2013-04-14T13:32:54Z</time></trkpt>
 <trkpt lat="52.049389100" lon="9.065019900"><ele>339</ele><time>2013-04-14T13:32:58Z</time></trkpt>
 <trkpt lat="52.049400800" lon="9.064972000"><ele>339</ele><time>2013-04-14T13:33:02Z</time></trkpt>
 <trkpt lat="52.049420800" lon="9.064941600"><ele>339</ele><time>2013-04-14T13:33:06Z</time></trkpt>
 <trkpt lat="52.049453300" lon="9.064934100"><ele>339</ele><time>2013-04-14T13:33:10Z</time></trkpt>
 <trkpt lat="52.049487000" lon="9.064924500"><ele>338</ele><time>2013-04-14T13:33:14Z</time></trkpt>
 <trkpt lat="52.049537000" lon="9.064916600"><ele>338</ele><time>2013-04-14T13:33:18Z</time></trkpt>
 <trkpt lat="52.049573700" lon="9.064913300"><ele>337</ele><time>2013-04-14T13:33:22Z</time></trkpt>
 <trkpt lat="52.049620400" lon="9.064928700"><ele>337</ele><time>2013-04-14T13:33:26Z</time></trkpt>
 <trkpt lat="52.049657400" lon="9.064932000"><ele>336</ele><time>2013-04-14T13:33:30Z</time></trkpt>
 <trkpt lat="52.049697900" lon="9.064939900"><ele>336</ele><time>2013-04-14T13:33:34Z</time></trkpt>
 <trkpt lat="52.049737000" lon="9.064946200"><ele>335</ele><time>2013-04-14T13:33:38Z</time></trkpt>
 <trkpt lat="52.049780300" lon="9.064943300"><ele>335</ele><time>2013-04-14T13:33:42Z</time></trkpt>
 <trkpt lat="52.049832000" lon="9.064942800"><ele>335</ele><time>2013-04-14T13:33:46Z</time></trkpt>
 <trkpt lat="52.049877800" lon="9.064956600"><ele>335</ele><time>2013-04-14T13:33:50Z</time></trkpt>
 <trkpt lat="52.049942000" lon="9.064959100"><ele>335</ele><time>2013-04-14T13:33:54Z</time></trkpt>
 <trkpt lat="52.050031600" lon="9.064997400"><ele>336</ele><time>2013-04-14T13:33:58Z</time></trkpt>
 <trkpt lat="52.050079100" lon="9.065034500"><ele>336</ele><time>2013-04-14T13:34:02Z</time></trkpt>
 <trkpt lat="52.050142000" lon="9.065074500"><ele>336</ele><time>2013-04-14T13:34:06Z</time></trkpt>
 <trkpt lat="52.050182000" lon="9.065102000"><ele>336</ele><time>2013-04-14T13:34:10Z</time></trkpt>
 <trkpt lat="52.050241600" lon="9.065138300"><ele>337</ele><time>2013-04-14T13:34:14Z</time></trkpt>
 <trkpt lat="52.050277000" lon="9.065166200"><ele>337</ele><time>2013-04-14T13:34:18Z</time></trkpt>
 <trkpt lat="52.050320800" lon="9.065211600"><ele>338</ele><time>2013-04-14T13:34:22Z</time></trkpt>
 <trkpt lat="52.050368300" lon="9.065246600"><ele>338</ele><time>2013-04-14T13:34:26Z</time></trkpt>
 <trkpt lat="52.050414500" lon="9.065271200"><ele>339</ele><time>2013-04-14T13:34:30Z</time></trkpt>
 <trkpt lat="52.050472800" lon="9.065302000"><ele>340</ele><time>2013-04-14T13:34:34Z</time></trkpt>
 <trkpt lat="52.050525800" lon="9.065326600"><ele>340</ele><time>2013-04-14T13:34:38Z</time></trkpt>
 <trkpt lat="52.050572400" lon="9.065350700"><ele>341</ele><time>2013-04-14T13:34:42Z</time></trkpt>
 <trkpt lat="52.050620800" lon="9.065376600"><ele>341</ele><time>2013-04-14T13:34:46Z</time></trkpt>
 <trkpt lat="52.050668700" lon="9.065400800"><ele>342</ele><time>2013-04-14T13:34:50Z</time></trkpt>
 <trkpt lat="52.050717900" lon="9.065424500"><ele>342</ele><time>2013-04-14T13:34:54Z</time></trkpt>
 <trkpt lat="52.050764100" lon="9.065442400"><ele>343</ele><time>2013-04-14T13:34:58Z</time></trkpt>
 <trkpt lat="52.050812900" lon="9.065462400"><ele>343</ele><time>2013-04-14T13:35:02Z</time></trkpt>
 <trkpt lat="52.050871200" lon="9.065499900"><ele>344</ele><time>2013-04-14T13:35:06Z</time></trkpt>
 <trkpt lat="52.050918300" lon="9.065530400"><ele>344</ele><time>2013-04-14T13:35:10Z</time></trkpt>
 <trkpt lat="52.050959500" lon="9.065559500"><ele>345</ele><time>2013-04-14T13:35:14Z</time></trkpt>
 <trkpt lat="52.051008300" lon="9.065582000"><ele>345</ele><time>2013-04-14T13:35:18Z</time></trkpt>
 <trkpt lat="52.051057800" lon="9.065631600"><ele>345</ele><time>2013-04-14T13:35:22Z</time></trkpt>
 <trkpt lat="52.051095800" lon="9.065662800"><ele>345</ele><time>2013-04-14T13:35:26Z</time></trkpt>
 <trkpt lat="52.051145800" lon="9.065692400"><ele>346</ele><time>2013-04-14T13:35:30Z</time></trkpt>
 <trkpt lat="52.051196200" lon="9.065726200"><ele>346</ele><time>2013-04-14T13:35:34Z</time></trkpt>
 <trkpt lat="52.051240300" lon="9.065754500"><ele>346</ele><time>2013-04-14T13:35:38Z</time></trkpt>
 <trkpt lat="52.051291200" lon="9.065788700"><ele>346</ele><time>2013-04-14T13:35:42Z</time></trkpt>
 <trkpt lat="52.051332000" lon="9.065813300"><ele>346</ele><time>2013-04-14T13:35:46Z</time></trkpt>
 <trkpt lat="52.051383300" lon="9.065839500"><ele>346</ele><time>2013-04-14T13:35:50Z</time></trkpt>
 <trkpt lat="52.051431200" lon="9.065877400"><ele>346</ele><time>2013-04-14T13:35:54Z</time></trkpt>
 <trkpt lat="52.051483300" lon="9.065884500"><ele>346</ele><time>2013-04-14T13:35:58Z</time></trkpt>
 <trkpt lat="52.051545400" lon="9.065916600"><ele>346</ele><time>2013-04-14T13:36:02Z</time></trkpt>
 <trkpt lat="52.051586600" lon="9.065943700"><ele>346</ele><time>2013-04-14T13:36:06Z</time></trkpt>
 <trkpt lat="52.051630800" lon="9.065970800"><ele>346</ele><time>2013-04-14T13:36:10Z</time></trkpt>
 <trkpt lat="52.051670800" lon="9.066004100"><ele>346</ele><time>2013-04-14T13:36:14Z</time></trkpt>
 <trkpt lat="52.051706600" lon="9.066032400"><ele>346</ele><time>2013-04-14T13:36:18Z</time></trkpt>
 <trkpt lat="52.051754900" lon="9.066072000"><ele>346</ele><time>2013-04-14T13:36:22Z</time></trkpt>
 <trkpt lat="52.051806200" lon="9.066117800"><ele>346</ele><time>2013-04-14T13:36:26Z</time></trkpt>
 <trkpt lat="52.051838300" lon="9.066126200"><ele>345</ele><time>2013-04-14T13:36:30Z</time></trkpt>
 <trkpt lat="52.051829100" lon="9.066126200"><ele>345</ele><time>2013-04-14T13:36:34Z</time></trkpt>
 <trkpt lat="52.051823700" lon="9.066133300"><ele>345</ele><time>2013-04-14T13:36:38Z</time></trkpt>
 <trkpt lat="52.051852900" lon="9.066162000"><ele>345</ele><time>2013-04-14T13:36:42Z</time></trkpt>
 <trkpt lat="52.051907400" lon="9.066197000"><ele>345</ele><time>2013-04-14T13:36:46Z</time></trkpt>
 <trkpt lat="52.051952000" lon="9.066230000"><ele>344</ele><time>2013-04-14T13:36:50Z</time></trkpt>
 <trkpt lat="52.052003700" lon="9.066272800"><ele>344</ele><time>2013-04-14T13:36:54Z</time></trkpt>
 <trkpt lat="52.052046200" lon="9.066313300"><ele>343</ele><time>2013-04-14T13:36:58Z</time></trkpt>
 <trkpt lat="52.052074500" lon="9.066357400"><ele>343</ele><time>2013-04-14T13:37:02Z</time></trkpt>
 <trkpt lat="52.052120800" lon="9.066393700"><ele>343</ele><time>2013-04-14T13:37:06Z</time></trkpt>
 <trkpt lat="52.052171200" lon="9.066428300"><ele>343</ele><time>2013-04-14T13:37:10Z</time></trkpt>
 <trkpt lat="52.052228700" lon="9.066459500"><ele>342</ele><time>2013-04-14T13:37:14Z</time></trkpt>
 <trkpt lat="52.052286200" lon="9.066482900"><ele>342</ele><time>2013-04-14T13:37:18Z</time></trkpt>
 <trkpt lat="52.052329100" lon="9.066499900"><ele>342</ele><time>2013-04-14T13:37:22Z</time></trkpt>
 <trkpt lat="52.052382000" lon="9.066496200"><ele>342</ele><time>2013-04-14T13:37:26Z</time></trkpt>
 <trkpt lat="52.052438300" lon="9.066459100"><ele>342</ele><time>2013-04-14T13:37:30Z</time></trkpt>
 <trkpt lat="52.052472400" lon="9.066402400"><ele>342</ele><time>2013-04-14T13:37:34Z</time></trkpt>
 <trkpt lat="52.052468700" lon="9.066317800"><ele>342</ele><time>2013-04-14T13:37:38Z</time></trkpt>
 <trkpt lat="52.052475300" lon="9.066227800"><ele>342</ele><time>2013-04-14T13:37:42Z</time></trkpt>
 <trkpt lat="52.052485800" lon="9.066145700"><ele>342</ele><time>2013-04-14T13:37:46Z</time></trkpt>
 <trkpt lat="52.052487900" lon="9.066057800"><ele>342</ele><time>2013-04-14T13:37:50Z</time></trkpt>
 <trkpt lat="52.052484500" lon="9.065977900"><ele>342</ele><time>2013-04-14T13:37:54Z</time></trkpt>
 <trkpt lat="52.052486600" lon="9.065899900"><ele>343</ele><time>2013-04-14T13:37:58Z</time></trkpt>
 <trkpt lat="52.052494100" lon="9.065827400"><ele>343</ele><time>2013-04-14T13:38:02Z</time></trkpt>
 <trkpt lat="52.052508300" lon="9.065753700"><ele>343</ele><time>2013-04-14T13:38:06Z</time></trkpt>
 <trkpt lat="52.052520800" lon="9.065668700"><ele>344</ele><time>2013-04-14T13:38:10Z</time></trkpt>
 <trkpt lat="52.052528700" lon="9.065604900"><ele>344</ele><time>2013-04-14T13:38:14Z</time></trkpt>
 <trkpt lat="52.052541600" lon="9.065533700"><ele>344</ele><time>2013-04-14T13:38:18Z</time></trkpt>
 <trkpt lat="52.052559100" lon="9.065486600"><ele>344</ele><time>2013-04-14T13:38:22Z</time></trkpt>
 <trkpt lat="52.052586600" lon="9.065454500"><ele>345</ele><time>2013-04-14T13:38:26Z</time></trkpt>
 <trkpt lat="52.052625400" lon="9.065433700"><ele>345</ele><time>2013-04-14T13:38:30Z</time></trkpt>
 <trkpt lat="52.052664100" lon="9.065419100"><ele>345</ele><time>2013-04-14T13:38:34Z</time></trkpt>
 <trkpt lat="52.052718300" lon="9.065421600"><ele>345</ele><time>2013-04-14T13:38:37Z</time></trkpt>
</trkseg>
</trk>
<extensions>
</extensions>
</gpx>